<?xml version="1.0" encoding="UTF-8"?>
<gpx version="1.1" creator="https://www.youtrack.es" xsi:schemaLocation="http://www.topografix.com/GPX/1/1 http://www.topografix.com/GPX/1/1/gpx.xsd http://www.garmin.com/xmlschemas/GpxExtensions/v3 http://www.garmin.com/xmlschemas/GpxExtensionsv3.xsd http://www.garmin.com/xmlschemas/TrackPointExtension/v1 http://www.garmin.com/xmlschemas/TrackPointExtensionv1.xsd" xmlns:gpxtpx="http://www.garmin.com/xmlschemas/TrackPointExtension/v1" xmlns:gpxx="http://www.garmin.com/xmlschemas/GpxExtensions/v3" xmlns:xsi="http://www.w3.org/2001/XMLSchema-instance">
  <metadata>
    <author>
      <name>angel portilla silva</name>
      <email id="portillasilvaangel" domain="gmail.com"/>
    </author>
    <link href="https://www.youtrack.es">
      <text>YouTrack.es</text>
    </link>
    <time>2026-05-10T14:57:18Z</time>
  </metadata>
  <trk>
    <src>https://www.youtrack.es</src>
    <link href="https://www.youtrack.es/ruta/23134-la-gran-hurdana">
      <text>YouTrack.es</text>
    </link>
    <trkseg>
      <trkpt lat="40.299984" lon="-6.334142">
        <ele>436.059</ele>
        <time>2021-05-11T09:24:14Z</time>
      </trkpt>
      <trkpt lat="40.299960" lon="-6.333898">
        <ele>436.103</ele>
        <time>2021-05-11T09:24:17Z</time>
      </trkpt>
      <trkpt lat="40.299837" lon="-6.333951">
        <ele>436.123</ele>
        <time>2021-05-11T09:24:41Z</time>
      </trkpt>
      <trkpt lat="40.300182" lon="-6.333438">
        <ele>436.008</ele>
        <time>2021-05-11T09:26:36Z</time>
      </trkpt>
      <trkpt lat="40.298771" lon="-6.334128">
        <ele>436.122</ele>
        <time>2021-05-11T09:28:23Z</time>
      </trkpt>
      <trkpt lat="40.298244" lon="-6.332750">
        <ele>436.157</ele>
        <time>2021-05-11T09:28:49Z</time>
      </trkpt>
      <trkpt lat="40.298094" lon="-6.331112">
        <ele>452.042</ele>
        <time>2021-05-11T09:29:39Z</time>
      </trkpt>
      <trkpt lat="40.297560" lon="-6.330537">
        <ele>454.074</ele>
        <time>2021-05-11T09:30:11Z</time>
      </trkpt>
      <trkpt lat="40.296540" lon="-6.330570">
        <ele>470.446</ele>
        <time>2021-05-11T09:31:00Z</time>
      </trkpt>
      <trkpt lat="40.295075" lon="-6.331708">
        <ele>480.217</ele>
        <time>2021-05-11T09:32:23Z</time>
      </trkpt>
      <trkpt lat="40.294576" lon="-6.331476">
        <ele>486.380</ele>
        <time>2021-05-11T09:32:50Z</time>
      </trkpt>
      <trkpt lat="40.294498" lon="-6.330842">
        <ele>485.671</ele>
        <time>2021-05-11T09:33:14Z</time>
      </trkpt>
      <trkpt lat="40.295041" lon="-6.329946">
        <ele>491.717</ele>
        <time>2021-05-11T09:33:54Z</time>
      </trkpt>
      <trkpt lat="40.294618" lon="-6.328182">
        <ele>501.987</ele>
        <time>2021-05-11T09:35:29Z</time>
      </trkpt>
      <trkpt lat="40.294757" lon="-6.326187">
        <ele>514.715</ele>
        <time>2021-05-11T09:36:41Z</time>
      </trkpt>
      <trkpt lat="40.295623" lon="-6.324711">
        <ele>524.508</ele>
        <time>2021-05-11T09:37:46Z</time>
      </trkpt>
      <trkpt lat="40.295644" lon="-6.322895">
        <ele>529.138</ele>
        <time>2021-05-11T09:38:37Z</time>
      </trkpt>
      <trkpt lat="40.295910" lon="-6.321522">
        <ele>529.173</ele>
        <time>2021-05-11T09:39:14Z</time>
      </trkpt>
      <trkpt lat="40.295693" lon="-6.320627">
        <ele>531.028</ele>
        <time>2021-05-11T09:39:42Z</time>
      </trkpt>
      <trkpt lat="40.295829" lon="-6.318517">
        <ele>528.250</ele>
        <time>2021-05-11T09:40:17Z</time>
      </trkpt>
      <trkpt lat="40.295570" lon="-6.318031">
        <ele>528.342</ele>
        <time>2021-05-11T09:40:26Z</time>
      </trkpt>
      <trkpt lat="40.295044" lon="-6.317756">
        <ele>528.253</ele>
        <time>2021-05-11T09:40:35Z</time>
      </trkpt>
      <trkpt lat="40.294878" lon="-6.317250">
        <ele>527.936</ele>
        <time>2021-05-11T09:40:42Z</time>
      </trkpt>
      <trkpt lat="40.295309" lon="-6.316161">
        <ele>524.257</ele>
        <time>2021-05-11T09:40:58Z</time>
      </trkpt>
      <trkpt lat="40.296189" lon="-6.315620">
        <ele>514.799</ele>
        <time>2021-05-11T09:41:14Z</time>
      </trkpt>
      <trkpt lat="40.296348" lon="-6.314490">
        <ele>508.407</ele>
        <time>2021-05-11T09:41:26Z</time>
      </trkpt>
      <trkpt lat="40.296896" lon="-6.313512">
        <ele>501.327</ele>
        <time>2021-05-11T09:41:37Z</time>
      </trkpt>
      <trkpt lat="40.297008" lon="-6.312301">
        <ele>496.008</ele>
        <time>2021-05-11T09:41:48Z</time>
      </trkpt>
      <trkpt lat="40.296827" lon="-6.310544">
        <ele>486.956</ele>
        <time>2021-05-11T09:42:02Z</time>
      </trkpt>
      <trkpt lat="40.297222" lon="-6.309707">
        <ele>483.841</ele>
        <time>2021-05-11T09:42:10Z</time>
      </trkpt>
      <trkpt lat="40.297244" lon="-6.308409">
        <ele>477.656</ele>
        <time>2021-05-11T09:42:21Z</time>
      </trkpt>
      <trkpt lat="40.297774" lon="-6.306881">
        <ele>475.728</ele>
        <time>2021-05-11T09:42:42Z</time>
      </trkpt>
      <trkpt lat="40.297549" lon="-6.306340">
        <ele>475.420</ele>
        <time>2021-05-11T09:42:49Z</time>
      </trkpt>
      <trkpt lat="40.296461" lon="-6.305687">
        <ele>474.071</ele>
        <time>2021-05-11T09:43:02Z</time>
      </trkpt>
      <trkpt lat="40.295946" lon="-6.303996">
        <ele>466.784</ele>
        <time>2021-05-11T09:43:15Z</time>
      </trkpt>
      <trkpt lat="40.297150" lon="-6.302277">
        <ele>458.245</ele>
        <time>2021-05-11T09:43:41Z</time>
      </trkpt>
      <trkpt lat="40.297572" lon="-6.299992">
        <ele>457.582</ele>
        <time>2021-05-11T09:44:23Z</time>
      </trkpt>
      <trkpt lat="40.299072" lon="-6.301294">
        <ele>454.543</ele>
        <time>2021-05-11T09:46:31Z</time>
      </trkpt>
      <trkpt lat="40.298889" lon="-6.301454">
        <ele>451.417</ele>
        <time>2021-05-11T09:49:33Z</time>
      </trkpt>
      <trkpt lat="40.298959" lon="-6.301186">
        <ele>446.908</ele>
        <time>2021-05-11T10:01:45Z</time>
      </trkpt>
      <trkpt lat="40.298573" lon="-6.301461">
        <ele>444.765</ele>
        <time>2021-05-11T10:03:30Z</time>
      </trkpt>
      <trkpt lat="40.298680" lon="-6.300982">
        <ele>436.710</ele>
        <time>2021-05-11T10:04:01Z</time>
      </trkpt>
      <trkpt lat="40.297605" lon="-6.299820">
        <ele>454.695</ele>
        <time>2021-05-11T10:05:06Z</time>
      </trkpt>
      <trkpt lat="40.298002" lon="-6.298771">
        <ele>453.067</ele>
        <time>2021-05-11T10:05:26Z</time>
      </trkpt>
      <trkpt lat="40.298899" lon="-6.298277">
        <ele>452.789</ele>
        <time>2021-05-11T10:05:48Z</time>
      </trkpt>
      <trkpt lat="40.299203" lon="-6.297873">
        <ele>450.360</ele>
        <time>2021-05-11T10:05:56Z</time>
      </trkpt>
      <trkpt lat="40.299567" lon="-6.295678">
        <ele>440.113</ele>
        <time>2021-05-11T10:06:21Z</time>
      </trkpt>
      <trkpt lat="40.299220" lon="-6.295028">
        <ele>440.294</ele>
        <time>2021-05-11T10:06:34Z</time>
      </trkpt>
      <trkpt lat="40.299426" lon="-6.294629">
        <ele>440.143</ele>
        <time>2021-05-11T10:06:43Z</time>
      </trkpt>
      <trkpt lat="40.298680" lon="-6.292349">
        <ele>461.464</ele>
        <time>2021-05-11T10:07:45Z</time>
      </trkpt>
      <trkpt lat="40.298275" lon="-6.288856">
        <ele>461.410</ele>
        <time>2021-05-11T10:08:51Z</time>
      </trkpt>
      <trkpt lat="40.298626" lon="-6.284491">
        <ele>450.808</ele>
        <time>2021-05-11T10:09:44Z</time>
      </trkpt>
      <trkpt lat="40.298239" lon="-6.282960">
        <ele>441.891</ele>
        <time>2021-05-11T10:10:05Z</time>
      </trkpt>
      <trkpt lat="40.298476" lon="-6.280726">
        <ele>439.876</ele>
        <time>2021-05-11T10:10:48Z</time>
      </trkpt>
      <trkpt lat="40.297901" lon="-6.279526">
        <ele>440.251</ele>
        <time>2021-05-11T10:11:11Z</time>
      </trkpt>
      <trkpt lat="40.298524" lon="-6.278883">
        <ele>437.693</ele>
        <time>2021-05-11T10:11:29Z</time>
      </trkpt>
      <trkpt lat="40.298989" lon="-6.277984">
        <ele>439.965</ele>
        <time>2021-05-11T10:11:45Z</time>
      </trkpt>
      <trkpt lat="40.299210" lon="-6.276631">
        <ele>444.246</ele>
        <time>2021-05-11T10:12:07Z</time>
      </trkpt>
      <trkpt lat="40.299413" lon="-6.276626">
        <ele>444.879</ele>
        <time>2021-05-11T10:12:13Z</time>
      </trkpt>
      <trkpt lat="40.299896" lon="-6.277378">
        <ele>450.140</ele>
        <time>2021-05-11T10:12:41Z</time>
      </trkpt>
      <trkpt lat="40.300281" lon="-6.277447">
        <ele>453.456</ele>
        <time>2021-05-11T10:12:55Z</time>
      </trkpt>
      <trkpt lat="40.300538" lon="-6.276825">
        <ele>455.859</ele>
        <time>2021-05-11T10:13:16Z</time>
      </trkpt>
      <trkpt lat="40.301118" lon="-6.276922">
        <ele>460.714</ele>
        <time>2021-05-11T10:13:38Z</time>
      </trkpt>
      <trkpt lat="40.301587" lon="-6.276581">
        <ele>469.508</ele>
        <time>2021-05-11T10:13:58Z</time>
      </trkpt>
      <trkpt lat="40.302214" lon="-6.275219">
        <ele>466.132</ele>
        <time>2021-05-11T10:16:12Z</time>
      </trkpt>
      <trkpt lat="40.301948" lon="-6.274450">
        <ele>467.357</ele>
        <time>2021-05-11T10:16:26Z</time>
      </trkpt>
      <trkpt lat="40.301367" lon="-6.273658">
        <ele>465.272</ele>
        <time>2021-05-11T10:16:38Z</time>
      </trkpt>
      <trkpt lat="40.301111" lon="-6.272550">
        <ele>458.434</ele>
        <time>2021-05-11T10:16:49Z</time>
      </trkpt>
      <trkpt lat="40.301514" lon="-6.271676">
        <ele>455.286</ele>
        <time>2021-05-11T10:16:59Z</time>
      </trkpt>
      <trkpt lat="40.301258" lon="-6.270950">
        <ele>451.227</ele>
        <time>2021-05-11T10:17:07Z</time>
      </trkpt>
      <trkpt lat="40.301278" lon="-6.269582">
        <ele>443.490</ele>
        <time>2021-05-11T10:17:18Z</time>
      </trkpt>
      <trkpt lat="40.301046" lon="-6.269368">
        <ele>440.031</ele>
        <time>2021-05-11T10:17:23Z</time>
      </trkpt>
      <trkpt lat="40.300356" lon="-6.270062">
        <ele>436.496</ele>
        <time>2021-05-11T10:18:09Z</time>
      </trkpt>
      <trkpt lat="40.300179" lon="-6.269017">
        <ele>445.031</ele>
        <time>2021-05-11T10:18:43Z</time>
      </trkpt>
      <trkpt lat="40.299351" lon="-6.268402">
        <ele>453.224</ele>
        <time>2021-05-11T10:19:26Z</time>
      </trkpt>
      <trkpt lat="40.299048" lon="-6.267027">
        <ele>461.008</ele>
        <time>2021-05-11T10:20:13Z</time>
      </trkpt>
      <trkpt lat="40.298626" lon="-6.266887">
        <ele>461.816</ele>
        <time>2021-05-11T10:20:31Z</time>
      </trkpt>
      <trkpt lat="40.297937" lon="-6.267167">
        <ele>466.361</ele>
        <time>2021-05-11T10:21:03Z</time>
      </trkpt>
      <trkpt lat="40.297299" lon="-6.266325">
        <ele>476.636</ele>
        <time>2021-05-11T10:21:42Z</time>
      </trkpt>
      <trkpt lat="40.297187" lon="-6.264725">
        <ele>482.538</ele>
        <time>2021-05-11T10:22:38Z</time>
      </trkpt>
      <trkpt lat="40.296752" lon="-6.263793">
        <ele>487.650</ele>
        <time>2021-05-11T10:23:15Z</time>
      </trkpt>
      <trkpt lat="40.297228" lon="-6.259460">
        <ele>508.561</ele>
        <time>2021-05-11T10:25:40Z</time>
      </trkpt>
      <trkpt lat="40.296947" lon="-6.257886">
        <ele>517.244</ele>
        <time>2021-05-11T10:26:34Z</time>
      </trkpt>
      <trkpt lat="40.295712" lon="-6.257122">
        <ele>528.555</ele>
        <time>2021-05-11T10:27:34Z</time>
      </trkpt>
      <trkpt lat="40.295512" lon="-6.257308">
        <ele>527.918</ele>
        <time>2021-05-11T10:27:43Z</time>
      </trkpt>
      <trkpt lat="40.294919" lon="-6.256542">
        <ele>522.498</ele>
        <time>2021-05-11T10:29:21Z</time>
      </trkpt>
      <trkpt lat="40.294588" lon="-6.256891">
        <ele>519.817</ele>
        <time>2021-05-11T10:29:47Z</time>
      </trkpt>
      <trkpt lat="40.293452" lon="-6.256670">
        <ele>517.008</ele>
        <time>2021-05-11T10:30:32Z</time>
      </trkpt>
      <trkpt lat="40.293483" lon="-6.255792">
        <ele>517.018</ele>
        <time>2021-05-11T10:30:57Z</time>
      </trkpt>
      <trkpt lat="40.292564" lon="-6.253656">
        <ele>517.093</ele>
        <time>2021-05-11T10:31:24Z</time>
      </trkpt>
      <trkpt lat="40.291469" lon="-6.252316">
        <ele>517.088</ele>
        <time>2021-05-11T10:31:44Z</time>
      </trkpt>
      <trkpt lat="40.291528" lon="-6.252000">
        <ele>505.070</ele>
        <time>2021-05-11T10:31:50Z</time>
      </trkpt>
      <trkpt lat="40.292433" lon="-6.251730">
        <ele>485.662</ele>
        <time>2021-05-11T10:32:09Z</time>
      </trkpt>
      <trkpt lat="40.292772" lon="-6.251229">
        <ele>483.413</ele>
        <time>2021-05-11T10:33:10Z</time>
      </trkpt>
      <trkpt lat="40.292905" lon="-6.250029">
        <ele>483.346</ele>
        <time>2021-05-11T10:33:25Z</time>
      </trkpt>
      <trkpt lat="40.292491" lon="-6.248962">
        <ele>483.387</ele>
        <time>2021-05-11T10:33:37Z</time>
      </trkpt>
      <trkpt lat="40.292475" lon="-6.248296">
        <ele>479.359</ele>
        <time>2021-05-11T10:33:44Z</time>
      </trkpt>
      <trkpt lat="40.292697" lon="-6.248085">
        <ele>471.103</ele>
        <time>2021-05-11T10:33:48Z</time>
      </trkpt>
      <trkpt lat="40.293575" lon="-6.248095">
        <ele>469.923</ele>
        <time>2021-05-11T10:34:08Z</time>
      </trkpt>
      <trkpt lat="40.294258" lon="-6.246966">
        <ele>465.808</ele>
        <time>2021-05-11T10:34:32Z</time>
      </trkpt>
      <trkpt lat="40.295154" lon="-6.246022">
        <ele>466.532</ele>
        <time>2021-05-11T10:34:53Z</time>
      </trkpt>
      <trkpt lat="40.295491" lon="-6.244784">
        <ele>467.347</ele>
        <time>2021-05-11T10:35:11Z</time>
      </trkpt>
      <trkpt lat="40.296191" lon="-6.245296">
        <ele>467.512</ele>
        <time>2021-05-11T10:35:44Z</time>
      </trkpt>
      <trkpt lat="40.296788" lon="-6.244795">
        <ele>469.014</ele>
        <time>2021-05-11T10:36:05Z</time>
      </trkpt>
      <trkpt lat="40.296936" lon="-6.244348">
        <ele>466.776</ele>
        <time>2021-05-11T10:36:13Z</time>
      </trkpt>
      <trkpt lat="40.296934" lon="-6.242849">
        <ele>464.197</ele>
        <time>2021-05-11T10:36:34Z</time>
      </trkpt>
      <trkpt lat="40.297237" lon="-6.241748">
        <ele>464.590</ele>
        <time>2021-05-11T10:36:49Z</time>
      </trkpt>
      <trkpt lat="40.297576" lon="-6.241259">
        <ele>462.531</ele>
        <time>2021-05-11T10:36:58Z</time>
      </trkpt>
      <trkpt lat="40.298309" lon="-6.241156">
        <ele>465.065</ele>
        <time>2021-05-11T10:37:13Z</time>
      </trkpt>
      <trkpt lat="40.298784" lon="-6.239489">
        <ele>462.968</ele>
        <time>2021-05-11T10:37:37Z</time>
      </trkpt>
      <trkpt lat="40.298676" lon="-6.239092">
        <ele>461.314</ele>
        <time>2021-05-11T10:37:43Z</time>
      </trkpt>
      <trkpt lat="40.298258" lon="-6.238963">
        <ele>460.408</ele>
        <time>2021-05-11T10:37:49Z</time>
      </trkpt>
      <trkpt lat="40.298213" lon="-6.238291">
        <ele>456.623</ele>
        <time>2021-05-11T10:37:56Z</time>
      </trkpt>
      <trkpt lat="40.298589" lon="-6.237744">
        <ele>454.648</ele>
        <time>2021-05-11T10:38:03Z</time>
      </trkpt>
      <trkpt lat="40.300044" lon="-6.237900">
        <ele>457.473</ele>
        <time>2021-05-11T10:39:48Z</time>
      </trkpt>
      <trkpt lat="40.300480" lon="-6.237604">
        <ele>457.215</ele>
        <time>2021-05-11T10:39:55Z</time>
      </trkpt>
      <trkpt lat="40.300554" lon="-6.237140">
        <ele>453.737</ele>
        <time>2021-05-11T10:40:01Z</time>
      </trkpt>
      <trkpt lat="40.299792" lon="-6.235736">
        <ele>446.268</ele>
        <time>2021-05-11T10:40:24Z</time>
      </trkpt>
      <trkpt lat="40.300240" lon="-6.235061">
        <ele>441.171</ele>
        <time>2021-05-11T10:40:34Z</time>
      </trkpt>
      <trkpt lat="40.300947" lon="-6.234891">
        <ele>440.112</ele>
        <time>2021-05-11T10:40:48Z</time>
      </trkpt>
      <trkpt lat="40.300386" lon="-6.233764">
        <ele>438.455</ele>
        <time>2021-05-11T10:41:02Z</time>
      </trkpt>
      <trkpt lat="40.301161" lon="-6.233339">
        <ele>440.607</ele>
        <time>2021-05-11T10:41:15Z</time>
      </trkpt>
      <trkpt lat="40.301633" lon="-6.232750">
        <ele>437.217</ele>
        <time>2021-05-11T10:41:24Z</time>
      </trkpt>
      <trkpt lat="40.302377" lon="-6.229830">
        <ele>422.808</ele>
        <time>2021-05-11T10:41:50Z</time>
      </trkpt>
      <trkpt lat="40.302096" lon="-6.229497">
        <ele>420.752</ele>
        <time>2021-05-11T10:41:56Z</time>
      </trkpt>
      <trkpt lat="40.301053" lon="-6.229530">
        <ele>417.117</ele>
        <time>2021-05-11T10:42:10Z</time>
      </trkpt>
      <trkpt lat="40.300684" lon="-6.228679">
        <ele>411.852</ele>
        <time>2021-05-11T10:42:22Z</time>
      </trkpt>
      <trkpt lat="40.301536" lon="-6.228291">
        <ele>416.454</ele>
        <time>2021-05-11T10:42:46Z</time>
      </trkpt>
      <trkpt lat="40.301815" lon="-6.226899">
        <ele>412.776</ele>
        <time>2021-05-11T10:43:10Z</time>
      </trkpt>
      <trkpt lat="40.302073" lon="-6.226937">
        <ele>413.837</ele>
        <time>2021-05-11T10:43:16Z</time>
      </trkpt>
      <trkpt lat="40.302196" lon="-6.227701">
        <ele>419.180</ele>
        <time>2021-05-11T10:43:36Z</time>
      </trkpt>
      <trkpt lat="40.302538" lon="-6.227839">
        <ele>419.671</ele>
        <time>2021-05-11T10:43:50Z</time>
      </trkpt>
      <trkpt lat="40.303184" lon="-6.227283">
        <ele>424.186</ele>
        <time>2021-05-11T10:44:16Z</time>
      </trkpt>
      <trkpt lat="40.303674" lon="-6.225946">
        <ele>426.060</ele>
        <time>2021-05-11T10:45:20Z</time>
      </trkpt>
      <trkpt lat="40.303367" lon="-6.227097">
        <ele>428.926</ele>
        <time>2021-05-11T10:45:48Z</time>
      </trkpt>
      <trkpt lat="40.304369" lon="-6.225728">
        <ele>420.008</ele>
        <time>2021-05-11T10:46:25Z</time>
      </trkpt>
      <trkpt lat="40.304493" lon="-6.225180">
        <ele>414.975</ele>
        <time>2021-05-11T10:46:34Z</time>
      </trkpt>
      <trkpt lat="40.304212" lon="-6.224461">
        <ele>409.730</ele>
        <time>2021-05-11T10:46:47Z</time>
      </trkpt>
      <trkpt lat="40.304724" lon="-6.224058">
        <ele>414.385</ele>
        <time>2021-05-11T10:47:16Z</time>
      </trkpt>
      <trkpt lat="40.305020" lon="-6.223260">
        <ele>421.867</ele>
        <time>2021-05-11T10:47:59Z</time>
      </trkpt>
      <trkpt lat="40.305515" lon="-6.222902">
        <ele>427.829</ele>
        <time>2021-05-11T10:48:34Z</time>
      </trkpt>
      <trkpt lat="40.306138" lon="-6.221916">
        <ele>438.790</ele>
        <time>2021-05-11T10:49:42Z</time>
      </trkpt>
      <trkpt lat="40.305777" lon="-6.221180">
        <ele>418.453</ele>
        <time>2021-05-11T10:51:25Z</time>
      </trkpt>
      <trkpt lat="40.306071" lon="-6.220805">
        <ele>416.424</ele>
        <time>2021-05-11T10:51:43Z</time>
      </trkpt>
      <trkpt lat="40.306008" lon="-6.220214">
        <ele>417.272</ele>
        <time>2021-05-11T10:52:11Z</time>
      </trkpt>
      <trkpt lat="40.306686" lon="-6.220417">
        <ele>415.813</ele>
        <time>2021-05-11T11:01:30Z</time>
      </trkpt>
      <trkpt lat="40.307246" lon="-6.219942">
        <ele>415.814</ele>
        <time>2021-05-11T11:01:45Z</time>
      </trkpt>
      <trkpt lat="40.307411" lon="-6.219222">
        <ele>415.808</ele>
        <time>2021-05-11T11:01:59Z</time>
      </trkpt>
      <trkpt lat="40.307333" lon="-6.218426">
        <ele>416.974</ele>
        <time>2021-05-11T11:02:14Z</time>
      </trkpt>
      <trkpt lat="40.307466" lon="-6.218313">
        <ele>417.369</ele>
        <time>2021-05-11T11:02:18Z</time>
      </trkpt>
      <trkpt lat="40.308415" lon="-6.218767">
        <ele>420.554</ele>
        <time>2021-05-11T11:02:40Z</time>
      </trkpt>
      <trkpt lat="40.309397" lon="-6.218153">
        <ele>416.596</ele>
        <time>2021-05-11T11:03:02Z</time>
      </trkpt>
      <trkpt lat="40.308869" lon="-6.218540">
        <ele>414.658</ele>
        <time>2021-05-11T11:03:39Z</time>
      </trkpt>
      <trkpt lat="40.309347" lon="-6.218694">
        <ele>411.829</ele>
        <time>2021-05-11T11:03:53Z</time>
      </trkpt>
      <trkpt lat="40.309552" lon="-6.219708">
        <ele>404.572</ele>
        <time>2021-05-11T11:04:06Z</time>
      </trkpt>
      <trkpt lat="40.309172" lon="-6.220993">
        <ele>392.523</ele>
        <time>2021-05-11T11:04:26Z</time>
      </trkpt>
      <trkpt lat="40.309485" lon="-6.221231">
        <ele>385.914</ele>
        <time>2021-05-11T11:04:35Z</time>
      </trkpt>
      <trkpt lat="40.310967" lon="-6.220530">
        <ele>376.354</ele>
        <time>2021-05-11T11:05:18Z</time>
      </trkpt>
      <trkpt lat="40.311384" lon="-6.219581">
        <ele>391.609</ele>
        <time>2021-05-11T11:06:12Z</time>
      </trkpt>
      <trkpt lat="40.311660" lon="-6.219356">
        <ele>397.208</ele>
        <time>2021-05-11T11:06:35Z</time>
      </trkpt>
      <trkpt lat="40.313078" lon="-6.219685">
        <ele>412.678</ele>
        <time>2021-05-11T11:08:03Z</time>
      </trkpt>
      <trkpt lat="40.313641" lon="-6.220435">
        <ele>413.213</ele>
        <time>2021-05-11T11:08:37Z</time>
      </trkpt>
      <trkpt lat="40.313819" lon="-6.221113">
        <ele>415.368</ele>
        <time>2021-05-11T11:09:02Z</time>
      </trkpt>
      <trkpt lat="40.314456" lon="-6.221889">
        <ele>418.080</ele>
        <time>2021-05-11T11:11:20Z</time>
      </trkpt>
      <trkpt lat="40.314907" lon="-6.221793">
        <ele>414.962</ele>
        <time>2021-05-11T11:11:35Z</time>
      </trkpt>
      <trkpt lat="40.316829" lon="-6.223468">
        <ele>412.583</ele>
        <time>2021-05-11T11:12:43Z</time>
      </trkpt>
      <trkpt lat="40.317241" lon="-6.224287">
        <ele>416.796</ele>
        <time>2021-05-11T11:13:05Z</time>
      </trkpt>
      <trkpt lat="40.317975" lon="-6.224250">
        <ele>421.657</ele>
        <time>2021-05-11T11:13:36Z</time>
      </trkpt>
      <trkpt lat="40.318657" lon="-6.225617">
        <ele>412.743</ele>
        <time>2021-05-11T11:14:03Z</time>
      </trkpt>
      <trkpt lat="40.320189" lon="-6.225397">
        <ele>407.564</ele>
        <time>2021-05-11T11:14:53Z</time>
      </trkpt>
      <trkpt lat="40.321229" lon="-6.226171">
        <ele>393.710</ele>
        <time>2021-05-11T11:15:29Z</time>
      </trkpt>
      <trkpt lat="40.321243" lon="-6.226011">
        <ele>395.408</ele>
        <time>2021-05-11T11:15:48Z</time>
      </trkpt>
      <trkpt lat="40.321773" lon="-6.226528">
        <ele>403.461</ele>
        <time>2021-05-11T11:27:47Z</time>
      </trkpt>
      <trkpt lat="40.322264" lon="-6.226001">
        <ele>419.366</ele>
        <time>2021-05-11T11:28:44Z</time>
      </trkpt>
      <trkpt lat="40.323291" lon="-6.225750">
        <ele>437.161</ele>
        <time>2021-05-11T11:30:04Z</time>
      </trkpt>
      <trkpt lat="40.324061" lon="-6.225125">
        <ele>442.163</ele>
        <time>2021-05-11T11:31:04Z</time>
      </trkpt>
      <trkpt lat="40.325158" lon="-6.225800">
        <ele>452.215</ele>
        <time>2021-05-11T11:32:00Z</time>
      </trkpt>
      <trkpt lat="40.325307" lon="-6.226588">
        <ele>454.516</ele>
        <time>2021-05-11T11:32:58Z</time>
      </trkpt>
      <trkpt lat="40.326017" lon="-6.227075">
        <ele>466.539</ele>
        <time>2021-05-11T11:34:04Z</time>
      </trkpt>
      <trkpt lat="40.326023" lon="-6.227431">
        <ele>470.410</ele>
        <time>2021-05-11T11:34:35Z</time>
      </trkpt>
      <trkpt lat="40.326494" lon="-6.227718">
        <ele>481.132</ele>
        <time>2021-05-11T11:35:20Z</time>
      </trkpt>
      <trkpt lat="40.327470" lon="-6.229189">
        <ele>496.492</ele>
        <time>2021-05-11T11:37:03Z</time>
      </trkpt>
      <trkpt lat="40.328643" lon="-6.229953">
        <ele>507.411</ele>
        <time>2021-05-11T11:38:36Z</time>
      </trkpt>
      <trkpt lat="40.330529" lon="-6.230337">
        <ele>517.708</ele>
        <time>2021-05-11T11:40:04Z</time>
      </trkpt>
      <trkpt lat="40.331453" lon="-6.231356">
        <ele>526.290</ele>
        <time>2021-05-11T11:40:53Z</time>
      </trkpt>
      <trkpt lat="40.333130" lon="-6.231346">
        <ele>516.865</ele>
        <time>2021-05-11T11:42:52Z</time>
      </trkpt>
      <trkpt lat="40.334218" lon="-6.231926">
        <ele>519.320</ele>
        <time>2021-05-11T11:43:20Z</time>
      </trkpt>
      <trkpt lat="40.335959" lon="-6.234623">
        <ele>524.262</ele>
        <time>2021-05-11T11:45:10Z</time>
      </trkpt>
      <trkpt lat="40.336562" lon="-6.236438">
        <ele>522.894</ele>
        <time>2021-05-11T11:45:57Z</time>
      </trkpt>
      <trkpt lat="40.337479" lon="-6.236922">
        <ele>526.255</ele>
        <time>2021-05-11T11:46:21Z</time>
      </trkpt>
      <trkpt lat="40.338416" lon="-6.238153">
        <ele>519.328</ele>
        <time>2021-05-11T11:46:44Z</time>
      </trkpt>
      <trkpt lat="40.338892" lon="-6.237954">
        <ele>515.019</ele>
        <time>2021-05-11T11:46:57Z</time>
      </trkpt>
      <trkpt lat="40.338918" lon="-6.237393">
        <ele>514.855</ele>
        <time>2021-05-11T11:47:05Z</time>
      </trkpt>
      <trkpt lat="40.339169" lon="-6.237261">
        <ele>515.107</ele>
        <time>2021-05-11T11:47:14Z</time>
      </trkpt>
      <trkpt lat="40.339779" lon="-6.236137">
        <ele>510.917</ele>
        <time>2021-05-11T11:47:51Z</time>
      </trkpt>
      <trkpt lat="40.340803" lon="-6.238529">
        <ele>498.808</ele>
        <time>2021-05-11T11:52:03Z</time>
      </trkpt>
      <trkpt lat="40.342412" lon="-6.239084">
        <ele>484.662</ele>
        <time>2021-05-11T11:52:45Z</time>
      </trkpt>
      <trkpt lat="40.342924" lon="-6.238678">
        <ele>481.787</ele>
        <time>2021-05-11T11:54:00Z</time>
      </trkpt>
      <trkpt lat="40.343110" lon="-6.239096">
        <ele>481.892</ele>
        <time>2021-05-11T11:54:29Z</time>
      </trkpt>
      <trkpt lat="40.342800" lon="-6.238251">
        <ele>481.864</ele>
        <time>2021-05-11T11:58:16Z</time>
      </trkpt>
      <trkpt lat="40.342891" lon="-6.237739">
        <ele>481.786</ele>
        <time>2021-05-11T11:58:32Z</time>
      </trkpt>
      <trkpt lat="40.343942" lon="-6.236250">
        <ele>488.647</ele>
        <time>2021-05-11T11:59:26Z</time>
      </trkpt>
      <trkpt lat="40.344768" lon="-6.235777">
        <ele>497.840</ele>
        <time>2021-05-11T11:59:58Z</time>
      </trkpt>
      <trkpt lat="40.346384" lon="-6.235579">
        <ele>508.781</ele>
        <time>2021-05-11T12:01:12Z</time>
      </trkpt>
      <trkpt lat="40.347722" lon="-6.234325">
        <ele>513.932</ele>
        <time>2021-05-11T12:02:24Z</time>
      </trkpt>
      <trkpt lat="40.349241" lon="-6.227784">
        <ele>538.392</ele>
        <time>2021-05-11T12:05:41Z</time>
      </trkpt>
      <trkpt lat="40.349714" lon="-6.226953">
        <ele>533.011</ele>
        <time>2021-05-11T12:05:52Z</time>
      </trkpt>
      <trkpt lat="40.351483" lon="-6.224894">
        <ele>515.608</ele>
        <time>2021-05-11T12:06:36Z</time>
      </trkpt>
      <trkpt lat="40.351433" lon="-6.223236">
        <ele>506.450</ele>
        <time>2021-05-11T12:06:47Z</time>
      </trkpt>
      <trkpt lat="40.352606" lon="-6.219746">
        <ele>485.485</ele>
        <time>2021-05-11T12:07:11Z</time>
      </trkpt>
      <trkpt lat="40.353388" lon="-6.216444">
        <ele>475.310</ele>
        <time>2021-05-11T12:07:41Z</time>
      </trkpt>
      <trkpt lat="40.354397" lon="-6.214588">
        <ele>475.582</ele>
        <time>2021-05-11T12:08:12Z</time>
      </trkpt>
      <trkpt lat="40.354514" lon="-6.212948">
        <ele>474.844</ele>
        <time>2021-05-11T12:08:33Z</time>
      </trkpt>
      <trkpt lat="40.356212" lon="-6.208632">
        <ele>488.095</ele>
        <time>2021-05-11T12:09:58Z</time>
      </trkpt>
      <trkpt lat="40.357549" lon="-6.206833">
        <ele>498.638</ele>
        <time>2021-05-11T12:11:23Z</time>
      </trkpt>
      <trkpt lat="40.358059" lon="-6.206428">
        <ele>504.859</ele>
        <time>2021-05-11T12:11:50Z</time>
      </trkpt>
      <trkpt lat="40.359014" lon="-6.206160">
        <ele>506.597</ele>
        <time>2021-05-11T12:12:31Z</time>
      </trkpt>
      <trkpt lat="40.359366" lon="-6.205784">
        <ele>510.123</ele>
        <time>2021-05-11T12:12:49Z</time>
      </trkpt>
      <trkpt lat="40.360028" lon="-6.202660">
        <ele>517.625</ele>
        <time>2021-05-11T12:14:09Z</time>
      </trkpt>
      <trkpt lat="40.360377" lon="-6.202414">
        <ele>517.808</ele>
        <time>2021-05-11T12:14:21Z</time>
      </trkpt>
      <trkpt lat="40.361215" lon="-6.202644">
        <ele>515.186</ele>
        <time>2021-05-11T12:14:36Z</time>
      </trkpt>
      <trkpt lat="40.361611" lon="-6.202473">
        <ele>513.941</ele>
        <time>2021-05-11T12:14:42Z</time>
      </trkpt>
      <trkpt lat="40.362663" lon="-6.200903">
        <ele>516.366</ele>
        <time>2021-05-11T12:15:33Z</time>
      </trkpt>
      <trkpt lat="40.363771" lon="-6.200272">
        <ele>522.018</ele>
        <time>2021-05-11T12:16:15Z</time>
      </trkpt>
      <trkpt lat="40.365372" lon="-6.198337">
        <ele>541.660</ele>
        <time>2021-05-11T12:23:58Z</time>
      </trkpt>
      <trkpt lat="40.366214" lon="-6.196659">
        <ele>549.151</ele>
        <time>2021-05-11T12:25:03Z</time>
      </trkpt>
      <trkpt lat="40.367251" lon="-6.196499">
        <ele>555.054</ele>
        <time>2021-05-11T12:25:37Z</time>
      </trkpt>
      <trkpt lat="40.368208" lon="-6.195436">
        <ele>548.615</ele>
        <time>2021-05-11T12:26:00Z</time>
      </trkpt>
      <trkpt lat="40.369583" lon="-6.195064">
        <ele>540.866</ele>
        <time>2021-05-11T12:26:23Z</time>
      </trkpt>
      <trkpt lat="40.369910" lon="-6.195431">
        <ele>538.829</ele>
        <time>2021-05-11T12:26:29Z</time>
      </trkpt>
      <trkpt lat="40.370127" lon="-6.196772">
        <ele>533.121</ele>
        <time>2021-05-11T12:26:45Z</time>
      </trkpt>
      <trkpt lat="40.370867" lon="-6.197064">
        <ele>531.908</ele>
        <time>2021-05-11T12:26:59Z</time>
      </trkpt>
      <trkpt lat="40.371181" lon="-6.196977">
        <ele>533.073</ele>
        <time>2021-05-11T12:27:04Z</time>
      </trkpt>
      <trkpt lat="40.371449" lon="-6.196515">
        <ele>532.258</ele>
        <time>2021-05-11T12:27:10Z</time>
      </trkpt>
      <trkpt lat="40.371556" lon="-6.195004">
        <ele>526.443</ele>
        <time>2021-05-11T12:27:25Z</time>
      </trkpt>
      <trkpt lat="40.372356" lon="-6.194297">
        <ele>524.515</ele>
        <time>2021-05-11T12:27:35Z</time>
      </trkpt>
      <trkpt lat="40.372842" lon="-6.192715">
        <ele>518.727</ele>
        <time>2021-05-11T12:27:49Z</time>
      </trkpt>
      <trkpt lat="40.375085" lon="-6.190044">
        <ele>504.828</ele>
        <time>2021-05-11T12:28:22Z</time>
      </trkpt>
      <trkpt lat="40.375092" lon="-6.188712">
        <ele>498.531</ele>
        <time>2021-05-11T12:28:35Z</time>
      </trkpt>
      <trkpt lat="40.375351" lon="-6.188263">
        <ele>495.782</ele>
        <time>2021-05-11T12:28:42Z</time>
      </trkpt>
      <trkpt lat="40.375660" lon="-6.188295">
        <ele>494.373</ele>
        <time>2021-05-11T12:28:47Z</time>
      </trkpt>
      <trkpt lat="40.375861" lon="-6.188786">
        <ele>492.585</ele>
        <time>2021-05-11T12:28:53Z</time>
      </trkpt>
      <trkpt lat="40.375372" lon="-6.190100">
        <ele>483.913</ele>
        <time>2021-05-11T12:29:07Z</time>
      </trkpt>
      <trkpt lat="40.375410" lon="-6.191549">
        <ele>476.308</ele>
        <time>2021-05-11T12:29:18Z</time>
      </trkpt>
      <trkpt lat="40.375886" lon="-6.191966">
        <ele>474.124</ele>
        <time>2021-05-11T12:29:23Z</time>
      </trkpt>
      <trkpt lat="40.378474" lon="-6.191662">
        <ele>455.469</ele>
        <time>2021-05-11T12:29:45Z</time>
      </trkpt>
      <trkpt lat="40.378728" lon="-6.191285">
        <ele>451.844</ele>
        <time>2021-05-11T12:29:49Z</time>
      </trkpt>
      <trkpt lat="40.378882" lon="-6.189504">
        <ele>437.166</ele>
        <time>2021-05-11T12:30:18Z</time>
      </trkpt>
      <trkpt lat="40.378811" lon="-6.186902">
        <ele>450.058</ele>
        <time>2021-05-11T12:31:02Z</time>
      </trkpt>
      <trkpt lat="40.378966" lon="-6.186501">
        <ele>451.199</ele>
        <time>2021-05-11T12:31:07Z</time>
      </trkpt>
      <trkpt lat="40.379504" lon="-6.186500">
        <ele>448.732</ele>
        <time>2021-05-11T12:31:14Z</time>
      </trkpt>
      <trkpt lat="40.380222" lon="-6.187711">
        <ele>445.883</ele>
        <time>2021-05-11T12:31:27Z</time>
      </trkpt>
      <trkpt lat="40.380321" lon="-6.189266">
        <ele>436.889</ele>
        <time>2021-05-11T12:31:39Z</time>
      </trkpt>
      <trkpt lat="40.380509" lon="-6.189497">
        <ele>435.206</ele>
        <time>2021-05-11T12:31:42Z</time>
      </trkpt>
      <trkpt lat="40.380877" lon="-6.189312">
        <ele>434.626</ele>
        <time>2021-05-11T12:31:46Z</time>
      </trkpt>
      <trkpt lat="40.381486" lon="-6.188339">
        <ele>425.508</ele>
        <time>2021-05-11T12:31:58Z</time>
      </trkpt>
      <trkpt lat="40.383431" lon="-6.186604">
        <ele>403.285</ele>
        <time>2021-05-11T12:39:34Z</time>
      </trkpt>
      <trkpt lat="40.383620" lon="-6.187405">
        <ele>411.330</ele>
        <time>2021-05-11T12:50:19Z</time>
      </trkpt>
      <trkpt lat="40.383487" lon="-6.187409">
        <ele>428.455</ele>
        <time>2021-05-11T13:02:45Z</time>
      </trkpt>
      <trkpt lat="40.383530" lon="-6.186520">
        <ele>405.217</ele>
        <time>2021-05-11T13:03:11Z</time>
      </trkpt>
      <trkpt lat="40.384411" lon="-6.185228">
        <ele>403.399</ele>
        <time>2021-05-11T13:03:42Z</time>
      </trkpt>
      <trkpt lat="40.384967" lon="-6.182941">
        <ele>403.170</ele>
        <time>2021-05-11T13:04:19Z</time>
      </trkpt>
      <trkpt lat="40.386220" lon="-6.179401">
        <ele>408.653</ele>
        <time>2021-05-11T13:05:33Z</time>
      </trkpt>
      <trkpt lat="40.385209" lon="-6.179268">
        <ele>408.674</ele>
        <time>2021-05-11T13:06:00Z</time>
      </trkpt>
      <trkpt lat="40.384326" lon="-6.179948">
        <ele>408.876</ele>
        <time>2021-05-11T13:06:31Z</time>
      </trkpt>
      <trkpt lat="40.382942" lon="-6.179414">
        <ele>405.890</ele>
        <time>2021-05-11T13:07:18Z</time>
      </trkpt>
      <trkpt lat="40.382254" lon="-6.179677">
        <ele>405.819</ele>
        <time>2021-05-11T13:07:43Z</time>
      </trkpt>
      <trkpt lat="40.381357" lon="-6.180414">
        <ele>404.908</ele>
        <time>2021-05-11T13:08:23Z</time>
      </trkpt>
      <trkpt lat="40.379599" lon="-6.179860">
        <ele>440.424</ele>
        <time>2021-05-11T13:09:31Z</time>
      </trkpt>
      <trkpt lat="40.379446" lon="-6.179403">
        <ele>438.819</ele>
        <time>2021-05-11T13:09:45Z</time>
      </trkpt>
      <trkpt lat="40.379572" lon="-6.177659">
        <ele>438.024</ele>
        <time>2021-05-11T13:10:17Z</time>
      </trkpt>
      <trkpt lat="40.378425" lon="-6.173015">
        <ele>427.996</ele>
        <time>2021-05-11T13:12:19Z</time>
      </trkpt>
      <trkpt lat="40.377729" lon="-6.171861">
        <ele>420.978</ele>
        <time>2021-05-11T13:12:38Z</time>
      </trkpt>
      <trkpt lat="40.376675" lon="-6.169420">
        <ele>422.419</ele>
        <time>2021-05-11T13:13:12Z</time>
      </trkpt>
      <trkpt lat="40.377018" lon="-6.168709">
        <ele>427.922</ele>
        <time>2021-05-11T13:14:13Z</time>
      </trkpt>
      <trkpt lat="40.378314" lon="-6.168193">
        <ele>409.163</ele>
        <time>2021-05-11T13:16:38Z</time>
      </trkpt>
      <trkpt lat="40.379139" lon="-6.165901">
        <ele>401.878</ele>
        <time>2021-05-11T13:17:28Z</time>
      </trkpt>
      <trkpt lat="40.379027" lon="-6.165321">
        <ele>395.533</ele>
        <time>2021-05-11T13:18:01Z</time>
      </trkpt>
      <trkpt lat="40.379642" lon="-6.163739">
        <ele>402.526</ele>
        <time>2021-05-11T13:19:32Z</time>
      </trkpt>
      <trkpt lat="40.379930" lon="-6.163770">
        <ele>404.508</ele>
        <time>2021-05-11T13:21:28Z</time>
      </trkpt>
      <trkpt lat="40.379817" lon="-6.163993">
        <ele>398.394</ele>
        <time>2021-05-11T13:22:24Z</time>
      </trkpt>
      <trkpt lat="40.380025" lon="-6.163954">
        <ele>417.579</ele>
        <time>2021-05-11T13:22:57Z</time>
      </trkpt>
      <trkpt lat="40.380503" lon="-6.163074">
        <ele>392.994</ele>
        <time>2021-05-11T13:23:40Z</time>
      </trkpt>
      <trkpt lat="40.380636" lon="-6.162389">
        <ele>392.646</ele>
        <time>2021-05-11T13:23:56Z</time>
      </trkpt>
      <trkpt lat="40.380508" lon="-6.160803">
        <ele>411.238</ele>
        <time>2021-05-11T13:24:23Z</time>
      </trkpt>
      <trkpt lat="40.379886" lon="-6.159758">
        <ele>392.399</ele>
        <time>2021-05-11T13:26:44Z</time>
      </trkpt>
      <trkpt lat="40.379114" lon="-6.159687">
        <ele>390.052</ele>
        <time>2021-05-11T13:27:58Z</time>
      </trkpt>
      <trkpt lat="40.379124" lon="-6.159015">
        <ele>387.293</ele>
        <time>2021-05-11T13:28:52Z</time>
      </trkpt>
      <trkpt lat="40.380104" lon="-6.158323">
        <ele>444.686</ele>
        <time>2021-05-11T13:30:20Z</time>
      </trkpt>
      <trkpt lat="40.380580" lon="-6.157100">
        <ele>441.660</ele>
        <time>2021-05-11T13:31:01Z</time>
      </trkpt>
      <trkpt lat="40.379572" lon="-6.157553">
        <ele>447.926</ele>
        <time>2021-05-11T13:31:52Z</time>
      </trkpt>
      <trkpt lat="40.378173" lon="-6.157254">
        <ele>461.108</ele>
        <time>2021-05-11T13:33:11Z</time>
      </trkpt>
      <trkpt lat="40.378305" lon="-6.157428">
        <ele>460.335</ele>
        <time>2021-05-11T13:33:37Z</time>
      </trkpt>
      <trkpt lat="40.378129" lon="-6.157420">
        <ele>459.810</ele>
        <time>2021-05-11T13:33:46Z</time>
      </trkpt>
      <trkpt lat="40.377778" lon="-6.156472">
        <ele>455.415</ele>
        <time>2021-05-11T13:34:17Z</time>
      </trkpt>
      <trkpt lat="40.378164" lon="-6.155609">
        <ele>451.587</ele>
        <time>2021-05-11T13:36:09Z</time>
      </trkpt>
      <trkpt lat="40.377475" lon="-6.155598">
        <ele>453.749</ele>
        <time>2021-05-11T13:36:33Z</time>
      </trkpt>
      <trkpt lat="40.377087" lon="-6.155265">
        <ele>451.360</ele>
        <time>2021-05-11T13:36:46Z</time>
      </trkpt>
      <trkpt lat="40.377082" lon="-6.153670">
        <ele>452.123</ele>
        <time>2021-05-11T13:37:26Z</time>
      </trkpt>
      <trkpt lat="40.378134" lon="-6.152399">
        <ele>445.744</ele>
        <time>2021-05-11T13:37:55Z</time>
      </trkpt>
      <trkpt lat="40.378287" lon="-6.151930">
        <ele>442.748</ele>
        <time>2021-05-11T13:38:08Z</time>
      </trkpt>
      <trkpt lat="40.376535" lon="-6.152603">
        <ele>453.861</ele>
        <time>2021-05-11T13:39:08Z</time>
      </trkpt>
      <trkpt lat="40.375482" lon="-6.153747">
        <ele>459.417</ele>
        <time>2021-05-11T13:40:01Z</time>
      </trkpt>
      <trkpt lat="40.375414" lon="-6.152517">
        <ele>461.708</ele>
        <time>2021-05-11T13:40:35Z</time>
      </trkpt>
      <trkpt lat="40.374045" lon="-6.152624">
        <ele>464.411</ele>
        <time>2021-05-11T13:41:23Z</time>
      </trkpt>
      <trkpt lat="40.373526" lon="-6.151320">
        <ele>467.516</ele>
        <time>2021-05-11T13:42:02Z</time>
      </trkpt>
      <trkpt lat="40.372835" lon="-6.151220">
        <ele>468.371</ele>
        <time>2021-05-11T13:42:29Z</time>
      </trkpt>
      <trkpt lat="40.372260" lon="-6.150507">
        <ele>468.753</ele>
        <time>2021-05-11T13:42:53Z</time>
      </trkpt>
      <trkpt lat="40.372381" lon="-6.149991">
        <ele>471.615</ele>
        <time>2021-05-11T13:43:13Z</time>
      </trkpt>
      <trkpt lat="40.372166" lon="-6.149258">
        <ele>476.856</ele>
        <time>2021-05-11T13:43:34Z</time>
      </trkpt>
      <trkpt lat="40.373170" lon="-6.148235">
        <ele>471.159</ele>
        <time>2021-05-11T13:44:14Z</time>
      </trkpt>
      <trkpt lat="40.372722" lon="-6.147639">
        <ele>479.040</ele>
        <time>2021-05-11T13:44:36Z</time>
      </trkpt>
      <trkpt lat="40.372705" lon="-6.147241">
        <ele>477.043</ele>
        <time>2021-05-11T13:44:47Z</time>
      </trkpt>
      <trkpt lat="40.371851" lon="-6.146271">
        <ele>482.864</ele>
        <time>2021-05-11T13:45:22Z</time>
      </trkpt>
      <trkpt lat="40.372192" lon="-6.145092">
        <ele>479.410</ele>
        <time>2021-05-11T13:45:51Z</time>
      </trkpt>
      <trkpt lat="40.371946" lon="-6.144642">
        <ele>480.108</ele>
        <time>2021-05-11T13:46:10Z</time>
      </trkpt>
      <trkpt lat="40.371370" lon="-6.144300">
        <ele>480.421</ele>
        <time>2021-05-11T13:46:27Z</time>
      </trkpt>
      <trkpt lat="40.371108" lon="-6.143866">
        <ele>484.186</ele>
        <time>2021-05-11T13:46:40Z</time>
      </trkpt>
      <trkpt lat="40.370592" lon="-6.143909">
        <ele>485.361</ele>
        <time>2021-05-11T13:47:01Z</time>
      </trkpt>
      <trkpt lat="40.370063" lon="-6.143494">
        <ele>480.413</ele>
        <time>2021-05-11T13:47:23Z</time>
      </trkpt>
      <trkpt lat="40.369881" lon="-6.142955">
        <ele>481.975</ele>
        <time>2021-05-11T13:47:40Z</time>
      </trkpt>
      <trkpt lat="40.369185" lon="-6.142256">
        <ele>487.596</ele>
        <time>2021-05-11T13:48:14Z</time>
      </trkpt>
      <trkpt lat="40.370551" lon="-6.140896">
        <ele>486.759</ele>
        <time>2021-05-11T13:50:16Z</time>
      </trkpt>
      <trkpt lat="40.370394" lon="-6.139912">
        <ele>487.170</ele>
        <time>2021-05-11T13:50:33Z</time>
      </trkpt>
      <trkpt lat="40.371540" lon="-6.139030">
        <ele>478.848</ele>
        <time>2021-05-11T13:51:05Z</time>
      </trkpt>
      <trkpt lat="40.372541" lon="-6.139287">
        <ele>462.061</ele>
        <time>2021-05-11T13:51:25Z</time>
      </trkpt>
      <trkpt lat="40.372964" lon="-6.139014">
        <ele>464.617</ele>
        <time>2021-05-11T13:51:38Z</time>
      </trkpt>
      <trkpt lat="40.372475" lon="-6.138401">
        <ele>458.708</ele>
        <time>2021-05-11T13:52:12Z</time>
      </trkpt>
      <trkpt lat="40.372359" lon="-6.137437">
        <ele>454.121</ele>
        <time>2021-05-11T13:52:37Z</time>
      </trkpt>
      <trkpt lat="40.370577" lon="-6.137604">
        <ele>455.356</ele>
        <time>2021-05-11T13:53:25Z</time>
      </trkpt>
      <trkpt lat="40.369463" lon="-6.137271">
        <ele>459.081</ele>
        <time>2021-05-11T13:53:50Z</time>
      </trkpt>
      <trkpt lat="40.369741" lon="-6.136323">
        <ele>456.063</ele>
        <time>2021-05-11T13:54:15Z</time>
      </trkpt>
      <trkpt lat="40.369061" lon="-6.135303">
        <ele>458.485</ele>
        <time>2021-05-11T13:54:42Z</time>
      </trkpt>
      <trkpt lat="40.369039" lon="-6.134535">
        <ele>457.166</ele>
        <time>2021-05-11T13:54:58Z</time>
      </trkpt>
      <trkpt lat="40.369277" lon="-6.134420">
        <ele>456.539</ele>
        <time>2021-05-11T13:55:06Z</time>
      </trkpt>
      <trkpt lat="40.370349" lon="-6.134738">
        <ele>458.020</ele>
        <time>2021-05-11T13:55:34Z</time>
      </trkpt>
      <trkpt lat="40.370797" lon="-6.134408">
        <ele>461.074</ele>
        <time>2021-05-11T13:55:51Z</time>
      </trkpt>
      <trkpt lat="40.370324" lon="-6.133937">
        <ele>462.256</ele>
        <time>2021-05-11T13:56:21Z</time>
      </trkpt>
      <trkpt lat="40.369876" lon="-6.132322">
        <ele>468.821</ele>
        <time>2021-05-11T13:57:04Z</time>
      </trkpt>
      <trkpt lat="40.368967" lon="-6.131809">
        <ele>472.408</ele>
        <time>2021-05-11T13:57:38Z</time>
      </trkpt>
      <trkpt lat="40.368862" lon="-6.131510">
        <ele>473.154</ele>
        <time>2021-05-11T13:57:48Z</time>
      </trkpt>
      <trkpt lat="40.369690" lon="-6.129903">
        <ele>482.959</ele>
        <time>2021-05-11T14:00:05Z</time>
      </trkpt>
      <trkpt lat="40.369127" lon="-6.128858">
        <ele>483.474</ele>
        <time>2021-05-11T14:00:47Z</time>
      </trkpt>
      <trkpt lat="40.369583" lon="-6.126814">
        <ele>495.366</ele>
        <time>2021-05-11T14:02:08Z</time>
      </trkpt>
      <trkpt lat="40.369478" lon="-6.125475">
        <ele>498.458</ele>
        <time>2021-05-11T14:02:58Z</time>
      </trkpt>
      <trkpt lat="40.370355" lon="-6.125276">
        <ele>501.349</ele>
        <time>2021-05-11T14:04:09Z</time>
      </trkpt>
      <trkpt lat="40.371026" lon="-6.126154">
        <ele>503.762</ele>
        <time>2021-05-11T14:04:36Z</time>
      </trkpt>
      <trkpt lat="40.371651" lon="-6.125630">
        <ele>500.513</ele>
        <time>2021-05-11T14:04:57Z</time>
      </trkpt>
      <trkpt lat="40.371617" lon="-6.125084">
        <ele>501.268</ele>
        <time>2021-05-11T14:05:07Z</time>
      </trkpt>
      <trkpt lat="40.372451" lon="-6.124312">
        <ele>497.542</ele>
        <time>2021-05-11T14:06:59Z</time>
      </trkpt>
      <trkpt lat="40.372595" lon="-6.122416">
        <ele>498.826</ele>
        <time>2021-05-11T14:07:36Z</time>
      </trkpt>
      <trkpt lat="40.372854" lon="-6.121927">
        <ele>498.908</ele>
        <time>2021-05-11T14:07:44Z</time>
      </trkpt>
      <trkpt lat="40.373621" lon="-6.121708">
        <ele>495.293</ele>
        <time>2021-05-11T14:08:04Z</time>
      </trkpt>
      <trkpt lat="40.375392" lon="-6.122502">
        <ele>496.348</ele>
        <time>2021-05-11T14:08:47Z</time>
      </trkpt>
      <trkpt lat="40.375673" lon="-6.121780">
        <ele>500.633</ele>
        <time>2021-05-11T14:09:05Z</time>
      </trkpt>
      <trkpt lat="40.376609" lon="-6.120717">
        <ele>499.115</ele>
        <time>2021-05-11T14:09:36Z</time>
      </trkpt>
      <trkpt lat="40.377490" lon="-6.120600">
        <ele>497.717</ele>
        <time>2021-05-11T14:10:13Z</time>
      </trkpt>
      <trkpt lat="40.377550" lon="-6.120317">
        <ele>497.468</ele>
        <time>2021-05-11T14:10:24Z</time>
      </trkpt>
      <trkpt lat="40.376462" lon="-6.119981">
        <ele>497.881</ele>
        <time>2021-05-11T14:10:54Z</time>
      </trkpt>
      <trkpt lat="40.375863" lon="-6.120519">
        <ele>498.212</ele>
        <time>2021-05-11T14:11:09Z</time>
      </trkpt>
      <trkpt lat="40.374815" lon="-6.120606">
        <ele>492.924</ele>
        <time>2021-05-11T14:11:32Z</time>
      </trkpt>
      <trkpt lat="40.374303" lon="-6.120154">
        <ele>495.004</ele>
        <time>2021-05-11T14:11:44Z</time>
      </trkpt>
      <trkpt lat="40.373738" lon="-6.119136">
        <ele>494.514</ele>
        <time>2021-05-11T14:12:05Z</time>
      </trkpt>
      <trkpt lat="40.373079" lon="-6.119340">
        <ele>489.008</ele>
        <time>2021-05-11T14:12:24Z</time>
      </trkpt>
      <trkpt lat="40.372776" lon="-6.118989">
        <ele>487.879</ele>
        <time>2021-05-11T14:12:36Z</time>
      </trkpt>
      <trkpt lat="40.373420" lon="-6.117135">
        <ele>496.084</ele>
        <time>2021-05-11T14:13:48Z</time>
      </trkpt>
      <trkpt lat="40.373199" lon="-6.114579">
        <ele>507.429</ele>
        <time>2021-05-11T14:15:31Z</time>
      </trkpt>
      <trkpt lat="40.374030" lon="-6.114470">
        <ele>514.041</ele>
        <time>2021-05-11T14:18:34Z</time>
      </trkpt>
      <trkpt lat="40.374593" lon="-6.114760">
        <ele>517.063</ele>
        <time>2021-05-11T14:18:53Z</time>
      </trkpt>
      <trkpt lat="40.375212" lon="-6.113382">
        <ele>513.724</ele>
        <time>2021-05-11T14:19:30Z</time>
      </trkpt>
      <trkpt lat="40.374722" lon="-6.113273">
        <ele>510.567</ele>
        <time>2021-05-11T14:19:48Z</time>
      </trkpt>
      <trkpt lat="40.374018" lon="-6.112532">
        <ele>513.568</ele>
        <time>2021-05-11T14:20:10Z</time>
      </trkpt>
      <trkpt lat="40.373704" lon="-6.111301">
        <ele>511.974</ele>
        <time>2021-05-11T14:20:41Z</time>
      </trkpt>
      <trkpt lat="40.374365" lon="-6.111102">
        <ele>511.856</ele>
        <time>2021-05-11T14:21:03Z</time>
      </trkpt>
      <trkpt lat="40.375208" lon="-6.110292">
        <ele>514.521</ele>
        <time>2021-05-11T14:21:26Z</time>
      </trkpt>
      <trkpt lat="40.375916" lon="-6.110193">
        <ele>513.508</ele>
        <time>2021-05-11T14:21:46Z</time>
      </trkpt>
      <trkpt lat="40.376582" lon="-6.109156">
        <ele>514.394</ele>
        <time>2021-05-11T14:22:11Z</time>
      </trkpt>
      <trkpt lat="40.376901" lon="-6.108994">
        <ele>515.629</ele>
        <time>2021-05-11T14:22:22Z</time>
      </trkpt>
      <trkpt lat="40.378158" lon="-6.109407">
        <ele>514.734</ele>
        <time>2021-05-11T14:22:58Z</time>
      </trkpt>
      <trkpt lat="40.378775" lon="-6.111541">
        <ele>512.656</ele>
        <time>2021-05-11T14:23:47Z</time>
      </trkpt>
      <trkpt lat="40.379334" lon="-6.111895">
        <ele>519.768</ele>
        <time>2021-05-11T14:24:06Z</time>
      </trkpt>
      <trkpt lat="40.379988" lon="-6.111533">
        <ele>524.259</ele>
        <time>2021-05-11T14:24:26Z</time>
      </trkpt>
      <trkpt lat="40.381008" lon="-6.111571">
        <ele>524.922</ele>
        <time>2021-05-11T14:24:50Z</time>
      </trkpt>
      <trkpt lat="40.381320" lon="-6.111028">
        <ele>522.013</ele>
        <time>2021-05-11T14:26:11Z</time>
      </trkpt>
      <trkpt lat="40.381325" lon="-6.110083">
        <ele>524.223</ele>
        <time>2021-05-11T14:26:38Z</time>
      </trkpt>
      <trkpt lat="40.381601" lon="-6.109688">
        <ele>526.783</ele>
        <time>2021-05-11T14:27:02Z</time>
      </trkpt>
      <trkpt lat="40.382427" lon="-6.109993">
        <ele>531.311</ele>
        <time>2021-05-11T14:27:55Z</time>
      </trkpt>
      <trkpt lat="40.383336" lon="-6.109978">
        <ele>535.608</ele>
        <time>2021-05-11T14:28:45Z</time>
      </trkpt>
      <trkpt lat="40.384366" lon="-6.110579">
        <ele>545.989</ele>
        <time>2021-05-11T14:29:59Z</time>
      </trkpt>
      <trkpt lat="40.384461" lon="-6.110369">
        <ele>547.634</ele>
        <time>2021-05-11T14:30:07Z</time>
      </trkpt>
      <trkpt lat="40.384131" lon="-6.108789">
        <ele>547.319</ele>
        <time>2021-05-11T14:30:31Z</time>
      </trkpt>
      <trkpt lat="40.384452" lon="-6.108411">
        <ele>539.941</ele>
        <time>2021-05-11T14:30:39Z</time>
      </trkpt>
      <trkpt lat="40.385129" lon="-6.108302">
        <ele>532.323</ele>
        <time>2021-05-11T14:30:53Z</time>
      </trkpt>
      <trkpt lat="40.385468" lon="-6.107731">
        <ele>533.594</ele>
        <time>2021-05-11T14:31:07Z</time>
      </trkpt>
      <trkpt lat="40.384989" lon="-6.107491">
        <ele>527.957</ele>
        <time>2021-05-11T14:31:41Z</time>
      </trkpt>
      <trkpt lat="40.384536" lon="-6.106289">
        <ele>527.468</ele>
        <time>2021-05-11T14:32:23Z</time>
      </trkpt>
      <trkpt lat="40.383683" lon="-6.106608">
        <ele>534.397</ele>
        <time>2021-05-11T14:32:49Z</time>
      </trkpt>
      <trkpt lat="40.383133" lon="-6.107205">
        <ele>529.723</ele>
        <time>2021-05-11T14:33:03Z</time>
      </trkpt>
      <trkpt lat="40.382127" lon="-6.106758">
        <ele>527.025</ele>
        <time>2021-05-11T14:33:23Z</time>
      </trkpt>
      <trkpt lat="40.380146" lon="-6.106968">
        <ele>523.708</ele>
        <time>2021-05-11T14:33:56Z</time>
      </trkpt>
      <trkpt lat="40.379425" lon="-6.106623">
        <ele>519.266</ele>
        <time>2021-05-11T14:34:07Z</time>
      </trkpt>
      <trkpt lat="40.378488" lon="-6.105362">
        <ele>512.661</ele>
        <time>2021-05-11T14:34:38Z</time>
      </trkpt>
      <trkpt lat="40.378407" lon="-6.104846">
        <ele>506.266</ele>
        <time>2021-05-11T14:34:53Z</time>
      </trkpt>
      <trkpt lat="40.379973" lon="-6.102866">
        <ele>515.638</ele>
        <time>2021-05-11T14:35:55Z</time>
      </trkpt>
      <trkpt lat="40.379146" lon="-6.102390">
        <ele>512.840</ele>
        <time>2021-05-11T14:36:27Z</time>
      </trkpt>
      <trkpt lat="40.378933" lon="-6.101822">
        <ele>512.621</ele>
        <time>2021-05-11T14:36:39Z</time>
      </trkpt>
      <trkpt lat="40.378018" lon="-6.102481">
        <ele>509.054</ele>
        <time>2021-05-11T14:37:07Z</time>
      </trkpt>
      <trkpt lat="40.377322" lon="-6.101608">
        <ele>517.285</ele>
        <time>2021-05-11T14:37:36Z</time>
      </trkpt>
      <trkpt lat="40.376674" lon="-6.102769">
        <ele>520.031</ele>
        <time>2021-05-11T14:38:03Z</time>
      </trkpt>
      <trkpt lat="40.376365" lon="-6.102943">
        <ele>521.261</ele>
        <time>2021-05-11T14:38:11Z</time>
      </trkpt>
      <trkpt lat="40.375828" lon="-6.102490">
        <ele>518.107</ele>
        <time>2021-05-11T14:38:27Z</time>
      </trkpt>
      <trkpt lat="40.375372" lon="-6.102476">
        <ele>517.808</ele>
        <time>2021-05-11T14:38:35Z</time>
      </trkpt>
      <trkpt lat="40.374887" lon="-6.101909">
        <ele>519.220</ele>
        <time>2021-05-11T14:38:52Z</time>
      </trkpt>
      <trkpt lat="40.374455" lon="-6.102178">
        <ele>515.365</ele>
        <time>2021-05-11T14:39:04Z</time>
      </trkpt>
      <trkpt lat="40.373932" lon="-6.101869">
        <ele>515.080</ele>
        <time>2021-05-11T14:39:15Z</time>
      </trkpt>
      <trkpt lat="40.372390" lon="-6.103379">
        <ele>516.272</ele>
        <time>2021-05-11T14:39:55Z</time>
      </trkpt>
      <trkpt lat="40.371607" lon="-6.104476">
        <ele>512.644</ele>
        <time>2021-05-11T14:40:21Z</time>
      </trkpt>
      <trkpt lat="40.371128" lon="-6.104662">
        <ele>514.225</ele>
        <time>2021-05-11T14:40:31Z</time>
      </trkpt>
      <trkpt lat="40.370685" lon="-6.104214">
        <ele>511.078</ele>
        <time>2021-05-11T14:40:47Z</time>
      </trkpt>
      <trkpt lat="40.370172" lon="-6.103072">
        <ele>514.369</ele>
        <time>2021-05-11T14:41:15Z</time>
      </trkpt>
      <trkpt lat="40.370465" lon="-6.100184">
        <ele>519.954</ele>
        <time>2021-05-11T14:46:07Z</time>
      </trkpt>
      <trkpt lat="40.369163" lon="-6.099283">
        <ele>524.156</ele>
        <time>2021-05-11T14:46:47Z</time>
      </trkpt>
      <trkpt lat="40.369041" lon="-6.098931">
        <ele>523.511</ele>
        <time>2021-05-11T14:47:03Z</time>
      </trkpt>
      <trkpt lat="40.369227" lon="-6.098242">
        <ele>518.108</ele>
        <time>2021-05-11T14:47:30Z</time>
      </trkpt>
      <trkpt lat="40.370105" lon="-6.096655">
        <ele>527.942</ele>
        <time>2021-05-11T14:48:21Z</time>
      </trkpt>
      <trkpt lat="40.370537" lon="-6.095414">
        <ele>529.747</ele>
        <time>2021-05-11T14:48:57Z</time>
      </trkpt>
      <trkpt lat="40.371197" lon="-6.094499">
        <ele>530.462</ele>
        <time>2021-05-11T14:49:30Z</time>
      </trkpt>
      <trkpt lat="40.372541" lon="-6.094324">
        <ele>536.454</ele>
        <time>2021-05-11T14:55:31Z</time>
      </trkpt>
      <trkpt lat="40.373405" lon="-6.093589">
        <ele>541.496</ele>
        <time>2021-05-11T14:56:07Z</time>
      </trkpt>
      <trkpt lat="40.373991" lon="-6.093458">
        <ele>544.157</ele>
        <time>2021-05-11T14:56:23Z</time>
      </trkpt>
      <trkpt lat="40.375569" lon="-6.095224">
        <ele>552.410</ele>
        <time>2021-05-11T14:58:37Z</time>
      </trkpt>
      <trkpt lat="40.377373" lon="-6.094968">
        <ele>567.781</ele>
        <time>2021-05-11T14:59:59Z</time>
      </trkpt>
      <trkpt lat="40.377865" lon="-6.094673">
        <ele>574.071</ele>
        <time>2021-05-11T15:00:22Z</time>
      </trkpt>
      <trkpt lat="40.378492" lon="-6.093216">
        <ele>581.341</ele>
        <time>2021-05-11T15:01:20Z</time>
      </trkpt>
      <trkpt lat="40.378957" lon="-6.092667">
        <ele>581.915</ele>
        <time>2021-05-11T15:01:43Z</time>
      </trkpt>
      <trkpt lat="40.379243" lon="-6.092782">
        <ele>581.108</ele>
        <time>2021-05-11T15:03:01Z</time>
      </trkpt>
      <trkpt lat="40.380686" lon="-6.094679">
        <ele>591.534</ele>
        <time>2021-05-11T15:04:14Z</time>
      </trkpt>
      <trkpt lat="40.381458" lon="-6.095303">
        <ele>592.189</ele>
        <time>2021-05-11T15:04:41Z</time>
      </trkpt>
      <trkpt lat="40.382236" lon="-6.095201">
        <ele>592.274</ele>
        <time>2021-05-11T15:05:05Z</time>
      </trkpt>
      <trkpt lat="40.383458" lon="-6.094070">
        <ele>596.976</ele>
        <time>2021-05-11T15:05:55Z</time>
      </trkpt>
      <trkpt lat="40.383780" lon="-6.094061">
        <ele>596.778</ele>
        <time>2021-05-11T15:07:52Z</time>
      </trkpt>
      <trkpt lat="40.385441" lon="-6.096834">
        <ele>605.749</ele>
        <time>2021-05-11T15:09:15Z</time>
      </trkpt>
      <trkpt lat="40.386527" lon="-6.096960">
        <ele>602.372</ele>
        <time>2021-05-11T15:09:56Z</time>
      </trkpt>
      <trkpt lat="40.388369" lon="-6.097766">
        <ele>588.923</ele>
        <time>2021-05-11T15:10:26Z</time>
      </trkpt>
      <trkpt lat="40.389386" lon="-6.096904">
        <ele>585.954</ele>
        <time>2021-05-11T15:10:49Z</time>
      </trkpt>
      <trkpt lat="40.390149" lon="-6.096625">
        <ele>580.756</ele>
        <time>2021-05-11T15:11:01Z</time>
      </trkpt>
      <trkpt lat="40.390882" lon="-6.096675">
        <ele>577.511</ele>
        <time>2021-05-11T15:11:21Z</time>
      </trkpt>
      <trkpt lat="40.390878" lon="-6.096446">
        <ele>574.208</ele>
        <time>2021-05-11T15:11:28Z</time>
      </trkpt>
      <trkpt lat="40.388671" lon="-6.095321">
        <ele>569.022</ele>
        <time>2021-05-11T15:12:06Z</time>
      </trkpt>
      <trkpt lat="40.387930" lon="-6.094297">
        <ele>563.187</ele>
        <time>2021-05-11T15:12:20Z</time>
      </trkpt>
      <trkpt lat="40.387972" lon="-6.092347">
        <ele>557.322</ele>
        <time>2021-05-11T15:12:45Z</time>
      </trkpt>
      <trkpt lat="40.388126" lon="-6.092014">
        <ele>555.974</ele>
        <time>2021-05-11T15:12:49Z</time>
      </trkpt>
      <trkpt lat="40.388579" lon="-6.091877">
        <ele>551.686</ele>
        <time>2021-05-11T15:12:57Z</time>
      </trkpt>
      <trkpt lat="40.390230" lon="-6.092182">
        <ele>541.187</ele>
        <time>2021-05-11T15:13:29Z</time>
      </trkpt>
      <trkpt lat="40.391060" lon="-6.092034">
        <ele>541.480</ele>
        <time>2021-05-11T15:13:44Z</time>
      </trkpt>
      <trkpt lat="40.390285" lon="-6.090531">
        <ele>535.341</ele>
        <time>2021-05-11T15:14:16Z</time>
      </trkpt>
      <trkpt lat="40.391030" lon="-6.089864">
        <ele>530.998</ele>
        <time>2021-05-11T15:14:38Z</time>
      </trkpt>
      <trkpt lat="40.390992" lon="-6.089379">
        <ele>525.415</ele>
        <time>2021-05-11T15:14:49Z</time>
      </trkpt>
      <trkpt lat="40.390497" lon="-6.088798">
        <ele>532.326</ele>
        <time>2021-05-11T15:15:04Z</time>
      </trkpt>
      <trkpt lat="40.389648" lon="-6.088371">
        <ele>537.608</ele>
        <time>2021-05-11T15:15:22Z</time>
      </trkpt>
      <trkpt lat="40.389012" lon="-6.087749">
        <ele>528.246</ele>
        <time>2021-05-11T15:15:43Z</time>
      </trkpt>
      <trkpt lat="40.389315" lon="-6.087445">
        <ele>525.331</ele>
        <time>2021-05-11T15:17:11Z</time>
      </trkpt>
      <trkpt lat="40.390084" lon="-6.087299">
        <ele>526.586</ele>
        <time>2021-05-11T15:20:29Z</time>
      </trkpt>
      <trkpt lat="40.391048" lon="-6.086738">
        <ele>523.078</ele>
        <time>2021-05-11T15:21:38Z</time>
      </trkpt>
      <trkpt lat="40.390914" lon="-6.086658">
        <ele>520.720</ele>
        <time>2021-05-11T15:22:36Z</time>
      </trkpt>
      <trkpt lat="40.390932" lon="-6.086214">
        <ele>514.211</ele>
        <time>2021-05-11T15:27:10Z</time>
      </trkpt>
      <trkpt lat="40.390867" lon="-6.086452">
        <ele>512.374</ele>
        <time>2021-05-11T16:01:16Z</time>
      </trkpt>
      <trkpt lat="40.391564" lon="-6.086753">
        <ele>521.695</ele>
        <time>2021-05-11T16:06:12Z</time>
      </trkpt>
      <trkpt lat="40.393012" lon="-6.085869">
        <ele>532.862</ele>
        <time>2021-05-11T16:08:26Z</time>
      </trkpt>
      <trkpt lat="40.393920" lon="-6.085698">
        <ele>533.383</ele>
        <time>2021-05-11T16:09:20Z</time>
      </trkpt>
      <trkpt lat="40.395721" lon="-6.086951">
        <ele>525.111</ele>
        <time>2021-05-11T16:10:03Z</time>
      </trkpt>
      <trkpt lat="40.396805" lon="-6.086232">
        <ele>517.908</ele>
        <time>2021-05-11T16:10:28Z</time>
      </trkpt>
      <trkpt lat="40.396932" lon="-6.085524">
        <ele>520.073</ele>
        <time>2021-05-11T16:10:39Z</time>
      </trkpt>
      <trkpt lat="40.397535" lon="-6.084552">
        <ele>513.158</ele>
        <time>2021-05-11T16:10:55Z</time>
      </trkpt>
      <trkpt lat="40.397719" lon="-6.083024">
        <ele>502.743</ele>
        <time>2021-05-11T16:11:15Z</time>
      </trkpt>
      <trkpt lat="40.396732" lon="-6.081775">
        <ele>499.015</ele>
        <time>2021-05-11T16:11:39Z</time>
      </trkpt>
      <trkpt lat="40.396322" lon="-6.080463">
        <ele>496.117</ele>
        <time>2021-05-11T16:11:57Z</time>
      </trkpt>
      <trkpt lat="40.397469" lon="-6.077127">
        <ele>474.678</ele>
        <time>2021-05-11T16:12:50Z</time>
      </trkpt>
      <trkpt lat="40.397671" lon="-6.075988">
        <ele>471.191</ele>
        <time>2021-05-11T16:13:07Z</time>
      </trkpt>
      <trkpt lat="40.397955" lon="-6.075457">
        <ele>466.092</ele>
        <time>2021-05-11T16:13:16Z</time>
      </trkpt>
      <trkpt lat="40.398451" lon="-6.075375">
        <ele>462.226</ele>
        <time>2021-05-11T16:13:23Z</time>
      </trkpt>
      <trkpt lat="40.399839" lon="-6.075749">
        <ele>446.547</ele>
        <time>2021-05-11T16:13:42Z</time>
      </trkpt>
      <trkpt lat="40.400066" lon="-6.076230">
        <ele>436.711</ele>
        <time>2021-05-11T16:14:19Z</time>
      </trkpt>
      <trkpt lat="40.399561" lon="-6.076558">
        <ele>429.808</ele>
        <time>2021-05-11T16:14:31Z</time>
      </trkpt>
      <trkpt lat="40.399494" lon="-6.077098">
        <ele>428.449</ele>
        <time>2021-05-11T16:14:39Z</time>
      </trkpt>
      <trkpt lat="40.400664" lon="-6.078390">
        <ele>421.324</ele>
        <time>2021-05-11T16:15:04Z</time>
      </trkpt>
      <trkpt lat="40.401061" lon="-6.080225">
        <ele>413.889</ele>
        <time>2021-05-11T16:15:24Z</time>
      </trkpt>
      <trkpt lat="40.401921" lon="-6.081924">
        <ele>395.711</ele>
        <time>2021-05-11T16:15:48Z</time>
      </trkpt>
      <trkpt lat="40.402204" lon="-6.082892">
        <ele>383.583</ele>
        <time>2021-05-11T16:16:05Z</time>
      </trkpt>
      <trkpt lat="40.403149" lon="-6.083908">
        <ele>383.724</ele>
        <time>2021-05-11T16:17:06Z</time>
      </trkpt>
      <trkpt lat="40.404387" lon="-6.084407">
        <ele>386.827</ele>
        <time>2021-05-11T16:19:39Z</time>
      </trkpt>
      <trkpt lat="40.404996" lon="-6.085033">
        <ele>388.548</ele>
        <time>2021-05-11T16:20:20Z</time>
      </trkpt>
      <trkpt lat="40.403610" lon="-6.083972">
        <ele>380.021</ele>
        <time>2021-05-11T16:22:03Z</time>
      </trkpt>
      <trkpt lat="40.404353" lon="-6.084514">
        <ele>386.441</ele>
        <time>2021-05-11T16:29:34Z</time>
      </trkpt>
      <trkpt lat="40.404674" lon="-6.084375">
        <ele>479.905</ele>
        <time>2021-05-11T17:13:47Z</time>
      </trkpt>
      <trkpt lat="40.403256" lon="-6.084054">
        <ele>387.208</ele>
        <time>2021-05-11T17:14:44Z</time>
      </trkpt>
      <trkpt lat="40.402748" lon="-6.085579">
        <ele>389.959</ele>
        <time>2021-05-11T17:27:36Z</time>
      </trkpt>
      <trkpt lat="40.402215" lon="-6.085143">
        <ele>390.114</ele>
        <time>2021-05-11T17:28:07Z</time>
      </trkpt>
      <trkpt lat="40.401885" lon="-6.084261">
        <ele>392.459</ele>
        <time>2021-05-11T17:28:48Z</time>
      </trkpt>
      <trkpt lat="40.402052" lon="-6.084818">
        <ele>398.441</ele>
        <time>2021-05-11T17:45:06Z</time>
      </trkpt>
      <trkpt lat="40.403240" lon="-6.083957">
        <ele>450.385</ele>
        <time>2021-05-12T11:01:18Z</time>
      </trkpt>
      <trkpt lat="40.403647" lon="-6.084079">
        <ele>450.589</ele>
        <time>2021-05-12T11:01:49Z</time>
      </trkpt>
      <trkpt lat="40.403287" lon="-6.083969">
        <ele>450.417</ele>
        <time>2021-05-12T11:02:05Z</time>
      </trkpt>
      <trkpt lat="40.403231" lon="-6.084224">
        <ele>449.408</ele>
        <time>2021-05-12T11:02:13Z</time>
      </trkpt>
      <trkpt lat="40.403804" lon="-6.085428">
        <ele>456.295</ele>
        <time>2021-05-12T11:03:00Z</time>
      </trkpt>
      <trkpt lat="40.404371" lon="-6.085924">
        <ele>452.760</ele>
        <time>2021-05-12T11:04:55Z</time>
      </trkpt>
      <trkpt lat="40.404914" lon="-6.085592">
        <ele>468.236</ele>
        <time>2021-05-12T11:08:56Z</time>
      </trkpt>
      <trkpt lat="40.405299" lon="-6.085743">
        <ele>473.763</ele>
        <time>2021-05-12T11:09:35Z</time>
      </trkpt>
      <trkpt lat="40.406179" lon="-6.085586">
        <ele>470.734</ele>
        <time>2021-05-12T11:10:17Z</time>
      </trkpt>
      <trkpt lat="40.406733" lon="-6.085892">
        <ele>465.574</ele>
        <time>2021-05-12T11:10:39Z</time>
      </trkpt>
      <trkpt lat="40.407570" lon="-6.087392">
        <ele>460.141</ele>
        <time>2021-05-12T11:11:25Z</time>
      </trkpt>
      <trkpt lat="40.407709" lon="-6.087964">
        <ele>456.666</ele>
        <time>2021-05-12T11:11:36Z</time>
      </trkpt>
      <trkpt lat="40.407638" lon="-6.089569">
        <ele>453.925</ele>
        <time>2021-05-12T11:12:05Z</time>
      </trkpt>
      <trkpt lat="40.406877" lon="-6.091022">
        <ele>457.526</ele>
        <time>2021-05-12T11:12:35Z</time>
      </trkpt>
      <trkpt lat="40.407042" lon="-6.092480">
        <ele>450.008</ele>
        <time>2021-05-12T11:12:58Z</time>
      </trkpt>
      <trkpt lat="40.407965" lon="-6.093625">
        <ele>459.008</ele>
        <time>2021-05-12T11:14:58Z</time>
      </trkpt>
      <trkpt lat="40.409236" lon="-6.094163">
        <ele>462.339</ele>
        <time>2021-05-12T11:15:36Z</time>
      </trkpt>
      <trkpt lat="40.411072" lon="-6.095897">
        <ele>467.024</ele>
        <time>2021-05-12T11:16:40Z</time>
      </trkpt>
      <trkpt lat="40.411519" lon="-6.096971">
        <ele>469.010</ele>
        <time>2021-05-12T11:17:06Z</time>
      </trkpt>
      <trkpt lat="40.411761" lon="-6.098431">
        <ele>467.787</ele>
        <time>2021-05-12T11:17:37Z</time>
      </trkpt>
      <trkpt lat="40.411934" lon="-6.098416">
        <ele>467.478</ele>
        <time>2021-05-12T11:17:41Z</time>
      </trkpt>
      <trkpt lat="40.412580" lon="-6.096673">
        <ele>460.888</ele>
        <time>2021-05-12T11:18:03Z</time>
      </trkpt>
      <trkpt lat="40.413476" lon="-6.096068">
        <ele>476.625</ele>
        <time>2021-05-12T11:19:07Z</time>
      </trkpt>
      <trkpt lat="40.413839" lon="-6.095430">
        <ele>484.840</ele>
        <time>2021-05-12T11:19:46Z</time>
      </trkpt>
      <trkpt lat="40.414101" lon="-6.095571">
        <ele>486.261</ele>
        <time>2021-05-12T11:20:06Z</time>
      </trkpt>
      <trkpt lat="40.414216" lon="-6.095273">
        <ele>488.821</ele>
        <time>2021-05-12T11:20:24Z</time>
      </trkpt>
      <trkpt lat="40.413970" lon="-6.094221">
        <ele>496.513</ele>
        <time>2021-05-12T11:21:20Z</time>
      </trkpt>
      <trkpt lat="40.413071" lon="-6.093152">
        <ele>491.108</ele>
        <time>2021-05-12T11:22:32Z</time>
      </trkpt>
      <trkpt lat="40.412366" lon="-6.092759">
        <ele>515.263</ele>
        <time>2021-05-12T11:23:22Z</time>
      </trkpt>
      <trkpt lat="40.412352" lon="-6.092316">
        <ele>523.568</ele>
        <time>2021-05-12T11:23:44Z</time>
      </trkpt>
      <trkpt lat="40.413481" lon="-6.091400">
        <ele>532.944</ele>
        <time>2021-05-12T11:24:57Z</time>
      </trkpt>
      <trkpt lat="40.414424" lon="-6.091102">
        <ele>539.391</ele>
        <time>2021-05-12T11:25:47Z</time>
      </trkpt>
      <trkpt lat="40.414667" lon="-6.090789">
        <ele>540.732</ele>
        <time>2021-05-12T11:26:05Z</time>
      </trkpt>
      <trkpt lat="40.415511" lon="-6.090476">
        <ele>548.082</ele>
        <time>2021-05-12T11:26:56Z</time>
      </trkpt>
      <trkpt lat="40.417484" lon="-6.091211">
        <ele>562.079</ele>
        <time>2021-05-12T11:28:50Z</time>
      </trkpt>
      <trkpt lat="40.417500" lon="-6.090959">
        <ele>563.864</ele>
        <time>2021-05-12T11:29:01Z</time>
      </trkpt>
      <trkpt lat="40.416949" lon="-6.090213">
        <ele>567.618</ele>
        <time>2021-05-12T11:29:45Z</time>
      </trkpt>
      <trkpt lat="40.416883" lon="-6.089465">
        <ele>572.198</ele>
        <time>2021-05-12T11:30:15Z</time>
      </trkpt>
      <trkpt lat="40.417283" lon="-6.088888">
        <ele>573.617</ele>
        <time>2021-05-12T11:30:48Z</time>
      </trkpt>
      <trkpt lat="40.417525" lon="-6.087271">
        <ele>577.908</ele>
        <time>2021-05-12T11:32:15Z</time>
      </trkpt>
      <trkpt lat="40.418327" lon="-6.087016">
        <ele>585.398</ele>
        <time>2021-05-12T11:34:08Z</time>
      </trkpt>
      <trkpt lat="40.418653" lon="-6.085078">
        <ele>589.163</ele>
        <time>2021-05-12T11:35:12Z</time>
      </trkpt>
      <trkpt lat="40.419027" lon="-6.084270">
        <ele>590.719</ele>
        <time>2021-05-12T11:35:49Z</time>
      </trkpt>
      <trkpt lat="40.419377" lon="-6.084675">
        <ele>594.446</ele>
        <time>2021-05-12T11:37:14Z</time>
      </trkpt>
      <trkpt lat="40.419976" lon="-6.084849">
        <ele>592.087</ele>
        <time>2021-05-12T11:37:34Z</time>
      </trkpt>
      <trkpt lat="40.420807" lon="-6.085412">
        <ele>595.717</ele>
        <time>2021-05-12T11:40:44Z</time>
      </trkpt>
      <trkpt lat="40.421289" lon="-6.085479">
        <ele>596.954</ele>
        <time>2021-05-12T11:41:02Z</time>
      </trkpt>
      <trkpt lat="40.421784" lon="-6.086218">
        <ele>600.379</ele>
        <time>2021-05-12T11:41:24Z</time>
      </trkpt>
      <trkpt lat="40.422389" lon="-6.086641">
        <ele>601.497</ele>
        <time>2021-05-12T11:41:44Z</time>
      </trkpt>
      <trkpt lat="40.424736" lon="-6.087490">
        <ele>612.723</ele>
        <time>2021-05-12T11:42:58Z</time>
      </trkpt>
      <trkpt lat="40.426789" lon="-6.089006">
        <ele>618.225</ele>
        <time>2021-05-12T11:44:08Z</time>
      </trkpt>
      <trkpt lat="40.427609" lon="-6.088981">
        <ele>614.508</ele>
        <time>2021-05-12T11:44:27Z</time>
      </trkpt>
      <trkpt lat="40.429153" lon="-6.090386">
        <ele>624.526</ele>
        <time>2021-05-12T11:45:21Z</time>
      </trkpt>
      <trkpt lat="40.429576" lon="-6.091215">
        <ele>616.321</ele>
        <time>2021-05-12T11:46:49Z</time>
      </trkpt>
      <trkpt lat="40.430245" lon="-6.090642">
        <ele>617.567</ele>
        <time>2021-05-12T11:47:08Z</time>
      </trkpt>
      <trkpt lat="40.430542" lon="-6.090610">
        <ele>619.114</ele>
        <time>2021-05-12T11:47:16Z</time>
      </trkpt>
      <trkpt lat="40.432635" lon="-6.091978">
        <ele>626.495</ele>
        <time>2021-05-12T11:48:26Z</time>
      </trkpt>
      <trkpt lat="40.433572" lon="-6.093679">
        <ele>623.355</ele>
        <time>2021-05-12T11:49:22Z</time>
      </trkpt>
      <trkpt lat="40.433877" lon="-6.093809">
        <ele>625.632</ele>
        <time>2021-05-12T11:49:32Z</time>
      </trkpt>
      <trkpt lat="40.434038" lon="-6.093533">
        <ele>627.087</ele>
        <time>2021-05-12T11:49:43Z</time>
      </trkpt>
      <trkpt lat="40.434263" lon="-6.091801">
        <ele>638.617</ele>
        <time>2021-05-12T11:50:36Z</time>
      </trkpt>
      <trkpt lat="40.434795" lon="-6.091002">
        <ele>647.187</ele>
        <time>2021-05-12T11:51:08Z</time>
      </trkpt>
      <trkpt lat="40.434843" lon="-6.090338">
        <ele>649.115</ele>
        <time>2021-05-12T11:51:25Z</time>
      </trkpt>
      <trkpt lat="40.435256" lon="-6.089892">
        <ele>654.308</ele>
        <time>2021-05-12T11:51:48Z</time>
      </trkpt>
      <trkpt lat="40.435174" lon="-6.088967">
        <ele>654.088</ele>
        <time>2021-05-12T11:52:10Z</time>
      </trkpt>
      <trkpt lat="40.435323" lon="-6.088351">
        <ele>652.663</ele>
        <time>2021-05-12T11:52:30Z</time>
      </trkpt>
      <trkpt lat="40.435942" lon="-6.087999">
        <ele>660.459</ele>
        <time>2021-05-12T11:52:56Z</time>
      </trkpt>
      <trkpt lat="40.436746" lon="-6.088044">
        <ele>662.716</ele>
        <time>2021-05-12T11:53:25Z</time>
      </trkpt>
      <trkpt lat="40.437276" lon="-6.087752">
        <ele>665.247</ele>
        <time>2021-05-12T11:53:44Z</time>
      </trkpt>
      <trkpt lat="40.437540" lon="-6.087304">
        <ele>662.517</ele>
        <time>2021-05-12T11:53:58Z</time>
      </trkpt>
      <trkpt lat="40.438222" lon="-6.087101">
        <ele>664.844</ele>
        <time>2021-05-12T11:54:22Z</time>
      </trkpt>
      <trkpt lat="40.438155" lon="-6.086342">
        <ele>664.529</ele>
        <time>2021-05-12T11:54:48Z</time>
      </trkpt>
      <trkpt lat="40.438407" lon="-6.085742">
        <ele>665.746</ele>
        <time>2021-05-12T11:55:04Z</time>
      </trkpt>
      <trkpt lat="40.438392" lon="-6.085046">
        <ele>668.388</ele>
        <time>2021-05-12T11:55:20Z</time>
      </trkpt>
      <trkpt lat="40.438954" lon="-6.084251">
        <ele>674.116</ele>
        <time>2021-05-12T11:55:46Z</time>
      </trkpt>
      <trkpt lat="40.439497" lon="-6.084093">
        <ele>680.308</ele>
        <time>2021-05-12T11:56:07Z</time>
      </trkpt>
      <trkpt lat="40.440015" lon="-6.084433">
        <ele>684.151</ele>
        <time>2021-05-12T11:56:27Z</time>
      </trkpt>
      <trkpt lat="40.440102" lon="-6.085223">
        <ele>678.496</ele>
        <time>2021-05-12T11:56:46Z</time>
      </trkpt>
      <trkpt lat="40.440333" lon="-6.085117">
        <ele>677.492</ele>
        <time>2021-05-12T11:57:37Z</time>
      </trkpt>
      <trkpt lat="40.440576" lon="-6.084494">
        <ele>671.579</ele>
        <time>2021-05-12T11:57:53Z</time>
      </trkpt>
      <trkpt lat="40.440688" lon="-6.083472">
        <ele>671.290</ele>
        <time>2021-05-12T11:58:17Z</time>
      </trkpt>
      <trkpt lat="40.440354" lon="-6.083050">
        <ele>670.750</ele>
        <time>2021-05-12T11:58:34Z</time>
      </trkpt>
      <trkpt lat="40.440299" lon="-6.082491">
        <ele>678.347</ele>
        <time>2021-05-12T11:58:50Z</time>
      </trkpt>
      <trkpt lat="40.439827" lon="-6.082062">
        <ele>682.612</ele>
        <time>2021-05-12T11:59:14Z</time>
      </trkpt>
      <trkpt lat="40.439592" lon="-6.080646">
        <ele>690.631</ele>
        <time>2021-05-12T11:59:56Z</time>
      </trkpt>
      <trkpt lat="40.439702" lon="-6.080246">
        <ele>688.661</ele>
        <time>2021-05-12T12:00:08Z</time>
      </trkpt>
      <trkpt lat="40.440749" lon="-6.079497">
        <ele>687.807</ele>
        <time>2021-05-12T12:00:50Z</time>
      </trkpt>
      <trkpt lat="40.440578" lon="-6.078141">
        <ele>694.108</ele>
        <time>2021-05-12T12:01:16Z</time>
      </trkpt>
      <trkpt lat="40.441037" lon="-6.077776">
        <ele>695.950</ele>
        <time>2021-05-12T12:01:30Z</time>
      </trkpt>
      <trkpt lat="40.441515" lon="-6.077784">
        <ele>697.245</ele>
        <time>2021-05-12T12:01:42Z</time>
      </trkpt>
      <trkpt lat="40.441767" lon="-6.077312">
        <ele>695.641</ele>
        <time>2021-05-12T12:01:54Z</time>
      </trkpt>
      <trkpt lat="40.442201" lon="-6.077147">
        <ele>695.618</ele>
        <time>2021-05-12T12:02:08Z</time>
      </trkpt>
      <trkpt lat="40.443121" lon="-6.076124">
        <ele>697.099</ele>
        <time>2021-05-12T12:04:22Z</time>
      </trkpt>
      <trkpt lat="40.443912" lon="-6.076024">
        <ele>697.669</ele>
        <time>2021-05-12T12:05:52Z</time>
      </trkpt>
      <trkpt lat="40.444207" lon="-6.075401">
        <ele>700.566</ele>
        <time>2021-05-12T12:06:12Z</time>
      </trkpt>
      <trkpt lat="40.444604" lon="-6.075357">
        <ele>705.121</ele>
        <time>2021-05-12T12:06:24Z</time>
      </trkpt>
      <trkpt lat="40.444571" lon="-6.074708">
        <ele>705.934</ele>
        <time>2021-05-12T12:06:40Z</time>
      </trkpt>
      <trkpt lat="40.444987" lon="-6.074417">
        <ele>714.355</ele>
        <time>2021-05-12T12:07:03Z</time>
      </trkpt>
      <trkpt lat="40.445564" lon="-6.074379">
        <ele>707.110</ele>
        <time>2021-05-12T12:11:42Z</time>
      </trkpt>
      <trkpt lat="40.445396" lon="-6.074312">
        <ele>707.808</ele>
        <time>2021-05-12T12:14:51Z</time>
      </trkpt>
      <trkpt lat="40.445760" lon="-6.073941">
        <ele>715.840</ele>
        <time>2021-05-12T12:18:35Z</time>
      </trkpt>
      <trkpt lat="40.446013" lon="-6.073178">
        <ele>715.615</ele>
        <time>2021-05-12T12:19:27Z</time>
      </trkpt>
      <trkpt lat="40.446498" lon="-6.072717">
        <ele>711.481</ele>
        <time>2021-05-12T12:20:01Z</time>
      </trkpt>
      <trkpt lat="40.447309" lon="-6.072692">
        <ele>706.448</ele>
        <time>2021-05-12T12:21:03Z</time>
      </trkpt>
      <trkpt lat="40.447959" lon="-6.073165">
        <ele>710.699</ele>
        <time>2021-05-12T12:21:41Z</time>
      </trkpt>
      <trkpt lat="40.448867" lon="-6.072715">
        <ele>715.489</ele>
        <time>2021-05-12T12:22:27Z</time>
      </trkpt>
      <trkpt lat="40.449353" lon="-6.072195">
        <ele>715.386</ele>
        <time>2021-05-12T12:22:54Z</time>
      </trkpt>
      <trkpt lat="40.450042" lon="-6.071847">
        <ele>718.141</ele>
        <time>2021-05-12T12:23:26Z</time>
      </trkpt>
      <trkpt lat="40.450374" lon="-6.071106">
        <ele>720.459</ele>
        <time>2021-05-12T12:24:58Z</time>
      </trkpt>
      <trkpt lat="40.451175" lon="-6.070392">
        <ele>722.003</ele>
        <time>2021-05-12T12:25:33Z</time>
      </trkpt>
      <trkpt lat="40.452243" lon="-6.067922">
        <ele>735.923</ele>
        <time>2021-05-12T12:26:43Z</time>
      </trkpt>
      <trkpt lat="40.452347" lon="-6.067318">
        <ele>734.708</ele>
        <time>2021-05-12T12:26:57Z</time>
      </trkpt>
      <trkpt lat="40.452137" lon="-6.065600">
        <ele>737.842</ele>
        <time>2021-05-12T12:28:01Z</time>
      </trkpt>
      <trkpt lat="40.452642" lon="-6.064759">
        <ele>737.717</ele>
        <time>2021-05-12T12:28:40Z</time>
      </trkpt>
      <trkpt lat="40.452662" lon="-6.065514">
        <ele>733.423</ele>
        <time>2021-05-12T12:29:42Z</time>
      </trkpt>
      <trkpt lat="40.453179" lon="-6.065937">
        <ele>726.910</ele>
        <time>2021-05-12T12:29:56Z</time>
      </trkpt>
      <trkpt lat="40.453822" lon="-6.065542">
        <ele>719.381</ele>
        <time>2021-05-12T12:30:26Z</time>
      </trkpt>
      <trkpt lat="40.453987" lon="-6.064863">
        <ele>721.081</ele>
        <time>2021-05-12T12:31:03Z</time>
      </trkpt>
      <trkpt lat="40.454935" lon="-6.063957">
        <ele>716.048</ele>
        <time>2021-05-12T12:31:37Z</time>
      </trkpt>
      <trkpt lat="40.455395" lon="-6.063842">
        <ele>714.483</ele>
        <time>2021-05-12T12:32:01Z</time>
      </trkpt>
      <trkpt lat="40.456013" lon="-6.064595">
        <ele>716.099</ele>
        <time>2021-05-12T12:33:13Z</time>
      </trkpt>
      <trkpt lat="40.456615" lon="-6.064537">
        <ele>727.107</ele>
        <time>2021-05-12T12:35:56Z</time>
      </trkpt>
      <trkpt lat="40.457485" lon="-6.064132">
        <ele>726.527</ele>
        <time>2021-05-12T12:38:02Z</time>
      </trkpt>
      <trkpt lat="40.457846" lon="-6.063029">
        <ele>724.208</ele>
        <time>2021-05-12T12:38:16Z</time>
      </trkpt>
      <trkpt lat="40.458688" lon="-6.062162">
        <ele>716.656</ele>
        <time>2021-05-12T12:38:37Z</time>
      </trkpt>
      <trkpt lat="40.459723" lon="-6.061975">
        <ele>711.011</ele>
        <time>2021-05-12T12:38:58Z</time>
      </trkpt>
      <trkpt lat="40.460664" lon="-6.062138">
        <ele>707.757</ele>
        <time>2021-05-12T12:39:16Z</time>
      </trkpt>
      <trkpt lat="40.461053" lon="-6.062003">
        <ele>709.544</ele>
        <time>2021-05-12T12:39:28Z</time>
      </trkpt>
      <trkpt lat="40.461440" lon="-6.062365">
        <ele>712.355</ele>
        <time>2021-05-12T12:39:48Z</time>
      </trkpt>
      <trkpt lat="40.462318" lon="-6.062628">
        <ele>725.985</ele>
        <time>2021-05-12T12:40:44Z</time>
      </trkpt>
      <trkpt lat="40.462542" lon="-6.062992">
        <ele>726.482</ele>
        <time>2021-05-12T12:41:00Z</time>
      </trkpt>
      <trkpt lat="40.463413" lon="-6.062850">
        <ele>734.147</ele>
        <time>2021-05-12T12:41:31Z</time>
      </trkpt>
      <trkpt lat="40.463511" lon="-6.062486">
        <ele>735.948</ele>
        <time>2021-05-12T12:41:39Z</time>
      </trkpt>
      <trkpt lat="40.463791" lon="-6.062279">
        <ele>733.261</ele>
        <time>2021-05-12T12:41:47Z</time>
      </trkpt>
      <trkpt lat="40.463897" lon="-6.061741">
        <ele>732.117</ele>
        <time>2021-05-12T12:41:55Z</time>
      </trkpt>
      <trkpt lat="40.464487" lon="-6.061397">
        <ele>724.508</ele>
        <time>2021-05-12T12:42:10Z</time>
      </trkpt>
      <trkpt lat="40.464470" lon="-6.060028">
        <ele>713.381</ele>
        <time>2021-05-12T12:42:27Z</time>
      </trkpt>
      <trkpt lat="40.463843" lon="-6.057573">
        <ele>683.936</ele>
        <time>2021-05-12T12:42:52Z</time>
      </trkpt>
      <trkpt lat="40.464135" lon="-6.056838">
        <ele>679.312</ele>
        <time>2021-05-12T12:42:59Z</time>
      </trkpt>
      <trkpt lat="40.464757" lon="-6.052520">
        <ele>662.289</ele>
        <time>2021-05-12T12:43:36Z</time>
      </trkpt>
      <trkpt lat="40.465131" lon="-6.051223">
        <ele>654.010</ele>
        <time>2021-05-12T12:43:50Z</time>
      </trkpt>
      <trkpt lat="40.465217" lon="-6.049543">
        <ele>653.140</ele>
        <time>2021-05-12T12:44:11Z</time>
      </trkpt>
      <trkpt lat="40.465585" lon="-6.048446">
        <ele>661.567</ele>
        <time>2021-05-12T12:44:37Z</time>
      </trkpt>
      <trkpt lat="40.465846" lon="-6.045039">
        <ele>652.312</ele>
        <time>2021-05-12T12:45:11Z</time>
      </trkpt>
      <trkpt lat="40.466581" lon="-6.044333">
        <ele>651.731</ele>
        <time>2021-05-12T12:45:37Z</time>
      </trkpt>
      <trkpt lat="40.466835" lon="-6.043863">
        <ele>654.661</ele>
        <time>2021-05-12T12:45:53Z</time>
      </trkpt>
      <trkpt lat="40.467371" lon="-6.041769">
        <ele>657.407</ele>
        <time>2021-05-12T12:47:56Z</time>
      </trkpt>
      <trkpt lat="40.467008" lon="-6.041011">
        <ele>659.908</ele>
        <time>2021-05-12T12:48:25Z</time>
      </trkpt>
      <trkpt lat="40.465609" lon="-6.040517">
        <ele>670.220</ele>
        <time>2021-05-12T12:54:11Z</time>
      </trkpt>
      <trkpt lat="40.464974" lon="-6.040791">
        <ele>662.185</ele>
        <time>2021-05-12T13:00:22Z</time>
      </trkpt>
      <trkpt lat="40.464915" lon="-6.040969">
        <ele>664.211</ele>
        <time>2021-05-12T13:01:13Z</time>
      </trkpt>
      <trkpt lat="40.465604" lon="-6.040564">
        <ele>669.828</ele>
        <time>2021-05-12T13:02:32Z</time>
      </trkpt>
      <trkpt lat="40.465870" lon="-6.039960">
        <ele>671.749</ele>
        <time>2021-05-12T13:06:02Z</time>
      </trkpt>
      <trkpt lat="40.466473" lon="-6.039586">
        <ele>678.729</ele>
        <time>2021-05-12T13:06:30Z</time>
      </trkpt>
      <trkpt lat="40.467722" lon="-6.037116">
        <ele>686.426</ele>
        <time>2021-05-12T13:08:13Z</time>
      </trkpt>
      <trkpt lat="40.468338" lon="-6.036718">
        <ele>679.941</ele>
        <time>2021-05-12T13:08:47Z</time>
      </trkpt>
      <trkpt lat="40.469621" lon="-6.036526">
        <ele>680.684</ele>
        <time>2021-05-12T13:09:27Z</time>
      </trkpt>
      <trkpt lat="40.472348" lon="-6.038303">
        <ele>682.907</ele>
        <time>2021-05-12T13:10:50Z</time>
      </trkpt>
      <trkpt lat="40.475056" lon="-6.039132">
        <ele>690.817</ele>
        <time>2021-05-12T13:12:19Z</time>
      </trkpt>
      <trkpt lat="40.475665" lon="-6.039109">
        <ele>693.108</ele>
        <time>2021-05-12T13:12:37Z</time>
      </trkpt>
      <trkpt lat="40.476646" lon="-6.038083">
        <ele>693.225</ele>
        <time>2021-05-12T13:13:23Z</time>
      </trkpt>
      <trkpt lat="40.478008" lon="-6.037336">
        <ele>699.690</ele>
        <time>2021-05-12T13:14:23Z</time>
      </trkpt>
      <trkpt lat="40.479026" lon="-6.035913">
        <ele>713.796</ele>
        <time>2021-05-12T13:15:13Z</time>
      </trkpt>
      <trkpt lat="40.480052" lon="-6.035297">
        <ele>715.653</ele>
        <time>2021-05-12T13:15:53Z</time>
      </trkpt>
      <trkpt lat="40.480410" lon="-6.034470">
        <ele>715.854</ele>
        <time>2021-05-12T13:16:15Z</time>
      </trkpt>
      <trkpt lat="40.480922" lon="-6.034517">
        <ele>719.644</ele>
        <time>2021-05-12T13:16:36Z</time>
      </trkpt>
      <trkpt lat="40.481541" lon="-6.033971">
        <ele>714.581</ele>
        <time>2021-05-12T13:16:56Z</time>
      </trkpt>
      <trkpt lat="40.483108" lon="-6.033889">
        <ele>708.896</ele>
        <time>2021-05-12T13:17:35Z</time>
      </trkpt>
      <trkpt lat="40.484104" lon="-6.034590">
        <ele>711.842</ele>
        <time>2021-05-12T13:18:46Z</time>
      </trkpt>
      <trkpt lat="40.484760" lon="-6.035724">
        <ele>716.122</ele>
        <time>2021-05-12T13:19:26Z</time>
      </trkpt>
      <trkpt lat="40.485056" lon="-6.035858">
        <ele>716.714</ele>
        <time>2021-05-12T13:19:34Z</time>
      </trkpt>
      <trkpt lat="40.484519" lon="-6.035839">
        <ele>716.108</ele>
        <time>2021-05-12T13:22:34Z</time>
      </trkpt>
      <trkpt lat="40.484281" lon="-6.036210">
        <ele>728.911</ele>
        <time>2021-05-12T13:27:58Z</time>
      </trkpt>
      <trkpt lat="40.484837" lon="-6.037751">
        <ele>743.456</ele>
        <time>2021-05-12T13:29:24Z</time>
      </trkpt>
      <trkpt lat="40.485312" lon="-6.038530">
        <ele>748.182</ele>
        <time>2021-05-12T13:30:00Z</time>
      </trkpt>
      <trkpt lat="40.485532" lon="-6.039770">
        <ele>746.659</ele>
        <time>2021-05-12T13:31:20Z</time>
      </trkpt>
      <trkpt lat="40.485177" lon="-6.043373">
        <ele>775.180</ele>
        <time>2021-05-12T13:35:02Z</time>
      </trkpt>
      <trkpt lat="40.484471" lon="-6.045216">
        <ele>760.340</ele>
        <time>2021-05-12T13:35:47Z</time>
      </trkpt>
      <trkpt lat="40.483888" lon="-6.046129">
        <ele>754.457</ele>
        <time>2021-05-12T13:36:08Z</time>
      </trkpt>
      <trkpt lat="40.482676" lon="-6.047371">
        <ele>752.622</ele>
        <time>2021-05-12T13:36:51Z</time>
      </trkpt>
      <trkpt lat="40.482687" lon="-6.048078">
        <ele>756.568</ele>
        <time>2021-05-12T13:37:52Z</time>
      </trkpt>
      <trkpt lat="40.482299" lon="-6.049787">
        <ele>747.942</ele>
        <time>2021-05-12T13:43:28Z</time>
      </trkpt>
      <trkpt lat="40.484379" lon="-6.049455">
        <ele>767.226</ele>
        <time>2021-05-12T13:46:43Z</time>
      </trkpt>
      <trkpt lat="40.484993" lon="-6.049707">
        <ele>778.008</ele>
        <time>2021-05-12T13:47:48Z</time>
      </trkpt>
      <trkpt lat="40.485043" lon="-6.050517">
        <ele>783.723</ele>
        <time>2021-05-12T13:48:32Z</time>
      </trkpt>
      <trkpt lat="40.484268" lon="-6.051582">
        <ele>798.818</ele>
        <time>2021-05-12T13:50:20Z</time>
      </trkpt>
      <trkpt lat="40.484054" lon="-6.053177">
        <ele>821.564</ele>
        <time>2021-05-12T13:52:18Z</time>
      </trkpt>
      <trkpt lat="40.483050" lon="-6.053239">
        <ele>832.511</ele>
        <time>2021-05-12T13:53:41Z</time>
      </trkpt>
      <trkpt lat="40.482882" lon="-6.053548">
        <ele>838.112</ele>
        <time>2021-05-12T13:54:20Z</time>
      </trkpt>
      <trkpt lat="40.483319" lon="-6.053975">
        <ele>845.872</ele>
        <time>2021-05-12T13:55:23Z</time>
      </trkpt>
      <trkpt lat="40.483239" lon="-6.054195">
        <ele>852.119</ele>
        <time>2021-05-12T13:56:10Z</time>
      </trkpt>
      <trkpt lat="40.483545" lon="-6.054698">
        <ele>866.084</ele>
        <time>2021-05-12T13:57:55Z</time>
      </trkpt>
      <trkpt lat="40.484150" lon="-6.055029">
        <ele>861.515</ele>
        <time>2021-05-12T13:58:16Z</time>
      </trkpt>
      <trkpt lat="40.485263" lon="-6.056705">
        <ele>852.165</ele>
        <time>2021-05-12T13:59:44Z</time>
      </trkpt>
      <trkpt lat="40.485743" lon="-6.057773">
        <ele>843.411</ele>
        <time>2021-05-12T14:00:03Z</time>
      </trkpt>
      <trkpt lat="40.486830" lon="-6.058717">
        <ele>841.208</ele>
        <time>2021-05-12T14:00:28Z</time>
      </trkpt>
      <trkpt lat="40.487286" lon="-6.059385">
        <ele>839.778</ele>
        <time>2021-05-12T14:00:39Z</time>
      </trkpt>
      <trkpt lat="40.487670" lon="-6.061400">
        <ele>837.293</ele>
        <time>2021-05-12T14:01:18Z</time>
      </trkpt>
      <trkpt lat="40.487450" lon="-6.063998">
        <ele>830.839</ele>
        <time>2021-05-12T14:03:25Z</time>
      </trkpt>
      <trkpt lat="40.489355" lon="-6.063615">
        <ele>829.156</ele>
        <time>2021-05-12T14:04:39Z</time>
      </trkpt>
      <trkpt lat="40.490079" lon="-6.063069">
        <ele>834.567</ele>
        <time>2021-05-12T14:05:09Z</time>
      </trkpt>
      <trkpt lat="40.491050" lon="-6.062822">
        <ele>834.857</ele>
        <time>2021-05-12T14:05:49Z</time>
      </trkpt>
      <trkpt lat="40.491325" lon="-6.062552">
        <ele>843.074</ele>
        <time>2021-05-12T14:06:01Z</time>
      </trkpt>
      <trkpt lat="40.491499" lon="-6.061936">
        <ele>841.049</ele>
        <time>2021-05-12T14:06:21Z</time>
      </trkpt>
      <trkpt lat="40.491836" lon="-6.061803">
        <ele>844.315</ele>
        <time>2021-05-12T14:06:38Z</time>
      </trkpt>
      <trkpt lat="40.492902" lon="-6.062782">
        <ele>853.665</ele>
        <time>2021-05-12T14:07:53Z</time>
      </trkpt>
      <trkpt lat="40.493680" lon="-6.061765">
        <ele>860.211</ele>
        <time>2021-05-12T14:09:06Z</time>
      </trkpt>
      <trkpt lat="40.493722" lon="-6.062154">
        <ele>860.908</ele>
        <time>2021-05-12T14:09:22Z</time>
      </trkpt>
      <trkpt lat="40.493330" lon="-6.063195">
        <ele>865.198</ele>
        <time>2021-05-12T14:10:07Z</time>
      </trkpt>
      <trkpt lat="40.493670" lon="-6.064428">
        <ele>870.723</ele>
        <time>2021-05-12T14:11:03Z</time>
      </trkpt>
      <trkpt lat="40.493889" lon="-6.063556">
        <ele>880.089</ele>
        <time>2021-05-12T14:11:39Z</time>
      </trkpt>
      <trkpt lat="40.494464" lon="-6.062306">
        <ele>891.156</ele>
        <time>2021-05-12T14:12:35Z</time>
      </trkpt>
      <trkpt lat="40.494633" lon="-6.061160">
        <ele>892.217</ele>
        <time>2021-05-12T14:13:20Z</time>
      </trkpt>
      <trkpt lat="40.494778" lon="-6.061403">
        <ele>892.277</ele>
        <time>2021-05-12T14:13:32Z</time>
      </trkpt>
      <trkpt lat="40.494838" lon="-6.062571">
        <ele>901.884</ele>
        <time>2021-05-12T14:14:19Z</time>
      </trkpt>
      <trkpt lat="40.494496" lon="-6.064891">
        <ele>916.599</ele>
        <time>2021-05-12T14:15:56Z</time>
      </trkpt>
      <trkpt lat="40.494424" lon="-6.067371">
        <ele>918.998</ele>
        <time>2021-05-12T14:17:48Z</time>
      </trkpt>
      <trkpt lat="40.494132" lon="-6.068751">
        <ele>938.115</ele>
        <time>2021-05-12T14:18:58Z</time>
      </trkpt>
      <trkpt lat="40.494169" lon="-6.069583">
        <ele>936.326</ele>
        <time>2021-05-12T14:19:40Z</time>
      </trkpt>
      <trkpt lat="40.493573" lon="-6.070676">
        <ele>945.208</ele>
        <time>2021-05-12T14:20:43Z</time>
      </trkpt>
      <trkpt lat="40.493282" lon="-6.071966">
        <ele>955.966</ele>
        <time>2021-05-12T14:21:49Z</time>
      </trkpt>
      <trkpt lat="40.492580" lon="-6.073205">
        <ele>972.131</ele>
        <time>2021-05-12T14:23:08Z</time>
      </trkpt>
      <trkpt lat="40.492146" lon="-6.073176">
        <ele>972.287</ele>
        <time>2021-05-12T14:23:28Z</time>
      </trkpt>
      <trkpt lat="40.491822" lon="-6.072621">
        <ele>972.044</ele>
        <time>2021-05-12T14:23:52Z</time>
      </trkpt>
      <trkpt lat="40.491587" lon="-6.069858">
        <ele>978.795</ele>
        <time>2021-05-12T14:25:25Z</time>
      </trkpt>
      <trkpt lat="40.490901" lon="-6.068291">
        <ele>989.975</ele>
        <time>2021-05-12T14:26:28Z</time>
      </trkpt>
      <trkpt lat="40.490834" lon="-6.067664">
        <ele>999.432</ele>
        <time>2021-05-12T14:26:49Z</time>
      </trkpt>
      <trkpt lat="40.490599" lon="-6.067386">
        <ele>998.377</ele>
        <time>2021-05-12T14:27:03Z</time>
      </trkpt>
      <trkpt lat="40.490213" lon="-6.067370">
        <ele>1000.294</ele>
        <time>2021-05-12T14:27:21Z</time>
      </trkpt>
      <trkpt lat="40.489753" lon="-6.068012">
        <ele>1005.957</ele>
        <time>2021-05-12T14:27:50Z</time>
      </trkpt>
      <trkpt lat="40.490995" lon="-6.074217">
        <ele>997.122</ele>
        <time>2021-05-12T14:30:22Z</time>
      </trkpt>
      <trkpt lat="40.490633" lon="-6.076379">
        <ele>1008.308</ele>
        <time>2021-05-12T14:35:52Z</time>
      </trkpt>
      <trkpt lat="40.491186" lon="-6.077166">
        <ele>1016.146</ele>
        <time>2021-05-12T14:36:34Z</time>
      </trkpt>
      <trkpt lat="40.490981" lon="-6.078134">
        <ele>1019.931</ele>
        <time>2021-05-12T14:37:11Z</time>
      </trkpt>
      <trkpt lat="40.490371" lon="-6.078771">
        <ele>1027.697</ele>
        <time>2021-05-12T14:37:53Z</time>
      </trkpt>
      <trkpt lat="40.490171" lon="-6.079444">
        <ele>1028.864</ele>
        <time>2021-05-12T14:38:20Z</time>
      </trkpt>
      <trkpt lat="40.490192" lon="-6.080215">
        <ele>1036.825</ele>
        <time>2021-05-12T14:38:53Z</time>
      </trkpt>
      <trkpt lat="40.490672" lon="-6.081109">
        <ele>1042.455</ele>
        <time>2021-05-12T14:39:38Z</time>
      </trkpt>
      <trkpt lat="40.490812" lon="-6.081831">
        <ele>1045.492</ele>
        <time>2021-05-12T14:40:07Z</time>
      </trkpt>
      <trkpt lat="40.490396" lon="-6.083608">
        <ele>1047.377</ele>
        <time>2021-05-12T14:40:58Z</time>
      </trkpt>
      <trkpt lat="40.490298" lon="-6.086076">
        <ele>1048.225</ele>
        <time>2021-05-12T14:41:46Z</time>
      </trkpt>
      <trkpt lat="40.489739" lon="-6.091269">
        <ele>1058.726</ele>
        <time>2021-05-12T14:43:26Z</time>
      </trkpt>
      <trkpt lat="40.489646" lon="-6.094301">
        <ele>1055.308</ele>
        <time>2021-05-12T14:44:22Z</time>
      </trkpt>
      <trkpt lat="40.489440" lon="-6.095754">
        <ele>1053.108</ele>
        <time>2021-05-12T14:44:46Z</time>
      </trkpt>
      <trkpt lat="40.489633" lon="-6.097081">
        <ele>1058.499</ele>
        <time>2021-05-12T14:45:17Z</time>
      </trkpt>
      <trkpt lat="40.489481" lon="-6.097987">
        <ele>1062.074</ele>
        <time>2021-05-12T14:45:39Z</time>
      </trkpt>
      <trkpt lat="40.489352" lon="-6.101745">
        <ele>1060.010</ele>
        <time>2021-05-12T14:46:53Z</time>
      </trkpt>
      <trkpt lat="40.489172" lon="-6.102850">
        <ele>1057.227</ele>
        <time>2021-05-12T14:47:19Z</time>
      </trkpt>
      <trkpt lat="40.488560" lon="-6.103926">
        <ele>1073.448</ele>
        <time>2021-05-12T14:47:59Z</time>
      </trkpt>
      <trkpt lat="40.488785" lon="-6.104719">
        <ele>1075.528</ele>
        <time>2021-05-12T14:48:24Z</time>
      </trkpt>
      <trkpt lat="40.488898" lon="-6.106257">
        <ele>1070.895</ele>
        <time>2021-05-12T14:49:04Z</time>
      </trkpt>
      <trkpt lat="40.488200" lon="-6.107212">
        <ele>1074.050</ele>
        <time>2021-05-12T14:49:36Z</time>
      </trkpt>
      <trkpt lat="40.487973" lon="-6.107796">
        <ele>1073.868</ele>
        <time>2021-05-12T14:52:23Z</time>
      </trkpt>
      <trkpt lat="40.488097" lon="-6.108995">
        <ele>1064.842</ele>
        <time>2021-05-12T14:53:38Z</time>
      </trkpt>
      <trkpt lat="40.488839" lon="-6.109906">
        <ele>1093.026</ele>
        <time>2021-05-12T14:57:30Z</time>
      </trkpt>
      <trkpt lat="40.489009" lon="-6.110716">
        <ele>1080.008</ele>
        <time>2021-05-12T15:04:19Z</time>
      </trkpt>
      <trkpt lat="40.488787" lon="-6.110619">
        <ele>1078.433</ele>
        <time>2021-05-12T15:05:54Z</time>
      </trkpt>
      <trkpt lat="40.488911" lon="-6.110512">
        <ele>1076.828</ele>
        <time>2021-05-12T15:06:17Z</time>
      </trkpt>
      <trkpt lat="40.488751" lon="-6.110570">
        <ele>1077.214</ele>
        <time>2021-05-12T15:07:28Z</time>
      </trkpt>
      <trkpt lat="40.488774" lon="-6.110400">
        <ele>1083.971</ele>
        <time>2021-05-12T15:09:30Z</time>
      </trkpt>
      <trkpt lat="40.488707" lon="-6.110500">
        <ele>1083.862</ele>
        <time>2021-05-12T15:09:55Z</time>
      </trkpt>
      <trkpt lat="40.489104" lon="-6.110213">
        <ele>1087.332</ele>
        <time>2021-05-12T15:51:43Z</time>
      </trkpt>
      <trkpt lat="40.489721" lon="-6.110526">
        <ele>1075.979</ele>
        <time>2021-05-12T15:52:15Z</time>
      </trkpt>
      <trkpt lat="40.490410" lon="-6.111229">
        <ele>1079.744</ele>
        <time>2021-05-12T15:52:52Z</time>
      </trkpt>
      <trkpt lat="40.490717" lon="-6.111914">
        <ele>1064.817</ele>
        <time>2021-05-12T15:54:09Z</time>
      </trkpt>
      <trkpt lat="40.490577" lon="-6.111880">
        <ele>1066.987</ele>
        <time>2021-05-12T15:54:25Z</time>
      </trkpt>
      <trkpt lat="40.491387" lon="-6.112194">
        <ele>1065.515</ele>
        <time>2021-05-12T15:54:49Z</time>
      </trkpt>
      <trkpt lat="40.495881" lon="-6.110425">
        <ele>1063.808</ele>
        <time>2021-05-12T15:56:23Z</time>
      </trkpt>
      <trkpt lat="40.496386" lon="-6.110638">
        <ele>1063.798</ele>
        <time>2021-05-12T15:56:30Z</time>
      </trkpt>
      <trkpt lat="40.497859" lon="-6.112088">
        <ele>1050.733</ele>
        <time>2021-05-12T15:56:49Z</time>
      </trkpt>
      <trkpt lat="40.498823" lon="-6.112128">
        <ele>1047.169</ele>
        <time>2021-05-12T15:57:07Z</time>
      </trkpt>
      <trkpt lat="40.499199" lon="-6.112318">
        <ele>1048.566</ele>
        <time>2021-05-12T15:57:19Z</time>
      </trkpt>
      <trkpt lat="40.500171" lon="-6.113762">
        <ele>1050.597</ele>
        <time>2021-05-12T15:57:54Z</time>
      </trkpt>
      <trkpt lat="40.501634" lon="-6.116612">
        <ele>1057.897</ele>
        <time>2021-05-12T15:58:57Z</time>
      </trkpt>
      <trkpt lat="40.502879" lon="-6.117346">
        <ele>1059.554</ele>
        <time>2021-05-12T15:59:30Z</time>
      </trkpt>
      <trkpt lat="40.504187" lon="-6.117670">
        <ele>1061.789</ele>
        <time>2021-05-12T16:00:10Z</time>
      </trkpt>
      <trkpt lat="40.505931" lon="-6.118581">
        <ele>1063.769</ele>
        <time>2021-05-12T16:00:56Z</time>
      </trkpt>
      <trkpt lat="40.507335" lon="-6.120557">
        <ele>1054.404</ele>
        <time>2021-05-12T16:01:28Z</time>
      </trkpt>
      <trkpt lat="40.508107" lon="-6.122415">
        <ele>1050.524</ele>
        <time>2021-05-12T16:01:56Z</time>
      </trkpt>
      <trkpt lat="40.509871" lon="-6.123734">
        <ele>1047.908</ele>
        <time>2021-05-12T16:02:33Z</time>
      </trkpt>
      <trkpt lat="40.510156" lon="-6.124451">
        <ele>1045.643</ele>
        <time>2021-05-12T16:02:46Z</time>
      </trkpt>
      <trkpt lat="40.510104" lon="-6.126277">
        <ele>1046.528</ele>
        <time>2021-05-12T16:03:12Z</time>
      </trkpt>
      <trkpt lat="40.510341" lon="-6.127254">
        <ele>1039.124</ele>
        <time>2021-05-12T16:04:05Z</time>
      </trkpt>
      <trkpt lat="40.511549" lon="-6.128705">
        <ele>1028.581</ele>
        <time>2021-05-12T16:04:25Z</time>
      </trkpt>
      <trkpt lat="40.512261" lon="-6.130106">
        <ele>1020.092</ele>
        <time>2021-05-12T16:04:39Z</time>
      </trkpt>
      <trkpt lat="40.515433" lon="-6.131899">
        <ele>1032.682</ele>
        <time>2021-05-12T16:06:40Z</time>
      </trkpt>
      <trkpt lat="40.517320" lon="-6.134603">
        <ele>1055.849</ele>
        <time>2021-05-12T16:09:16Z</time>
      </trkpt>
      <trkpt lat="40.519837" lon="-6.137197">
        <ele>1089.114</ele>
        <time>2021-05-12T16:12:16Z</time>
      </trkpt>
      <trkpt lat="40.520945" lon="-6.137543">
        <ele>1097.864</ele>
        <time>2021-05-12T16:13:11Z</time>
      </trkpt>
      <trkpt lat="40.522375" lon="-6.137677">
        <ele>1105.806</ele>
        <time>2021-05-12T16:14:06Z</time>
      </trkpt>
      <trkpt lat="40.524853" lon="-6.136818">
        <ele>1115.616</ele>
        <time>2021-05-12T16:15:31Z</time>
      </trkpt>
      <trkpt lat="40.525465" lon="-6.137020">
        <ele>1115.808</ele>
        <time>2021-05-12T16:15:46Z</time>
      </trkpt>
      <trkpt lat="40.526632" lon="-6.138374">
        <ele>1110.093</ele>
        <time>2021-05-12T16:16:23Z</time>
      </trkpt>
      <trkpt lat="40.529178" lon="-6.144194">
        <ele>1097.638</ele>
        <time>2021-05-12T16:18:11Z</time>
      </trkpt>
      <trkpt lat="40.529903" lon="-6.145293">
        <ele>1100.974</ele>
        <time>2021-05-12T16:18:40Z</time>
      </trkpt>
      <trkpt lat="40.530838" lon="-6.146092">
        <ele>1101.871</ele>
        <time>2021-05-12T16:19:12Z</time>
      </trkpt>
      <trkpt lat="40.531275" lon="-6.147514">
        <ele>1100.692</ele>
        <time>2021-05-12T16:19:37Z</time>
      </trkpt>
      <trkpt lat="40.531852" lon="-6.148044">
        <ele>1098.682</ele>
        <time>2021-05-12T16:19:47Z</time>
      </trkpt>
      <trkpt lat="40.533035" lon="-6.148152">
        <ele>1094.839</ele>
        <time>2021-05-12T16:20:04Z</time>
      </trkpt>
      <trkpt lat="40.534209" lon="-6.149783">
        <ele>1089.164</ele>
        <time>2021-05-12T16:20:29Z</time>
      </trkpt>
      <trkpt lat="40.534140" lon="-6.149953">
        <ele>1089.246</ele>
        <time>2021-05-12T16:20:36Z</time>
      </trkpt>
      <trkpt lat="40.533239" lon="-6.150238">
        <ele>1088.388</ele>
        <time>2021-05-12T16:21:15Z</time>
      </trkpt>
      <trkpt lat="40.532438" lon="-6.150946">
        <ele>1095.216</ele>
        <time>2021-05-12T16:23:41Z</time>
      </trkpt>
      <trkpt lat="40.531764" lon="-6.150727">
        <ele>1097.908</ele>
        <time>2021-05-12T16:24:15Z</time>
      </trkpt>
      <trkpt lat="40.531523" lon="-6.151561">
        <ele>1107.921</ele>
        <time>2021-05-12T16:24:55Z</time>
      </trkpt>
      <trkpt lat="40.530268" lon="-6.152024">
        <ele>1121.356</ele>
        <time>2021-05-12T16:26:04Z</time>
      </trkpt>
      <trkpt lat="40.529704" lon="-6.151692">
        <ele>1124.422</ele>
        <time>2021-05-12T16:26:34Z</time>
      </trkpt>
      <trkpt lat="40.528368" lon="-6.151612">
        <ele>1132.349</ele>
        <time>2021-05-12T16:27:39Z</time>
      </trkpt>
      <trkpt lat="40.526298" lon="-6.152884">
        <ele>1149.760</ele>
        <time>2021-05-12T16:29:35Z</time>
      </trkpt>
      <trkpt lat="40.523801" lon="-6.153312">
        <ele>1164.240</ele>
        <time>2021-05-12T16:31:42Z</time>
      </trkpt>
      <trkpt lat="40.522370" lon="-6.151903">
        <ele>1178.227</ele>
        <time>2021-05-12T16:33:14Z</time>
      </trkpt>
      <trkpt lat="40.521409" lon="-6.151707">
        <ele>1186.872</ele>
        <time>2021-05-12T16:34:07Z</time>
      </trkpt>
      <trkpt lat="40.521452" lon="-6.151838">
        <ele>1184.428</ele>
        <time>2021-05-12T16:34:54Z</time>
      </trkpt>
      <trkpt lat="40.520397" lon="-6.152033">
        <ele>1193.789</ele>
        <time>2021-05-12T16:35:56Z</time>
      </trkpt>
      <trkpt lat="40.518060" lon="-6.151667">
        <ele>1210.517</ele>
        <time>2021-05-12T16:37:59Z</time>
      </trkpt>
      <trkpt lat="40.517077" lon="-6.150665">
        <ele>1217.708</ele>
        <time>2021-05-12T16:39:00Z</time>
      </trkpt>
      <trkpt lat="40.516245" lon="-6.150685">
        <ele>1215.079</ele>
        <time>2021-05-12T16:41:20Z</time>
      </trkpt>
      <trkpt lat="40.515475" lon="-6.151184">
        <ele>1227.374</ele>
        <time>2021-05-12T16:42:13Z</time>
      </trkpt>
      <trkpt lat="40.514350" lon="-6.152480">
        <ele>1250.210</ele>
        <time>2021-05-12T16:43:38Z</time>
      </trkpt>
      <trkpt lat="40.512014" lon="-6.152032">
        <ele>1260.197</ele>
        <time>2021-05-12T16:45:43Z</time>
      </trkpt>
      <trkpt lat="40.513402" lon="-6.154125">
        <ele>1285.658</ele>
        <time>2021-05-12T16:47:41Z</time>
      </trkpt>
      <trkpt lat="40.514866" lon="-6.155054">
        <ele>1294.048</ele>
        <time>2021-05-12T16:49:10Z</time>
      </trkpt>
      <trkpt lat="40.515945" lon="-6.154726">
        <ele>1311.635</ele>
        <time>2021-05-12T16:50:08Z</time>
      </trkpt>
      <trkpt lat="40.516636" lon="-6.155098">
        <ele>1315.990</ele>
        <time>2021-05-12T16:50:46Z</time>
      </trkpt>
      <trkpt lat="40.517099" lon="-6.155804">
        <ele>1314.482</ele>
        <time>2021-05-12T16:51:25Z</time>
      </trkpt>
      <trkpt lat="40.517330" lon="-6.156715">
        <ele>1320.443</ele>
        <time>2021-05-12T16:52:05Z</time>
      </trkpt>
      <trkpt lat="40.517198" lon="-6.156868">
        <ele>1319.517</ele>
        <time>2021-05-12T16:52:17Z</time>
      </trkpt>
      <trkpt lat="40.516256" lon="-6.156245">
        <ele>1321.008</ele>
        <time>2021-05-12T16:53:15Z</time>
      </trkpt>
      <trkpt lat="40.515835" lon="-6.156166">
        <ele>1322.345</ele>
        <time>2021-05-12T16:53:39Z</time>
      </trkpt>
      <trkpt lat="40.514609" lon="-6.156842">
        <ele>1336.850</ele>
        <time>2021-05-12T16:54:56Z</time>
      </trkpt>
      <trkpt lat="40.512321" lon="-6.157134">
        <ele>1353.556</ele>
        <time>2021-05-12T16:59:03Z</time>
      </trkpt>
      <trkpt lat="40.511875" lon="-6.157766">
        <ele>1356.153</ele>
        <time>2021-05-12T16:59:42Z</time>
      </trkpt>
      <trkpt lat="40.511889" lon="-6.158048">
        <ele>1358.924</ele>
        <time>2021-05-12T16:59:54Z</time>
      </trkpt>
      <trkpt lat="40.512209" lon="-6.157785">
        <ele>1365.134</ele>
        <time>2021-05-12T17:01:03Z</time>
      </trkpt>
      <trkpt lat="40.512758" lon="-6.157748">
        <ele>1367.711</ele>
        <time>2021-05-12T17:01:33Z</time>
      </trkpt>
      <trkpt lat="40.514978" lon="-6.158931">
        <ele>1399.186</ele>
        <time>2021-05-12T17:03:55Z</time>
      </trkpt>
      <trkpt lat="40.516227" lon="-6.160370">
        <ele>1406.278</ele>
        <time>2021-05-12T17:05:25Z</time>
      </trkpt>
      <trkpt lat="40.516100" lon="-6.160437">
        <ele>1403.633</ele>
        <time>2021-05-12T17:05:34Z</time>
      </trkpt>
      <trkpt lat="40.515478" lon="-6.159942">
        <ele>1402.526</ele>
        <time>2021-05-12T17:06:12Z</time>
      </trkpt>
      <trkpt lat="40.514029" lon="-6.159348">
        <ele>1414.508</ele>
        <time>2021-05-12T17:07:36Z</time>
      </trkpt>
      <trkpt lat="40.513531" lon="-6.159387">
        <ele>1419.974</ele>
        <time>2021-05-12T17:08:03Z</time>
      </trkpt>
      <trkpt lat="40.512744" lon="-6.159887">
        <ele>1423.059</ele>
        <time>2021-05-12T17:08:51Z</time>
      </trkpt>
      <trkpt lat="40.510172" lon="-6.165741">
        <ele>1472.585</ele>
        <time>2021-05-12T17:16:10Z</time>
      </trkpt>
      <trkpt lat="40.509550" lon="-6.166754">
        <ele>1479.362</ele>
        <time>2021-05-12T17:17:14Z</time>
      </trkpt>
      <trkpt lat="40.509073" lon="-6.168622">
        <ele>1492.023</ele>
        <time>2021-05-12T17:18:45Z</time>
      </trkpt>
      <trkpt lat="40.509289" lon="-6.169975">
        <ele>1501.633</ele>
        <time>2021-05-12T17:19:54Z</time>
      </trkpt>
      <trkpt lat="40.509001" lon="-6.176576">
        <ele>1526.940</ele>
        <time>2021-05-12T17:24:15Z</time>
      </trkpt>
      <trkpt lat="40.509064" lon="-6.176327">
        <ele>1526.925</ele>
        <time>2021-05-12T17:25:49Z</time>
      </trkpt>
      <trkpt lat="40.510142" lon="-6.176793">
        <ele>1530.679</ele>
        <time>2021-05-12T17:26:47Z</time>
      </trkpt>
      <trkpt lat="40.511683" lon="-6.176867">
        <ele>1545.805</ele>
        <time>2021-05-12T17:28:17Z</time>
      </trkpt>
      <trkpt lat="40.512199" lon="-6.176000">
        <ele>1552.825</ele>
        <time>2021-05-12T17:29:08Z</time>
      </trkpt>
      <trkpt lat="40.515675" lon="-6.172961">
        <ele>1581.908</ele>
        <time>2021-05-12T17:33:08Z</time>
      </trkpt>
      <trkpt lat="40.517779" lon="-6.171837">
        <ele>1594.014</ele>
        <time>2021-05-12T17:35:05Z</time>
      </trkpt>
      <trkpt lat="40.518033" lon="-6.170019">
        <ele>1600.059</ele>
        <time>2021-05-12T17:36:05Z</time>
      </trkpt>
      <trkpt lat="40.517995" lon="-6.168119">
        <ele>1606.315</ele>
        <time>2021-05-12T17:37:07Z</time>
      </trkpt>
      <trkpt lat="40.517822" lon="-6.167723">
        <ele>1608.552</ele>
        <time>2021-05-12T17:37:22Z</time>
      </trkpt>
      <trkpt lat="40.515644" lon="-6.167431">
        <ele>1623.213</ele>
        <time>2021-05-12T17:39:11Z</time>
      </trkpt>
      <trkpt lat="40.515075" lon="-6.167118">
        <ele>1625.143</ele>
        <time>2021-05-12T17:39:50Z</time>
      </trkpt>
      <trkpt lat="40.515365" lon="-6.167454">
        <ele>1631.250</ele>
        <time>2021-05-12T17:40:50Z</time>
      </trkpt>
      <trkpt lat="40.516764" lon="-6.168027">
        <ele>1638.785</ele>
        <time>2021-05-12T17:42:06Z</time>
      </trkpt>
      <trkpt lat="40.517134" lon="-6.168377">
        <ele>1642.867</ele>
        <time>2021-05-12T17:42:33Z</time>
      </trkpt>
      <trkpt lat="40.517281" lon="-6.168931">
        <ele>1645.081</ele>
        <time>2021-05-12T17:43:03Z</time>
      </trkpt>
      <trkpt lat="40.517193" lon="-6.169845">
        <ele>1650.919</ele>
        <time>2021-05-12T17:43:46Z</time>
      </trkpt>
      <trkpt lat="40.516825" lon="-6.170591">
        <ele>1655.908</ele>
        <time>2021-05-12T17:44:29Z</time>
      </trkpt>
      <trkpt lat="40.515368" lon="-6.170835">
        <ele>1666.873</ele>
        <time>2021-05-12T17:46:00Z</time>
      </trkpt>
      <trkpt lat="40.514087" lon="-6.171410">
        <ele>1671.418</ele>
        <time>2021-05-12T17:47:20Z</time>
      </trkpt>
      <trkpt lat="40.513852" lon="-6.171809">
        <ele>1672.334</ele>
        <time>2021-05-12T17:48:15Z</time>
      </trkpt>
      <trkpt lat="40.513709" lon="-6.171735">
        <ele>1671.621</ele>
        <time>2021-05-12T17:48:29Z</time>
      </trkpt>
      <trkpt lat="40.513864" lon="-6.171432">
        <ele>1675.262</ele>
        <time>2021-05-12T17:49:29Z</time>
      </trkpt>
      <trkpt lat="40.516269" lon="-6.169808">
        <ele>1689.362</ele>
        <time>2021-05-12T17:51:03Z</time>
      </trkpt>
      <trkpt lat="40.516236" lon="-6.169558">
        <ele>1692.729</ele>
        <time>2021-05-12T17:51:14Z</time>
      </trkpt>
      <trkpt lat="40.516021" lon="-6.169405">
        <ele>1692.634</ele>
        <time>2021-05-12T17:51:30Z</time>
      </trkpt>
      <trkpt lat="40.514576" lon="-6.169638">
        <ele>1704.636</ele>
        <time>2021-05-12T17:53:12Z</time>
      </trkpt>
      <trkpt lat="40.513756" lon="-6.169212">
        <ele>1714.817</ele>
        <time>2021-05-12T17:54:10Z</time>
      </trkpt>
      <trkpt lat="40.513654" lon="-6.169336">
        <ele>1716.018</ele>
        <time>2021-05-12T17:54:20Z</time>
      </trkpt>
      <trkpt lat="40.513801" lon="-6.169883">
        <ele>1719.808</ele>
        <time>2021-05-12T17:54:44Z</time>
      </trkpt>
      <trkpt lat="40.513616" lon="-6.170091">
        <ele>1720.220</ele>
        <time>2021-05-12T17:55:00Z</time>
      </trkpt>
      <trkpt lat="40.513440" lon="-6.169975">
        <ele>1721.015</ele>
        <time>2021-05-12T17:55:21Z</time>
      </trkpt>
      <trkpt lat="40.513277" lon="-6.169331">
        <ele>1724.721</ele>
        <time>2021-05-12T17:57:20Z</time>
      </trkpt>
      <trkpt lat="40.512684" lon="-6.168454">
        <ele>1734.688</ele>
        <time>2021-05-12T17:58:08Z</time>
      </trkpt>
      <trkpt lat="40.512223" lon="-6.168211">
        <ele>1735.789</ele>
        <time>2021-05-12T17:58:39Z</time>
      </trkpt>
      <trkpt lat="40.512383" lon="-6.168115">
        <ele>1737.459</ele>
        <time>2021-05-12T17:58:57Z</time>
      </trkpt>
      <trkpt lat="40.512426" lon="-6.168686">
        <ele>1739.286</ele>
        <time>2021-05-12T18:08:02Z</time>
      </trkpt>
      <trkpt lat="40.512482" lon="-6.168192">
        <ele>1740.261</ele>
        <time>2021-05-12T18:08:21Z</time>
      </trkpt>
      <trkpt lat="40.513414" lon="-6.169648">
        <ele>1725.488</ele>
        <time>2021-05-12T18:08:48Z</time>
      </trkpt>
      <trkpt lat="40.513548" lon="-6.170163">
        <ele>1718.824</ele>
        <time>2021-05-12T18:09:02Z</time>
      </trkpt>
      <trkpt lat="40.513834" lon="-6.169854">
        <ele>1718.026</ele>
        <time>2021-05-12T18:09:54Z</time>
      </trkpt>
      <trkpt lat="40.513649" lon="-6.169401">
        <ele>1718.008</ele>
        <time>2021-05-12T18:10:01Z</time>
      </trkpt>
      <trkpt lat="40.513747" lon="-6.169147">
        <ele>1716.925</ele>
        <time>2021-05-12T18:10:06Z</time>
      </trkpt>
      <trkpt lat="40.514514" lon="-6.169597">
        <ele>1711.120</ele>
        <time>2021-05-12T18:10:18Z</time>
      </trkpt>
      <trkpt lat="40.516259" lon="-6.169451">
        <ele>1696.296</ele>
        <time>2021-05-12T18:10:41Z</time>
      </trkpt>
      <trkpt lat="40.516243" lon="-6.169989">
        <ele>1691.393</ele>
        <time>2021-05-12T18:10:48Z</time>
      </trkpt>
      <trkpt lat="40.513798" lon="-6.171557">
        <ele>1680.024</ele>
        <time>2021-05-12T18:12:14Z</time>
      </trkpt>
      <trkpt lat="40.513797" lon="-6.171763">
        <ele>1678.984</ele>
        <time>2021-05-12T18:12:18Z</time>
      </trkpt>
      <trkpt lat="40.514192" lon="-6.171335">
        <ele>1678.141</ele>
        <time>2021-05-12T18:12:28Z</time>
      </trkpt>
      <trkpt lat="40.515656" lon="-6.170726">
        <ele>1672.526</ele>
        <time>2021-05-12T18:12:46Z</time>
      </trkpt>
      <trkpt lat="40.516854" lon="-6.170564">
        <ele>1662.027</ele>
        <time>2021-05-12T18:13:02Z</time>
      </trkpt>
      <trkpt lat="40.517109" lon="-6.170006">
        <ele>1657.568</ele>
        <time>2021-05-12T18:13:09Z</time>
      </trkpt>
      <trkpt lat="40.517268" lon="-6.169029">
        <ele>1652.514</ele>
        <time>2021-05-12T18:13:18Z</time>
      </trkpt>
      <trkpt lat="40.517132" lon="-6.168399">
        <ele>1648.308</ele>
        <time>2021-05-12T18:13:25Z</time>
      </trkpt>
      <trkpt lat="40.516666" lon="-6.167986">
        <ele>1642.989</ele>
        <time>2021-05-12T18:13:31Z</time>
      </trkpt>
      <trkpt lat="40.515069" lon="-6.167308">
        <ele>1630.154</ele>
        <time>2021-05-12T18:13:49Z</time>
      </trkpt>
      <trkpt lat="40.514956" lon="-6.167110">
        <ele>1627.350</ele>
        <time>2021-05-12T18:13:53Z</time>
      </trkpt>
      <trkpt lat="40.517895" lon="-6.167723">
        <ele>1612.457</ele>
        <time>2021-05-12T18:14:30Z</time>
      </trkpt>
      <trkpt lat="40.518058" lon="-6.168262">
        <ele>1610.218</ele>
        <time>2021-05-12T18:14:37Z</time>
      </trkpt>
      <trkpt lat="40.518076" lon="-6.170337">
        <ele>1599.488</ele>
        <time>2021-05-12T18:14:58Z</time>
      </trkpt>
      <trkpt lat="40.517772" lon="-6.171984">
        <ele>1591.985</ele>
        <time>2021-05-12T18:15:15Z</time>
      </trkpt>
      <trkpt lat="40.515425" lon="-6.173136">
        <ele>1579.940</ele>
        <time>2021-05-12T18:15:47Z</time>
      </trkpt>
      <trkpt lat="40.512156" lon="-6.176130">
        <ele>1552.658</ele>
        <time>2021-05-12T18:16:27Z</time>
      </trkpt>
      <trkpt lat="40.511731" lon="-6.176945">
        <ele>1544.452</ele>
        <time>2021-05-12T18:16:37Z</time>
      </trkpt>
      <trkpt lat="40.510003" lon="-6.176792">
        <ele>1535.617</ele>
        <time>2021-05-12T18:16:56Z</time>
      </trkpt>
      <trkpt lat="40.508955" lon="-6.176157">
        <ele>1529.308</ele>
        <time>2021-05-12T18:17:52Z</time>
      </trkpt>
      <trkpt lat="40.509112" lon="-6.175160">
        <ele>1525.852</ele>
        <time>2021-05-12T18:18:04Z</time>
      </trkpt>
      <trkpt lat="40.509262" lon="-6.169862">
        <ele>1506.867</ele>
        <time>2021-05-12T18:21:05Z</time>
      </trkpt>
      <trkpt lat="40.509070" lon="-6.168496">
        <ele>1496.393</ele>
        <time>2021-05-12T18:21:42Z</time>
      </trkpt>
      <trkpt lat="40.509408" lon="-6.167040">
        <ele>1489.860</ele>
        <time>2021-05-12T18:21:56Z</time>
      </trkpt>
      <trkpt lat="40.510126" lon="-6.165776">
        <ele>1481.351</ele>
        <time>2021-05-12T18:22:09Z</time>
      </trkpt>
      <trkpt lat="40.512477" lon="-6.160303">
        <ele>1433.661</ele>
        <time>2021-05-12T18:23:47Z</time>
      </trkpt>
      <trkpt lat="40.512868" lon="-6.159771">
        <ele>1431.568</ele>
        <time>2021-05-12T18:23:54Z</time>
      </trkpt>
      <trkpt lat="40.513559" lon="-6.159357">
        <ele>1428.373</ele>
        <time>2021-05-12T18:24:02Z</time>
      </trkpt>
      <trkpt lat="40.514308" lon="-6.159369">
        <ele>1425.822</ele>
        <time>2021-05-12T18:24:10Z</time>
      </trkpt>
      <trkpt lat="40.516321" lon="-6.160433">
        <ele>1404.562</ele>
        <time>2021-05-12T18:24:47Z</time>
      </trkpt>
      <trkpt lat="40.514947" lon="-6.158929">
        <ele>1394.308</ele>
        <time>2021-05-12T18:25:10Z</time>
      </trkpt>
      <trkpt lat="40.514206" lon="-6.158384">
        <ele>1390.708</ele>
        <time>2021-05-12T18:25:18Z</time>
      </trkpt>
      <trkpt lat="40.512684" lon="-6.157800">
        <ele>1380.019</ele>
        <time>2021-05-12T18:25:33Z</time>
      </trkpt>
      <trkpt lat="40.512180" lon="-6.157835">
        <ele>1374.284</ele>
        <time>2021-05-12T18:25:39Z</time>
      </trkpt>
      <trkpt lat="40.511906" lon="-6.158096">
        <ele>1370.460</ele>
        <time>2021-05-12T18:25:45Z</time>
      </trkpt>
      <trkpt lat="40.511814" lon="-6.157827">
        <ele>1366.447</ele>
        <time>2021-05-12T18:25:50Z</time>
      </trkpt>
      <trkpt lat="40.512239" lon="-6.157162">
        <ele>1361.868</ele>
        <time>2021-05-12T18:25:59Z</time>
      </trkpt>
      <trkpt lat="40.514273" lon="-6.156920">
        <ele>1347.118</ele>
        <time>2021-05-12T18:26:19Z</time>
      </trkpt>
      <trkpt lat="40.515863" lon="-6.156161">
        <ele>1335.795</ele>
        <time>2021-05-12T18:26:35Z</time>
      </trkpt>
      <trkpt lat="40.516365" lon="-6.156255">
        <ele>1329.040</ele>
        <time>2021-05-12T18:26:40Z</time>
      </trkpt>
      <trkpt lat="40.517194" lon="-6.156913">
        <ele>1318.398</ele>
        <time>2021-05-12T18:26:50Z</time>
      </trkpt>
      <trkpt lat="40.517369" lon="-6.156835">
        <ele>1316.215</ele>
        <time>2021-05-12T18:26:54Z</time>
      </trkpt>
      <trkpt lat="40.517071" lon="-6.155676">
        <ele>1311.026</ele>
        <time>2021-05-12T18:27:05Z</time>
      </trkpt>
      <trkpt lat="40.516527" lon="-6.155041">
        <ele>1306.408</ele>
        <time>2021-05-12T18:27:13Z</time>
      </trkpt>
      <trkpt lat="40.515859" lon="-6.154804">
        <ele>1301.586</ele>
        <time>2021-05-12T18:27:21Z</time>
      </trkpt>
      <trkpt lat="40.514673" lon="-6.155043">
        <ele>1295.511</ele>
        <time>2021-05-12T18:27:33Z</time>
      </trkpt>
      <trkpt lat="40.513172" lon="-6.153895">
        <ele>1283.197</ele>
        <time>2021-05-12T18:27:50Z</time>
      </trkpt>
      <trkpt lat="40.512613" lon="-6.152802">
        <ele>1275.314</ele>
        <time>2021-05-12T18:28:00Z</time>
      </trkpt>
      <trkpt lat="40.511933" lon="-6.152246">
        <ele>1268.785</ele>
        <time>2021-05-12T18:28:10Z</time>
      </trkpt>
      <trkpt lat="40.511981" lon="-6.152052">
        <ele>1266.645</ele>
        <time>2021-05-12T18:28:13Z</time>
      </trkpt>
      <trkpt lat="40.512895" lon="-6.152114">
        <ele>1260.282</ele>
        <time>2021-05-12T18:28:24Z</time>
      </trkpt>
      <trkpt lat="40.514307" lon="-6.152551">
        <ele>1251.257</ele>
        <time>2021-05-12T18:28:39Z</time>
      </trkpt>
      <trkpt lat="40.515481" lon="-6.151257">
        <ele>1242.341</ele>
        <time>2021-05-12T18:28:55Z</time>
      </trkpt>
      <trkpt lat="40.516848" lon="-6.150607">
        <ele>1228.681</ele>
        <time>2021-05-12T18:29:09Z</time>
      </trkpt>
      <trkpt lat="40.517293" lon="-6.150799">
        <ele>1221.509</ele>
        <time>2021-05-12T18:29:14Z</time>
      </trkpt>
      <trkpt lat="40.517891" lon="-6.151611">
        <ele>1214.208</ele>
        <time>2021-05-12T18:29:23Z</time>
      </trkpt>
      <trkpt lat="40.520488" lon="-6.152066">
        <ele>1197.161</ele>
        <time>2021-05-12T18:29:48Z</time>
      </trkpt>
      <trkpt lat="40.522409" lon="-6.151926">
        <ele>1182.676</ele>
        <time>2021-05-12T18:30:07Z</time>
      </trkpt>
      <trkpt lat="40.523403" lon="-6.152773">
        <ele>1171.192</ele>
        <time>2021-05-12T18:30:20Z</time>
      </trkpt>
      <trkpt lat="40.523791" lon="-6.153395">
        <ele>1165.359</ele>
        <time>2021-05-12T18:30:28Z</time>
      </trkpt>
      <trkpt lat="40.525003" lon="-6.153029">
        <ele>1158.540</ele>
        <time>2021-05-12T18:30:43Z</time>
      </trkpt>
      <trkpt lat="40.526318" lon="-6.152928">
        <ele>1154.560</ele>
        <time>2021-05-12T18:30:57Z</time>
      </trkpt>
      <trkpt lat="40.528302" lon="-6.151637">
        <ele>1142.887</ele>
        <time>2021-05-12T18:31:19Z</time>
      </trkpt>
      <trkpt lat="40.529810" lon="-6.151733">
        <ele>1130.062</ele>
        <time>2021-05-12T18:31:34Z</time>
      </trkpt>
      <trkpt lat="40.530499" lon="-6.152114">
        <ele>1124.476</ele>
        <time>2021-05-12T18:31:42Z</time>
      </trkpt>
      <trkpt lat="40.531608" lon="-6.151509">
        <ele>1116.190</ele>
        <time>2021-05-12T18:31:55Z</time>
      </trkpt>
      <trkpt lat="40.531873" lon="-6.150632">
        <ele>1109.319</ele>
        <time>2021-05-12T18:32:04Z</time>
      </trkpt>
      <trkpt lat="40.532493" lon="-6.150943">
        <ele>1102.708</ele>
        <time>2021-05-12T18:32:12Z</time>
      </trkpt>
      <trkpt lat="40.533341" lon="-6.150226">
        <ele>1095.974</ele>
        <time>2021-05-12T18:32:22Z</time>
      </trkpt>
      <trkpt lat="40.534255" lon="-6.149961">
        <ele>1088.649</ele>
        <time>2021-05-12T18:32:33Z</time>
      </trkpt>
      <trkpt lat="40.534317" lon="-6.149798">
        <ele>1087.245</ele>
        <time>2021-05-12T18:32:37Z</time>
      </trkpt>
      <trkpt lat="40.533135" lon="-6.148189">
        <ele>1092.692</ele>
        <time>2021-05-12T18:33:18Z</time>
      </trkpt>
      <trkpt lat="40.531994" lon="-6.148063">
        <ele>1099.143</ele>
        <time>2021-05-12T18:33:54Z</time>
      </trkpt>
      <trkpt lat="40.531378" lon="-6.147604">
        <ele>1101.863</ele>
        <time>2021-05-12T18:34:16Z</time>
      </trkpt>
      <trkpt lat="40.530921" lon="-6.146051">
        <ele>1114.440</ele>
        <time>2021-05-12T18:34:56Z</time>
      </trkpt>
      <trkpt lat="40.530164" lon="-6.145497">
        <ele>1113.015</ele>
        <time>2021-05-12T18:35:14Z</time>
      </trkpt>
      <trkpt lat="40.529321" lon="-6.144368">
        <ele>1109.679</ele>
        <time>2021-05-12T18:35:39Z</time>
      </trkpt>
      <trkpt lat="40.526748" lon="-6.138636">
        <ele>1118.305</ele>
        <time>2021-05-12T18:37:32Z</time>
      </trkpt>
      <trkpt lat="40.525666" lon="-6.137153">
        <ele>1116.325</ele>
        <time>2021-05-12T18:38:07Z</time>
      </trkpt>
      <trkpt lat="40.524785" lon="-6.136915">
        <ele>1114.008</ele>
        <time>2021-05-12T18:38:25Z</time>
      </trkpt>
      <trkpt lat="40.522603" lon="-6.137737">
        <ele>1103.774</ele>
        <time>2021-05-12T18:39:05Z</time>
      </trkpt>
      <trkpt lat="40.520010" lon="-6.137277">
        <ele>1097.659</ele>
        <time>2021-05-12T18:39:37Z</time>
      </trkpt>
      <trkpt lat="40.517515" lon="-6.134777">
        <ele>1077.455</ele>
        <time>2021-05-12T18:40:05Z</time>
      </trkpt>
      <trkpt lat="40.515558" lon="-6.132044">
        <ele>1048.072</ele>
        <time>2021-05-12T18:40:25Z</time>
      </trkpt>
      <trkpt lat="40.514827" lon="-6.131483">
        <ele>1041.553</ele>
        <time>2021-05-12T18:40:31Z</time>
      </trkpt>
      <trkpt lat="40.512282" lon="-6.130150">
        <ele>1016.083</ele>
        <time>2021-05-12T18:40:52Z</time>
      </trkpt>
      <trkpt lat="40.511475" lon="-6.128691">
        <ele>1011.810</ele>
        <time>2021-05-12T18:41:24Z</time>
      </trkpt>
      <trkpt lat="40.510685" lon="-6.127874">
        <ele>1029.175</ele>
        <time>2021-05-12T18:42:13Z</time>
      </trkpt>
      <trkpt lat="40.510313" lon="-6.127215">
        <ele>1034.842</ele>
        <time>2021-05-12T18:42:46Z</time>
      </trkpt>
      <trkpt lat="40.510134" lon="-6.126367">
        <ele>1041.522</ele>
        <time>2021-05-12T18:43:22Z</time>
      </trkpt>
      <trkpt lat="40.510229" lon="-6.124600">
        <ele>1047.214</ele>
        <time>2021-05-12T18:44:16Z</time>
      </trkpt>
      <trkpt lat="40.509942" lon="-6.123860">
        <ele>1049.208</ele>
        <time>2021-05-12T18:44:36Z</time>
      </trkpt>
      <trkpt lat="40.508157" lon="-6.122448">
        <ele>1052.171</ele>
        <time>2021-05-12T18:45:42Z</time>
      </trkpt>
      <trkpt lat="40.507300" lon="-6.120451">
        <ele>1057.556</ele>
        <time>2021-05-12T18:46:30Z</time>
      </trkpt>
      <trkpt lat="40.505933" lon="-6.118662">
        <ele>1063.382</ele>
        <time>2021-05-12T18:47:26Z</time>
      </trkpt>
      <trkpt lat="40.504309" lon="-6.117833">
        <ele>1073.459</ele>
        <time>2021-05-12T18:48:20Z</time>
      </trkpt>
      <trkpt lat="40.502726" lon="-6.117348">
        <ele>1069.970</ele>
        <time>2021-05-12T18:48:47Z</time>
      </trkpt>
      <trkpt lat="40.501567" lon="-6.116560">
        <ele>1064.960</ele>
        <time>2021-05-12T18:49:04Z</time>
      </trkpt>
      <trkpt lat="40.500178" lon="-6.113837">
        <ele>1056.447</ele>
        <time>2021-05-12T18:49:44Z</time>
      </trkpt>
      <trkpt lat="40.499270" lon="-6.112415">
        <ele>1056.182</ele>
        <time>2021-05-12T18:50:07Z</time>
      </trkpt>
      <trkpt lat="40.497726" lon="-6.112040">
        <ele>1053.622</ele>
        <time>2021-05-12T18:50:27Z</time>
      </trkpt>
      <trkpt lat="40.496064" lon="-6.110527">
        <ele>1072.162</ele>
        <time>2021-05-12T18:51:36Z</time>
      </trkpt>
      <trkpt lat="40.495478" lon="-6.110579">
        <ele>1078.208</ele>
        <time>2021-05-12T18:52:02Z</time>
      </trkpt>
      <trkpt lat="40.491385" lon="-6.112234">
        <ele>1067.408</ele>
        <time>2021-05-12T18:53:43Z</time>
      </trkpt>
      <trkpt lat="40.490854" lon="-6.111998">
        <ele>1067.849</ele>
        <time>2021-05-12T18:53:59Z</time>
      </trkpt>
      <trkpt lat="40.489914" lon="-6.110753">
        <ele>1082.634</ele>
        <time>2021-05-12T18:54:57Z</time>
      </trkpt>
      <trkpt lat="40.489353" lon="-6.110347">
        <ele>1083.190</ele>
        <time>2021-05-12T18:55:17Z</time>
      </trkpt>
      <trkpt lat="40.488888" lon="-6.110612">
        <ele>1088.697</ele>
        <time>2021-05-12T19:04:20Z</time>
      </trkpt>
      <trkpt lat="40.489261" lon="-6.109994">
        <ele>1049.679</ele>
        <time>2021-05-13T10:05:55Z</time>
      </trkpt>
      <trkpt lat="40.489484" lon="-6.110579">
        <ele>1049.405</ele>
        <time>2021-05-13T10:06:43Z</time>
      </trkpt>
      <trkpt lat="40.489244" lon="-6.110398">
        <ele>1049.325</ele>
        <time>2021-05-13T10:06:51Z</time>
      </trkpt>
      <trkpt lat="40.489551" lon="-6.110679">
        <ele>1057.208</ele>
        <time>2021-05-13T10:09:37Z</time>
      </trkpt>
      <trkpt lat="40.489464" lon="-6.111062">
        <ele>1051.274</ele>
        <time>2021-05-13T10:10:25Z</time>
      </trkpt>
      <trkpt lat="40.489734" lon="-6.111223">
        <ele>1056.469</ele>
        <time>2021-05-13T10:11:33Z</time>
      </trkpt>
      <trkpt lat="40.488894" lon="-6.110982">
        <ele>1062.336</ele>
        <time>2021-05-13T10:14:32Z</time>
      </trkpt>
      <trkpt lat="40.488978" lon="-6.110593">
        <ele>1049.059</ele>
        <time>2021-05-13T10:17:55Z</time>
      </trkpt>
      <trkpt lat="40.488457" lon="-6.110347">
        <ele>1050.228</ele>
        <time>2021-05-13T10:18:43Z</time>
      </trkpt>
      <trkpt lat="40.488546" lon="-6.110548">
        <ele>1052.345</ele>
        <time>2021-05-13T10:20:51Z</time>
      </trkpt>
      <trkpt lat="40.488486" lon="-6.110373">
        <ele>1049.722</ele>
        <time>2021-05-13T10:21:31Z</time>
      </trkpt>
      <trkpt lat="40.488221" lon="-6.111271">
        <ele>1051.963</ele>
        <time>2021-05-13T10:23:08Z</time>
      </trkpt>
      <trkpt lat="40.488241" lon="-6.113389">
        <ele>1067.344</ele>
        <time>2021-05-13T10:27:54Z</time>
      </trkpt>
      <trkpt lat="40.489081" lon="-6.114379">
        <ele>1086.905</ele>
        <time>2021-05-13T10:28:55Z</time>
      </trkpt>
      <trkpt lat="40.488167" lon="-6.115538">
        <ele>1086.015</ele>
        <time>2021-05-13T10:30:14Z</time>
      </trkpt>
      <trkpt lat="40.487779" lon="-6.115462">
        <ele>1088.308</ele>
        <time>2021-05-13T10:30:38Z</time>
      </trkpt>
      <trkpt lat="40.486421" lon="-6.114263">
        <ele>1105.541</ele>
        <time>2021-05-13T10:32:16Z</time>
      </trkpt>
      <trkpt lat="40.485047" lon="-6.113774">
        <ele>1114.576</ele>
        <time>2021-05-13T10:33:36Z</time>
      </trkpt>
      <trkpt lat="40.484119" lon="-6.113865">
        <ele>1119.463</ele>
        <time>2021-05-13T10:34:32Z</time>
      </trkpt>
      <trkpt lat="40.483487" lon="-6.114271">
        <ele>1125.146</ele>
        <time>2021-05-13T10:35:10Z</time>
      </trkpt>
      <trkpt lat="40.482117" lon="-6.113715">
        <ele>1128.075</ele>
        <time>2021-05-13T10:36:26Z</time>
      </trkpt>
      <trkpt lat="40.481128" lon="-6.114748">
        <ele>1139.832</ele>
        <time>2021-05-13T10:37:29Z</time>
      </trkpt>
      <trkpt lat="40.480706" lon="-6.117706">
        <ele>1159.359</ele>
        <time>2021-05-13T10:39:23Z</time>
      </trkpt>
      <trkpt lat="40.481219" lon="-6.119541">
        <ele>1166.780</ele>
        <time>2021-05-13T10:40:34Z</time>
      </trkpt>
      <trkpt lat="40.482456" lon="-6.121571">
        <ele>1178.851</ele>
        <time>2021-05-13T10:42:07Z</time>
      </trkpt>
      <trkpt lat="40.482765" lon="-6.123267">
        <ele>1186.101</ele>
        <time>2021-05-13T10:43:01Z</time>
      </trkpt>
      <trkpt lat="40.482181" lon="-6.123793">
        <ele>1183.511</ele>
        <time>2021-05-13T10:43:35Z</time>
      </trkpt>
      <trkpt lat="40.479858" lon="-6.123915">
        <ele>1195.508</ele>
        <time>2021-05-13T10:45:27Z</time>
      </trkpt>
      <trkpt lat="40.479151" lon="-6.122742">
        <ele>1204.722</ele>
        <time>2021-05-13T10:53:21Z</time>
      </trkpt>
      <trkpt lat="40.477446" lon="-6.121325">
        <ele>1220.167</ele>
        <time>2021-05-13T10:54:52Z</time>
      </trkpt>
      <trkpt lat="40.476769" lon="-6.119680">
        <ele>1228.054</ele>
        <time>2021-05-13T10:55:57Z</time>
      </trkpt>
      <trkpt lat="40.475571" lon="-6.118865">
        <ele>1230.977</ele>
        <time>2021-05-13T10:57:01Z</time>
      </trkpt>
      <trkpt lat="40.474871" lon="-6.118819">
        <ele>1231.566</ele>
        <time>2021-05-13T10:57:34Z</time>
      </trkpt>
      <trkpt lat="40.473976" lon="-6.119565">
        <ele>1243.953</ele>
        <time>2021-05-13T10:58:28Z</time>
      </trkpt>
      <trkpt lat="40.472543" lon="-6.119720">
        <ele>1248.660</ele>
        <time>2021-05-13T10:59:46Z</time>
      </trkpt>
      <trkpt lat="40.472043" lon="-6.120036">
        <ele>1251.391</ele>
        <time>2021-05-13T11:08:39Z</time>
      </trkpt>
      <trkpt lat="40.472401" lon="-6.119694">
        <ele>1255.062</ele>
        <time>2021-05-13T11:11:15Z</time>
      </trkpt>
      <trkpt lat="40.470131" lon="-6.119635">
        <ele>1243.183</ele>
        <time>2021-05-13T11:21:06Z</time>
      </trkpt>
      <trkpt lat="40.468705" lon="-6.117996">
        <ele>1223.111</ele>
        <time>2021-05-13T11:26:35Z</time>
      </trkpt>
      <trkpt lat="40.467321" lon="-6.117227">
        <ele>1208.908</ele>
        <time>2021-05-13T11:31:37Z</time>
      </trkpt>
      <trkpt lat="40.466202" lon="-6.115719">
        <ele>1193.083</ele>
        <time>2021-05-13T11:33:01Z</time>
      </trkpt>
      <trkpt lat="40.464745" lon="-6.114926">
        <ele>1177.288</ele>
        <time>2021-05-13T11:33:22Z</time>
      </trkpt>
      <trkpt lat="40.464301" lon="-6.113951">
        <ele>1161.635</ele>
        <time>2021-05-13T11:33:51Z</time>
      </trkpt>
      <trkpt lat="40.464210" lon="-6.114172">
        <ele>1170.528</ele>
        <time>2021-05-13T11:33:57Z</time>
      </trkpt>
      <trkpt lat="40.464936" lon="-6.115454">
        <ele>1164.917</ele>
        <time>2021-05-13T11:41:15Z</time>
      </trkpt>
      <trkpt lat="40.465920" lon="-6.116222">
        <ele>1163.124</ele>
        <time>2021-05-13T11:41:30Z</time>
      </trkpt>
      <trkpt lat="40.467000" lon="-6.118632">
        <ele>1154.221</ele>
        <time>2021-05-13T11:41:52Z</time>
      </trkpt>
      <trkpt lat="40.468199" lon="-6.119573">
        <ele>1135.292</ele>
        <time>2021-05-13T11:42:20Z</time>
      </trkpt>
      <trkpt lat="40.468050" lon="-6.119704">
        <ele>1127.747</ele>
        <time>2021-05-13T11:42:25Z</time>
      </trkpt>
      <trkpt lat="40.467654" lon="-6.119148">
        <ele>1123.729</ele>
        <time>2021-05-13T11:42:34Z</time>
      </trkpt>
      <trkpt lat="40.466765" lon="-6.118905">
        <ele>1122.221</ele>
        <time>2021-05-13T11:42:47Z</time>
      </trkpt>
      <trkpt lat="40.465899" lon="-6.117533">
        <ele>1119.508</ele>
        <time>2021-05-13T11:43:07Z</time>
      </trkpt>
      <trkpt lat="40.464968" lon="-6.116882">
        <ele>1102.281</ele>
        <time>2021-05-13T11:43:18Z</time>
      </trkpt>
      <trkpt lat="40.464020" lon="-6.116919">
        <ele>1092.386</ele>
        <time>2021-05-13T11:43:29Z</time>
      </trkpt>
      <trkpt lat="40.463799" lon="-6.116548">
        <ele>1089.443</ele>
        <time>2021-05-13T11:43:36Z</time>
      </trkpt>
      <trkpt lat="40.464068" lon="-6.117122">
        <ele>1086.386</ele>
        <time>2021-05-13T11:43:45Z</time>
      </trkpt>
      <trkpt lat="40.465302" lon="-6.117485">
        <ele>1067.945</ele>
        <time>2021-05-13T11:44:00Z</time>
      </trkpt>
      <trkpt lat="40.466245" lon="-6.119657">
        <ele>1061.032</ele>
        <time>2021-05-13T11:44:19Z</time>
      </trkpt>
      <trkpt lat="40.467241" lon="-6.120382">
        <ele>1053.619</ele>
        <time>2021-05-13T11:44:33Z</time>
      </trkpt>
      <trkpt lat="40.465958" lon="-6.119837">
        <ele>1039.070</ele>
        <time>2021-05-13T11:44:55Z</time>
      </trkpt>
      <trkpt lat="40.464983" lon="-6.118321">
        <ele>1031.927</ele>
        <time>2021-05-13T11:45:13Z</time>
      </trkpt>
      <trkpt lat="40.463487" lon="-6.118380">
        <ele>1020.468</ele>
        <time>2021-05-13T11:45:30Z</time>
      </trkpt>
      <trkpt lat="40.462884" lon="-6.117920">
        <ele>1011.414</ele>
        <time>2021-05-13T11:45:46Z</time>
      </trkpt>
      <trkpt lat="40.463260" lon="-6.118404">
        <ele>1009.508</ele>
        <time>2021-05-13T11:46:47Z</time>
      </trkpt>
      <trkpt lat="40.464693" lon="-6.118910">
        <ele>1000.819</ele>
        <time>2021-05-13T11:47:06Z</time>
      </trkpt>
      <trkpt lat="40.465212" lon="-6.120460">
        <ele>989.854</ele>
        <time>2021-05-13T11:47:20Z</time>
      </trkpt>
      <trkpt lat="40.466268" lon="-6.121347">
        <ele>988.631</ele>
        <time>2021-05-13T11:47:36Z</time>
      </trkpt>
      <trkpt lat="40.464839" lon="-6.120619">
        <ele>985.764</ele>
        <time>2021-05-13T11:47:56Z</time>
      </trkpt>
      <trkpt lat="40.464235" lon="-6.119729">
        <ele>974.963</ele>
        <time>2021-05-13T11:48:06Z</time>
      </trkpt>
      <trkpt lat="40.463170" lon="-6.119779">
        <ele>958.930</ele>
        <time>2021-05-13T11:48:17Z</time>
      </trkpt>
      <trkpt lat="40.462475" lon="-6.119489">
        <ele>958.687</ele>
        <time>2021-05-13T11:48:24Z</time>
      </trkpt>
      <trkpt lat="40.461959" lon="-6.118885">
        <ele>950.418</ele>
        <time>2021-05-13T11:48:31Z</time>
      </trkpt>
      <trkpt lat="40.461798" lon="-6.117996">
        <ele>941.582</ele>
        <time>2021-05-13T11:48:44Z</time>
      </trkpt>
      <trkpt lat="40.461858" lon="-6.118867">
        <ele>929.143</ele>
        <time>2021-05-13T11:48:56Z</time>
      </trkpt>
      <trkpt lat="40.462796" lon="-6.120230">
        <ele>925.417</ele>
        <time>2021-05-13T11:49:13Z</time>
      </trkpt>
      <trkpt lat="40.463869" lon="-6.120668">
        <ele>916.208</ele>
        <time>2021-05-13T11:49:25Z</time>
      </trkpt>
      <trkpt lat="40.464034" lon="-6.121358">
        <ele>914.025</ele>
        <time>2021-05-13T11:49:32Z</time>
      </trkpt>
      <trkpt lat="40.464390" lon="-6.121589">
        <ele>911.860</ele>
        <time>2021-05-13T11:49:38Z</time>
      </trkpt>
      <trkpt lat="40.464226" lon="-6.121787">
        <ele>908.027</ele>
        <time>2021-05-13T11:49:44Z</time>
      </trkpt>
      <trkpt lat="40.463435" lon="-6.121039">
        <ele>897.140</ele>
        <time>2021-05-13T11:49:57Z</time>
      </trkpt>
      <trkpt lat="40.462529" lon="-6.120859">
        <ele>898.239</ele>
        <time>2021-05-13T11:50:09Z</time>
      </trkpt>
      <trkpt lat="40.461741" lon="-6.120256">
        <ele>891.766</ele>
        <time>2021-05-13T11:50:20Z</time>
      </trkpt>
      <trkpt lat="40.461016" lon="-6.119258">
        <ele>882.923</ele>
        <time>2021-05-13T11:50:33Z</time>
      </trkpt>
      <trkpt lat="40.460950" lon="-6.118545">
        <ele>881.934</ele>
        <time>2021-05-13T11:50:43Z</time>
      </trkpt>
      <trkpt lat="40.458441" lon="-6.118339">
        <ele>871.978</ele>
        <time>2021-05-13T11:51:12Z</time>
      </trkpt>
      <trkpt lat="40.458039" lon="-6.118039">
        <ele>870.133</ele>
        <time>2021-05-13T11:51:17Z</time>
      </trkpt>
      <trkpt lat="40.457498" lon="-6.116974">
        <ele>857.726</ele>
        <time>2021-05-13T11:51:27Z</time>
      </trkpt>
      <trkpt lat="40.456845" lon="-6.114296">
        <ele>843.208</ele>
        <time>2021-05-13T11:51:52Z</time>
      </trkpt>
      <trkpt lat="40.456536" lon="-6.114314">
        <ele>838.894</ele>
        <time>2021-05-13T11:51:56Z</time>
      </trkpt>
      <trkpt lat="40.455641" lon="-6.115178">
        <ele>831.729</ele>
        <time>2021-05-13T11:52:08Z</time>
      </trkpt>
      <trkpt lat="40.455019" lon="-6.115173">
        <ele>826.766</ele>
        <time>2021-05-13T11:52:17Z</time>
      </trkpt>
      <trkpt lat="40.455202" lon="-6.115394">
        <ele>822.269</ele>
        <time>2021-05-13T11:52:22Z</time>
      </trkpt>
      <trkpt lat="40.456508" lon="-6.115266">
        <ele>815.648</ele>
        <time>2021-05-13T11:52:39Z</time>
      </trkpt>
      <trkpt lat="40.456977" lon="-6.119130">
        <ele>794.325</ele>
        <time>2021-05-13T11:53:10Z</time>
      </trkpt>
      <trkpt lat="40.458655" lon="-6.121342">
        <ele>778.742</ele>
        <time>2021-05-13T11:53:34Z</time>
      </trkpt>
      <trkpt lat="40.458882" lon="-6.122111">
        <ele>774.363</ele>
        <time>2021-05-13T11:53:41Z</time>
      </trkpt>
      <trkpt lat="40.457941" lon="-6.123174">
        <ele>767.421</ele>
        <time>2021-05-13T11:53:54Z</time>
      </trkpt>
      <trkpt lat="40.456468" lon="-6.122433">
        <ele>756.841</ele>
        <time>2021-05-13T11:54:12Z</time>
      </trkpt>
      <trkpt lat="40.456310" lon="-6.125284">
        <ele>730.905</ele>
        <time>2021-05-13T11:54:35Z</time>
      </trkpt>
      <trkpt lat="40.455274" lon="-6.128518">
        <ele>710.008</ele>
        <time>2021-05-13T11:54:59Z</time>
      </trkpt>
      <trkpt lat="40.454109" lon="-6.130137">
        <ele>696.019</ele>
        <time>2021-05-13T11:55:17Z</time>
      </trkpt>
      <trkpt lat="40.453907" lon="-6.131531">
        <ele>678.674</ele>
        <time>2021-05-13T11:58:42Z</time>
      </trkpt>
      <trkpt lat="40.454035" lon="-6.131198">
        <ele>685.821</ele>
        <time>2021-05-13T11:58:57Z</time>
      </trkpt>
      <trkpt lat="40.455795" lon="-6.130029">
        <ele>679.554</ele>
        <time>2021-05-13T11:59:36Z</time>
      </trkpt>
      <trkpt lat="40.455949" lon="-6.130170">
        <ele>682.433</ele>
        <time>2021-05-13T11:59:39Z</time>
      </trkpt>
      <trkpt lat="40.455889" lon="-6.131218">
        <ele>674.880</ele>
        <time>2021-05-13T11:59:49Z</time>
      </trkpt>
      <trkpt lat="40.456192" lon="-6.132715">
        <ele>661.117</ele>
        <time>2021-05-13T12:00:03Z</time>
      </trkpt>
      <trkpt lat="40.457142" lon="-6.133372">
        <ele>650.588</ele>
        <time>2021-05-13T12:00:38Z</time>
      </trkpt>
      <trkpt lat="40.458102" lon="-6.133511">
        <ele>653.413</ele>
        <time>2021-05-13T12:00:49Z</time>
      </trkpt>
      <trkpt lat="40.457696" lon="-6.135019">
        <ele>647.643</ele>
        <time>2021-05-13T12:01:05Z</time>
      </trkpt>
      <trkpt lat="40.458380" lon="-6.136323">
        <ele>627.207</ele>
        <time>2021-05-13T12:01:18Z</time>
      </trkpt>
      <trkpt lat="40.459040" lon="-6.139732">
        <ele>600.108</ele>
        <time>2021-05-13T12:01:48Z</time>
      </trkpt>
      <trkpt lat="40.458801" lon="-6.140422">
        <ele>593.638</ele>
        <time>2021-05-13T12:01:57Z</time>
      </trkpt>
      <trkpt lat="40.459136" lon="-6.142445">
        <ele>586.913</ele>
        <time>2021-05-13T12:03:31Z</time>
      </trkpt>
      <trkpt lat="40.459671" lon="-6.142716">
        <ele>592.310</ele>
        <time>2021-05-13T12:04:23Z</time>
      </trkpt>
      <trkpt lat="40.459156" lon="-6.142387">
        <ele>591.043</ele>
        <time>2021-05-13T12:11:21Z</time>
      </trkpt>
      <trkpt lat="40.458416" lon="-6.139917">
        <ele>590.472</ele>
        <time>2021-05-13T12:14:07Z</time>
      </trkpt>
      <trkpt lat="40.458574" lon="-6.139665">
        <ele>594.519</ele>
        <time>2021-05-13T12:14:23Z</time>
      </trkpt>
      <trkpt lat="40.458424" lon="-6.139864">
        <ele>595.336</ele>
        <time>2021-05-13T12:15:36Z</time>
      </trkpt>
      <trkpt lat="40.458740" lon="-6.141075">
        <ele>591.057</ele>
        <time>2021-05-13T12:16:15Z</time>
      </trkpt>
      <trkpt lat="40.458802" lon="-6.139435">
        <ele>592.092</ele>
        <time>2021-05-13T12:16:52Z</time>
      </trkpt>
      <trkpt lat="40.458533" lon="-6.138232">
        <ele>596.973</ele>
        <time>2021-05-13T12:17:10Z</time>
      </trkpt>
      <trkpt lat="40.456441" lon="-6.134915">
        <ele>581.520</ele>
        <time>2021-05-13T12:18:07Z</time>
      </trkpt>
      <trkpt lat="40.455889" lon="-6.134534">
        <ele>579.808</ele>
        <time>2021-05-13T12:18:19Z</time>
      </trkpt>
      <trkpt lat="40.454832" lon="-6.134391">
        <ele>578.886</ele>
        <time>2021-05-13T12:18:38Z</time>
      </trkpt>
      <trkpt lat="40.452501" lon="-6.135322">
        <ele>571.091</ele>
        <time>2021-05-13T12:19:20Z</time>
      </trkpt>
      <trkpt lat="40.451893" lon="-6.136011">
        <ele>560.118</ele>
        <time>2021-05-13T12:19:43Z</time>
      </trkpt>
      <trkpt lat="40.451080" lon="-6.136133">
        <ele>562.111</ele>
        <time>2021-05-13T12:19:57Z</time>
      </trkpt>
      <trkpt lat="40.450367" lon="-6.137704">
        <ele>556.610</ele>
        <time>2021-05-13T12:20:26Z</time>
      </trkpt>
      <trkpt lat="40.450132" lon="-6.139067">
        <ele>562.557</ele>
        <time>2021-05-13T12:20:51Z</time>
      </trkpt>
      <trkpt lat="40.449874" lon="-6.139391">
        <ele>564.474</ele>
        <time>2021-05-13T12:20:58Z</time>
      </trkpt>
      <trkpt lat="40.448374" lon="-6.139625">
        <ele>553.675</ele>
        <time>2021-05-13T12:21:25Z</time>
      </trkpt>
      <trkpt lat="40.446980" lon="-6.140460">
        <ele>549.039</ele>
        <time>2021-05-13T12:21:45Z</time>
      </trkpt>
      <trkpt lat="40.445841" lon="-6.141521">
        <ele>545.801</ele>
        <time>2021-05-13T12:22:07Z</time>
      </trkpt>
      <trkpt lat="40.444178" lon="-6.142450">
        <ele>544.821</ele>
        <time>2021-05-13T12:22:30Z</time>
      </trkpt>
      <trkpt lat="40.443384" lon="-6.142492">
        <ele>538.108</ele>
        <time>2021-05-13T12:22:41Z</time>
      </trkpt>
      <trkpt lat="40.442906" lon="-6.143393">
        <ele>538.790</ele>
        <time>2021-05-13T12:24:20Z</time>
      </trkpt>
      <trkpt lat="40.443080" lon="-6.143329">
        <ele>542.645</ele>
        <time>2021-05-13T12:24:56Z</time>
      </trkpt>
      <trkpt lat="40.441715" lon="-6.144913">
        <ele>540.382</ele>
        <time>2021-05-13T12:26:21Z</time>
      </trkpt>
      <trkpt lat="40.440972" lon="-6.144584">
        <ele>545.275</ele>
        <time>2021-05-13T12:26:38Z</time>
      </trkpt>
      <trkpt lat="40.439080" lon="-6.145483">
        <ele>538.534</ele>
        <time>2021-05-13T12:27:03Z</time>
      </trkpt>
      <trkpt lat="40.438366" lon="-6.147231">
        <ele>529.311</ele>
        <time>2021-05-13T12:27:37Z</time>
      </trkpt>
      <trkpt lat="40.437039" lon="-6.148043">
        <ele>536.218</ele>
        <time>2021-05-13T12:28:27Z</time>
      </trkpt>
      <trkpt lat="40.435756" lon="-6.150232">
        <ele>530.559</ele>
        <time>2021-05-13T12:29:07Z</time>
      </trkpt>
      <trkpt lat="40.434497" lon="-6.151053">
        <ele>528.239</ele>
        <time>2021-05-13T12:29:32Z</time>
      </trkpt>
      <trkpt lat="40.433381" lon="-6.150666">
        <ele>523.201</ele>
        <time>2021-05-13T12:29:50Z</time>
      </trkpt>
      <trkpt lat="40.432495" lon="-6.149603">
        <ele>517.621</ele>
        <time>2021-05-13T12:30:10Z</time>
      </trkpt>
      <trkpt lat="40.431640" lon="-6.149812">
        <ele>519.008</ele>
        <time>2021-05-13T12:30:30Z</time>
      </trkpt>
      <trkpt lat="40.431365" lon="-6.149263">
        <ele>516.590</ele>
        <time>2021-05-13T12:30:38Z</time>
      </trkpt>
      <trkpt lat="40.431330" lon="-6.148510">
        <ele>514.015</ele>
        <time>2021-05-13T12:30:47Z</time>
      </trkpt>
      <trkpt lat="40.430320" lon="-6.149044">
        <ele>512.042</ele>
        <time>2021-05-13T12:31:11Z</time>
      </trkpt>
      <trkpt lat="40.427560" lon="-6.147779">
        <ele>504.035</ele>
        <time>2021-05-13T12:31:58Z</time>
      </trkpt>
      <trkpt lat="40.426838" lon="-6.146514">
        <ele>486.224</ele>
        <time>2021-05-13T12:32:22Z</time>
      </trkpt>
      <trkpt lat="40.425977" lon="-6.146314">
        <ele>473.431</ele>
        <time>2021-05-13T12:32:44Z</time>
      </trkpt>
      <trkpt lat="40.425944" lon="-6.145976">
        <ele>475.788</ele>
        <time>2021-05-13T12:39:19Z</time>
      </trkpt>
      <trkpt lat="40.426932" lon="-6.148886">
        <ele>449.159</ele>
        <time>2021-05-13T13:02:49Z</time>
      </trkpt>
      <trkpt lat="40.426993" lon="-6.151527">
        <ele>459.417</ele>
        <time>2021-05-13T13:04:36Z</time>
      </trkpt>
      <trkpt lat="40.428198" lon="-6.153416">
        <ele>477.287</ele>
        <time>2021-05-13T13:06:04Z</time>
      </trkpt>
      <trkpt lat="40.428204" lon="-6.155082">
        <ele>484.715</ele>
        <time>2021-05-13T13:06:58Z</time>
      </trkpt>
      <trkpt lat="40.427964" lon="-6.155891">
        <ele>497.608</ele>
        <time>2021-05-13T13:07:25Z</time>
      </trkpt>
      <trkpt lat="40.428049" lon="-6.156322">
        <ele>494.668</ele>
        <time>2021-05-13T13:07:37Z</time>
      </trkpt>
      <trkpt lat="40.429136" lon="-6.156585">
        <ele>491.143</ele>
        <time>2021-05-13T13:08:11Z</time>
      </trkpt>
      <trkpt lat="40.430734" lon="-6.157912">
        <ele>491.330</ele>
        <time>2021-05-13T13:08:59Z</time>
      </trkpt>
      <trkpt lat="40.431278" lon="-6.158869">
        <ele>495.653</ele>
        <time>2021-05-13T13:09:19Z</time>
      </trkpt>
      <trkpt lat="40.432054" lon="-6.159385">
        <ele>493.992</ele>
        <time>2021-05-13T13:09:35Z</time>
      </trkpt>
      <trkpt lat="40.433277" lon="-6.161634">
        <ele>490.569</ele>
        <time>2021-05-13T13:10:12Z</time>
      </trkpt>
      <trkpt lat="40.434688" lon="-6.161899">
        <ele>487.556</ele>
        <time>2021-05-13T13:10:50Z</time>
      </trkpt>
      <trkpt lat="40.436134" lon="-6.162610">
        <ele>501.587</ele>
        <time>2021-05-13T13:11:49Z</time>
      </trkpt>
      <trkpt lat="40.435754" lon="-6.163484">
        <ele>512.466</ele>
        <time>2021-05-13T13:12:10Z</time>
      </trkpt>
      <trkpt lat="40.435755" lon="-6.164443">
        <ele>503.229</ele>
        <time>2021-05-13T13:12:21Z</time>
      </trkpt>
      <trkpt lat="40.437504" lon="-6.167115">
        <ele>492.621</ele>
        <time>2021-05-13T13:13:28Z</time>
      </trkpt>
      <trkpt lat="40.438425" lon="-6.169249">
        <ele>508.408</ele>
        <time>2021-05-13T13:14:49Z</time>
      </trkpt>
      <trkpt lat="40.440223" lon="-6.170227">
        <ele>517.483</ele>
        <time>2021-05-13T13:16:13Z</time>
      </trkpt>
      <trkpt lat="40.440693" lon="-6.172190">
        <ele>521.588</ele>
        <time>2021-05-13T13:17:07Z</time>
      </trkpt>
      <trkpt lat="40.441505" lon="-6.172970">
        <ele>520.335</ele>
        <time>2021-05-13T13:17:41Z</time>
      </trkpt>
      <trkpt lat="40.442240" lon="-6.172874">
        <ele>524.078</ele>
        <time>2021-05-13T13:18:07Z</time>
      </trkpt>
      <trkpt lat="40.441747" lon="-6.173967">
        <ele>536.517</ele>
        <time>2021-05-13T13:18:43Z</time>
      </trkpt>
      <trkpt lat="40.442083" lon="-6.176372">
        <ele>547.424</ele>
        <time>2021-05-13T13:20:05Z</time>
      </trkpt>
      <trkpt lat="40.442423" lon="-6.176434">
        <ele>552.021</ele>
        <time>2021-05-13T13:20:20Z</time>
      </trkpt>
      <trkpt lat="40.443531" lon="-6.175808">
        <ele>552.852</ele>
        <time>2021-05-13T13:21:10Z</time>
      </trkpt>
      <trkpt lat="40.443309" lon="-6.177164">
        <ele>556.588</ele>
        <time>2021-05-13T13:21:50Z</time>
      </trkpt>
      <trkpt lat="40.443499" lon="-6.177826">
        <ele>551.324</ele>
        <time>2021-05-13T13:22:08Z</time>
      </trkpt>
      <trkpt lat="40.444320" lon="-6.178631">
        <ele>555.126</ele>
        <time>2021-05-13T13:22:44Z</time>
      </trkpt>
      <trkpt lat="40.444642" lon="-6.179371">
        <ele>561.008</ele>
        <time>2021-05-13T13:23:09Z</time>
      </trkpt>
      <trkpt lat="40.445395" lon="-6.179863">
        <ele>576.655</ele>
        <time>2021-05-13T13:23:37Z</time>
      </trkpt>
      <trkpt lat="40.445450" lon="-6.180575">
        <ele>568.780</ele>
        <time>2021-05-13T13:23:55Z</time>
      </trkpt>
      <trkpt lat="40.446548" lon="-6.181374">
        <ele>576.237</ele>
        <time>2021-05-13T13:24:45Z</time>
      </trkpt>
      <trkpt lat="40.445788" lon="-6.182407">
        <ele>575.630</ele>
        <time>2021-05-13T13:25:34Z</time>
      </trkpt>
      <trkpt lat="40.446068" lon="-6.183203">
        <ele>570.259</ele>
        <time>2021-05-13T13:26:02Z</time>
      </trkpt>
      <trkpt lat="40.448584" lon="-6.185894">
        <ele>576.926</ele>
        <time>2021-05-13T13:35:29Z</time>
      </trkpt>
      <trkpt lat="40.449212" lon="-6.185739">
        <ele>588.923</ele>
        <time>2021-05-13T13:36:31Z</time>
      </trkpt>
      <trkpt lat="40.449434" lon="-6.187305">
        <ele>585.794</ele>
        <time>2021-05-13T13:37:19Z</time>
      </trkpt>
      <trkpt lat="40.450061" lon="-6.187214">
        <ele>589.687</ele>
        <time>2021-05-13T13:38:01Z</time>
      </trkpt>
      <trkpt lat="40.449428" lon="-6.187381">
        <ele>598.342</ele>
        <time>2021-05-13T13:38:28Z</time>
      </trkpt>
      <trkpt lat="40.449536" lon="-6.187796">
        <ele>597.826</ele>
        <time>2021-05-13T13:38:59Z</time>
      </trkpt>
      <trkpt lat="40.449260" lon="-6.187997">
        <ele>590.308</ele>
        <time>2021-05-13T13:39:50Z</time>
      </trkpt>
      <trkpt lat="40.449476" lon="-6.187391">
        <ele>587.485</ele>
        <time>2021-05-13T13:40:37Z</time>
      </trkpt>
      <trkpt lat="40.450934" lon="-6.186723">
        <ele>597.090</ele>
        <time>2021-05-13T13:41:32Z</time>
      </trkpt>
      <trkpt lat="40.450981" lon="-6.187006">
        <ele>600.247</ele>
        <time>2021-05-13T13:45:51Z</time>
      </trkpt>
      <trkpt lat="40.451486" lon="-6.186207">
        <ele>589.370</ele>
        <time>2021-05-13T13:46:17Z</time>
      </trkpt>
      <trkpt lat="40.451878" lon="-6.186139">
        <ele>588.749</ele>
        <time>2021-05-13T13:46:33Z</time>
      </trkpt>
      <trkpt lat="40.451714" lon="-6.187142">
        <ele>591.886</ele>
        <time>2021-05-13T13:47:07Z</time>
      </trkpt>
      <trkpt lat="40.451236" lon="-6.188149">
        <ele>597.573</ele>
        <time>2021-05-13T13:48:25Z</time>
      </trkpt>
      <trkpt lat="40.451156" lon="-6.189119">
        <ele>602.014</ele>
        <time>2021-05-13T13:48:54Z</time>
      </trkpt>
      <trkpt lat="40.451659" lon="-6.189607">
        <ele>614.239</ele>
        <time>2021-05-13T13:49:23Z</time>
      </trkpt>
      <trkpt lat="40.451852" lon="-6.190439">
        <ele>614.901</ele>
        <time>2021-05-13T13:49:49Z</time>
      </trkpt>
      <trkpt lat="40.451626" lon="-6.191758">
        <ele>612.121</ele>
        <time>2021-05-13T13:50:19Z</time>
      </trkpt>
      <trkpt lat="40.452996" lon="-6.193286">
        <ele>613.708</ele>
        <time>2021-05-13T13:50:58Z</time>
      </trkpt>
      <trkpt lat="40.452957" lon="-6.194318">
        <ele>612.180</ele>
        <time>2021-05-13T13:51:13Z</time>
      </trkpt>
      <trkpt lat="40.453730" lon="-6.195814">
        <ele>613.455</ele>
        <time>2021-05-13T13:51:39Z</time>
      </trkpt>
      <trkpt lat="40.455151" lon="-6.194743">
        <ele>606.012</ele>
        <time>2021-05-13T13:52:11Z</time>
      </trkpt>
      <trkpt lat="40.454843" lon="-6.196517">
        <ele>602.935</ele>
        <time>2021-05-13T13:52:40Z</time>
      </trkpt>
      <trkpt lat="40.455089" lon="-6.198409">
        <ele>603.054</ele>
        <time>2021-05-13T13:53:15Z</time>
      </trkpt>
      <trkpt lat="40.455443" lon="-6.198802">
        <ele>608.321</ele>
        <time>2021-05-13T13:53:25Z</time>
      </trkpt>
      <trkpt lat="40.456665" lon="-6.199282">
        <ele>610.358</ele>
        <time>2021-05-13T13:54:01Z</time>
      </trkpt>
      <trkpt lat="40.456575" lon="-6.199860">
        <ele>613.189</ele>
        <time>2021-05-13T13:54:14Z</time>
      </trkpt>
      <trkpt lat="40.457900" lon="-6.200857">
        <ele>629.891</ele>
        <time>2021-05-13T13:55:04Z</time>
      </trkpt>
      <trkpt lat="40.458519" lon="-6.202918">
        <ele>627.681</ele>
        <time>2021-05-13T13:56:00Z</time>
      </trkpt>
      <trkpt lat="40.460881" lon="-6.204382">
        <ele>634.719</ele>
        <time>2021-05-13T13:57:02Z</time>
      </trkpt>
      <trkpt lat="40.461485" lon="-6.207594">
        <ele>641.108</ele>
        <time>2021-05-13T13:59:33Z</time>
      </trkpt>
      <trkpt lat="40.460837" lon="-6.208253">
        <ele>640.966</ele>
        <time>2021-05-13T13:59:52Z</time>
      </trkpt>
      <trkpt lat="40.460443" lon="-6.210500">
        <ele>644.071</ele>
        <time>2021-05-13T14:00:39Z</time>
      </trkpt>
      <trkpt lat="40.461658" lon="-6.212181">
        <ele>641.058</ele>
        <time>2021-05-13T14:01:19Z</time>
      </trkpt>
      <trkpt lat="40.461419" lon="-6.213559">
        <ele>645.121</ele>
        <time>2021-05-13T14:01:53Z</time>
      </trkpt>
      <trkpt lat="40.461643" lon="-6.214953">
        <ele>646.690</ele>
        <time>2021-05-13T14:02:19Z</time>
      </trkpt>
      <trkpt lat="40.462109" lon="-6.215170">
        <ele>643.977</ele>
        <time>2021-05-13T14:02:31Z</time>
      </trkpt>
      <trkpt lat="40.462548" lon="-6.214314">
        <ele>645.314</ele>
        <time>2021-05-13T14:02:46Z</time>
      </trkpt>
      <trkpt lat="40.462779" lon="-6.214304">
        <ele>646.465</ele>
        <time>2021-05-13T14:02:50Z</time>
      </trkpt>
      <trkpt lat="40.463072" lon="-6.216066">
        <ele>649.767</ele>
        <time>2021-05-13T14:03:26Z</time>
      </trkpt>
      <trkpt lat="40.463533" lon="-6.216725">
        <ele>653.181</ele>
        <time>2021-05-13T14:03:52Z</time>
      </trkpt>
      <trkpt lat="40.464330" lon="-6.217177">
        <ele>660.319</ele>
        <time>2021-05-13T14:04:29Z</time>
      </trkpt>
      <trkpt lat="40.464174" lon="-6.218259">
        <ele>661.808</ele>
        <time>2021-05-13T14:05:01Z</time>
      </trkpt>
      <trkpt lat="40.465148" lon="-6.218688">
        <ele>662.313</ele>
        <time>2021-05-13T14:05:37Z</time>
      </trkpt>
      <trkpt lat="40.464342" lon="-6.219902">
        <ele>672.218</ele>
        <time>2021-05-13T14:06:39Z</time>
      </trkpt>
      <trkpt lat="40.464579" lon="-6.221472">
        <ele>685.175</ele>
        <time>2021-05-13T14:08:36Z</time>
      </trkpt>
      <trkpt lat="40.465025" lon="-6.222576">
        <ele>691.188</ele>
        <time>2021-05-13T14:09:32Z</time>
      </trkpt>
      <trkpt lat="40.465751" lon="-6.223533">
        <ele>694.857</ele>
        <time>2021-05-13T14:10:33Z</time>
      </trkpt>
      <trkpt lat="40.465629" lon="-6.224230">
        <ele>701.554</ele>
        <time>2021-05-13T14:10:58Z</time>
      </trkpt>
      <trkpt lat="40.466136" lon="-6.225229">
        <ele>702.961</ele>
        <time>2021-05-13T14:12:08Z</time>
      </trkpt>
      <trkpt lat="40.468591" lon="-6.226091">
        <ele>729.842</ele>
        <time>2021-05-13T14:16:54Z</time>
      </trkpt>
      <trkpt lat="40.468519" lon="-6.226548">
        <ele>724.858</ele>
        <time>2021-05-13T14:17:16Z</time>
      </trkpt>
      <trkpt lat="40.469056" lon="-6.228485">
        <ele>727.452</ele>
        <time>2021-05-13T14:19:39Z</time>
      </trkpt>
      <trkpt lat="40.467454" lon="-6.227207">
        <ele>735.217</ele>
        <time>2021-05-13T14:20:49Z</time>
      </trkpt>
      <trkpt lat="40.467034" lon="-6.227148">
        <ele>730.608</ele>
        <time>2021-05-13T14:21:04Z</time>
      </trkpt>
      <trkpt lat="40.466673" lon="-6.227518">
        <ele>734.712</ele>
        <time>2021-05-13T14:42:51Z</time>
      </trkpt>
      <trkpt lat="40.466005" lon="-6.229603">
        <ele>742.587</ele>
        <time>2021-05-13T14:44:17Z</time>
      </trkpt>
      <trkpt lat="40.466583" lon="-6.230271">
        <ele>750.454</ele>
        <time>2021-05-13T14:45:01Z</time>
      </trkpt>
      <trkpt lat="40.466738" lon="-6.231280">
        <ele>758.157</ele>
        <time>2021-05-13T14:45:43Z</time>
      </trkpt>
      <trkpt lat="40.467010" lon="-6.231546">
        <ele>759.356</ele>
        <time>2021-05-13T14:46:00Z</time>
      </trkpt>
      <trkpt lat="40.468166" lon="-6.231404">
        <ele>773.183</ele>
        <time>2021-05-13T14:46:58Z</time>
      </trkpt>
      <trkpt lat="40.469327" lon="-6.230781">
        <ele>791.890</ele>
        <time>2021-05-13T14:48:03Z</time>
      </trkpt>
      <trkpt lat="40.471748" lon="-6.231217">
        <ele>800.781</ele>
        <time>2021-05-13T14:49:54Z</time>
      </trkpt>
      <trkpt lat="40.472068" lon="-6.232237">
        <ele>788.786</ele>
        <time>2021-05-13T14:50:30Z</time>
      </trkpt>
      <trkpt lat="40.471942" lon="-6.232471">
        <ele>794.060</ele>
        <time>2021-05-13T14:50:42Z</time>
      </trkpt>
      <trkpt lat="40.471473" lon="-6.232135">
        <ele>797.526</ele>
        <time>2021-05-13T14:51:04Z</time>
      </trkpt>
      <trkpt lat="40.470381" lon="-6.232773">
        <ele>803.508</ele>
        <time>2021-05-13T14:51:56Z</time>
      </trkpt>
      <trkpt lat="40.470361" lon="-6.233742">
        <ele>797.215</ele>
        <time>2021-05-13T14:52:28Z</time>
      </trkpt>
      <trkpt lat="40.469371" lon="-6.233745">
        <ele>803.110</ele>
        <time>2021-05-13T14:52:50Z</time>
      </trkpt>
      <trkpt lat="40.467950" lon="-6.235025">
        <ele>796.937</ele>
        <time>2021-05-13T14:53:21Z</time>
      </trkpt>
      <trkpt lat="40.467394" lon="-6.237115">
        <ele>789.730</ele>
        <time>2021-05-13T14:53:52Z</time>
      </trkpt>
      <trkpt lat="40.467439" lon="-6.238510">
        <ele>783.159</ele>
        <time>2021-05-13T14:54:09Z</time>
      </trkpt>
      <trkpt lat="40.467686" lon="-6.238753">
        <ele>785.246</ele>
        <time>2021-05-13T14:54:14Z</time>
      </trkpt>
      <trkpt lat="40.469118" lon="-6.238833">
        <ele>787.993</ele>
        <time>2021-05-13T14:54:32Z</time>
      </trkpt>
      <trkpt lat="40.469753" lon="-6.239557">
        <ele>782.994</ele>
        <time>2021-05-13T14:54:44Z</time>
      </trkpt>
      <trkpt lat="40.468953" lon="-6.239725">
        <ele>776.019</ele>
        <time>2021-05-13T14:54:55Z</time>
      </trkpt>
      <trkpt lat="40.468294" lon="-6.240432">
        <ele>772.609</ele>
        <time>2021-05-13T14:55:04Z</time>
      </trkpt>
      <trkpt lat="40.467332" lon="-6.243871">
        <ele>750.819</ele>
        <time>2021-05-13T14:55:34Z</time>
      </trkpt>
      <trkpt lat="40.466366" lon="-6.242033">
        <ele>732.908</ele>
        <time>2021-05-13T14:56:03Z</time>
      </trkpt>
      <trkpt lat="40.465540" lon="-6.242467">
        <ele>733.188</ele>
        <time>2021-05-13T14:56:17Z</time>
      </trkpt>
      <trkpt lat="40.465144" lon="-6.243489">
        <ele>736.423</ele>
        <time>2021-05-13T14:56:29Z</time>
      </trkpt>
      <trkpt lat="40.464143" lon="-6.244054">
        <ele>731.420</ele>
        <time>2021-05-13T14:56:43Z</time>
      </trkpt>
      <trkpt lat="40.463619" lon="-6.244809">
        <ele>727.273</ele>
        <time>2021-05-13T14:56:52Z</time>
      </trkpt>
      <trkpt lat="40.463207" lon="-6.244965">
        <ele>722.772</ele>
        <time>2021-05-13T14:56:58Z</time>
      </trkpt>
      <trkpt lat="40.462158" lon="-6.246225">
        <ele>714.399</ele>
        <time>2021-05-13T14:57:19Z</time>
      </trkpt>
      <trkpt lat="40.462094" lon="-6.247434">
        <ele>712.596</ele>
        <time>2021-05-13T14:57:35Z</time>
      </trkpt>
      <trkpt lat="40.461492" lon="-6.247787">
        <ele>708.527</ele>
        <time>2021-05-13T14:57:54Z</time>
      </trkpt>
      <trkpt lat="40.460078" lon="-6.249485">
        <ele>724.992</ele>
        <time>2021-05-13T14:59:50Z</time>
      </trkpt>
      <trkpt lat="40.460069" lon="-6.250251">
        <ele>722.873</ele>
        <time>2021-05-13T15:00:12Z</time>
      </trkpt>
      <trkpt lat="40.459507" lon="-6.250528">
        <ele>731.220</ele>
        <time>2021-05-13T15:00:36Z</time>
      </trkpt>
      <trkpt lat="40.459032" lon="-6.251764">
        <ele>730.008</ele>
        <time>2021-05-13T15:01:22Z</time>
      </trkpt>
      <trkpt lat="40.459316" lon="-6.252967">
        <ele>732.496</ele>
        <time>2021-05-13T15:01:50Z</time>
      </trkpt>
      <trkpt lat="40.458613" lon="-6.253484">
        <ele>742.041</ele>
        <time>2021-05-13T15:02:32Z</time>
      </trkpt>
      <trkpt lat="40.457480" lon="-6.255575">
        <ele>753.038</ele>
        <time>2021-05-13T15:04:13Z</time>
      </trkpt>
      <trkpt lat="40.457521" lon="-6.256419">
        <ele>756.121</ele>
        <time>2021-05-13T15:07:08Z</time>
      </trkpt>
      <trkpt lat="40.457336" lon="-6.255991">
        <ele>753.330</ele>
        <time>2021-05-13T15:10:14Z</time>
      </trkpt>
      <trkpt lat="40.457469" lon="-6.255605">
        <ele>758.317</ele>
        <time>2021-05-13T15:11:01Z</time>
      </trkpt>
      <trkpt lat="40.457126" lon="-6.255681">
        <ele>756.714</ele>
        <time>2021-05-13T15:12:58Z</time>
      </trkpt>
      <trkpt lat="40.457284" lon="-6.255125">
        <ele>749.455</ele>
        <time>2021-05-13T15:13:24Z</time>
      </trkpt>
      <trkpt lat="40.457063" lon="-6.255751">
        <ele>739.297</ele>
        <time>2021-05-13T15:19:38Z</time>
      </trkpt>
      <trkpt lat="40.458308" lon="-6.252121">
        <ele>791.523</ele>
        <time>2021-05-13T15:25:01Z</time>
      </trkpt>
      <trkpt lat="40.456533" lon="-6.251295">
        <ele>797.825</ele>
        <time>2021-05-13T15:27:18Z</time>
      </trkpt>
      <trkpt lat="40.455775" lon="-6.251796">
        <ele>807.008</ele>
        <time>2021-05-13T15:30:12Z</time>
      </trkpt>
      <trkpt lat="40.455243" lon="-6.251141">
        <ele>817.226</ele>
        <time>2021-05-13T15:30:59Z</time>
      </trkpt>
      <trkpt lat="40.455612" lon="-6.250925">
        <ele>816.621</ele>
        <time>2021-05-13T15:31:21Z</time>
      </trkpt>
      <trkpt lat="40.456317" lon="-6.249694">
        <ele>833.938</ele>
        <time>2021-05-13T15:32:31Z</time>
      </trkpt>
      <trkpt lat="40.455695" lon="-6.249325">
        <ele>841.661</ele>
        <time>2021-05-13T15:33:15Z</time>
      </trkpt>
      <trkpt lat="40.455339" lon="-6.248762">
        <ele>844.740</ele>
        <time>2021-05-13T15:33:50Z</time>
      </trkpt>
      <trkpt lat="40.455781" lon="-6.248327">
        <ele>842.527</ele>
        <time>2021-05-13T15:34:28Z</time>
      </trkpt>
      <trkpt lat="40.456597" lon="-6.248112">
        <ele>874.624</ele>
        <time>2021-05-13T15:35:14Z</time>
      </trkpt>
      <trkpt lat="40.456675" lon="-6.247495">
        <ele>883.355</ele>
        <time>2021-05-13T15:35:47Z</time>
      </trkpt>
      <trkpt lat="40.456360" lon="-6.246080">
        <ele>872.135</ele>
        <time>2021-05-13T15:37:05Z</time>
      </trkpt>
      <trkpt lat="40.457408" lon="-6.246192">
        <ele>899.386</ele>
        <time>2021-05-13T15:38:09Z</time>
      </trkpt>
      <trkpt lat="40.458172" lon="-6.245364">
        <ele>898.114</ele>
        <time>2021-05-13T15:39:00Z</time>
      </trkpt>
      <trkpt lat="40.458368" lon="-6.244344">
        <ele>898.108</ele>
        <time>2021-05-13T15:39:47Z</time>
      </trkpt>
      <trkpt lat="40.459336" lon="-6.244003">
        <ele>926.130</ele>
        <time>2021-05-13T15:40:35Z</time>
      </trkpt>
      <trkpt lat="40.459843" lon="-6.243485">
        <ele>932.885</ele>
        <time>2021-05-13T15:41:15Z</time>
      </trkpt>
      <trkpt lat="40.460033" lon="-6.242708">
        <ele>924.472</ele>
        <time>2021-05-13T15:41:51Z</time>
      </trkpt>
      <trkpt lat="40.459798" lon="-6.242178">
        <ele>919.285</ele>
        <time>2021-05-13T15:42:37Z</time>
      </trkpt>
      <trkpt lat="40.459199" lon="-6.243204">
        <ele>934.084</ele>
        <time>2021-05-13T15:43:51Z</time>
      </trkpt>
      <trkpt lat="40.457560" lon="-6.243695">
        <ele>955.141</ele>
        <time>2021-05-13T15:45:46Z</time>
      </trkpt>
      <trkpt lat="40.458360" lon="-6.242861">
        <ele>952.188</ele>
        <time>2021-05-13T15:47:02Z</time>
      </trkpt>
      <trkpt lat="40.458513" lon="-6.242395">
        <ele>959.329</ele>
        <time>2021-05-13T15:47:35Z</time>
      </trkpt>
      <trkpt lat="40.456639" lon="-6.243145">
        <ele>986.268</ele>
        <time>2021-05-13T15:52:07Z</time>
      </trkpt>
      <trkpt lat="40.454786" lon="-6.243080">
        <ele>1006.442</ele>
        <time>2021-05-13T15:54:15Z</time>
      </trkpt>
      <trkpt lat="40.451882" lon="-6.247118">
        <ele>1039.226</ele>
        <time>2021-05-13T15:57:52Z</time>
      </trkpt>
      <trkpt lat="40.452016" lon="-6.248696">
        <ele>1040.408</ele>
        <time>2021-05-13T15:58:38Z</time>
      </trkpt>
      <trkpt lat="40.451617" lon="-6.250453">
        <ele>1048.583</ele>
        <time>2021-05-13T15:59:22Z</time>
      </trkpt>
      <trkpt lat="40.451734" lon="-6.251887">
        <ele>1049.718</ele>
        <time>2021-05-13T15:59:58Z</time>
      </trkpt>
      <trkpt lat="40.451567" lon="-6.253892">
        <ele>1049.165</ele>
        <time>2021-05-13T16:00:52Z</time>
      </trkpt>
      <trkpt lat="40.450571" lon="-6.256896">
        <ele>1073.548</ele>
        <time>2021-05-13T16:02:28Z</time>
      </trkpt>
      <trkpt lat="40.450688" lon="-6.258267">
        <ele>1066.987</ele>
        <time>2021-05-13T16:03:04Z</time>
      </trkpt>
      <trkpt lat="40.449356" lon="-6.261176">
        <ele>1090.794</ele>
        <time>2021-05-13T16:04:43Z</time>
      </trkpt>
      <trkpt lat="40.449051" lon="-6.262517">
        <ele>1083.461</ele>
        <time>2021-05-13T16:05:36Z</time>
      </trkpt>
      <trkpt lat="40.448059" lon="-6.263549">
        <ele>1080.782</ele>
        <time>2021-05-13T16:06:35Z</time>
      </trkpt>
      <trkpt lat="40.447726" lon="-6.265805">
        <ele>1106.259</ele>
        <time>2021-05-13T16:08:14Z</time>
      </trkpt>
      <trkpt lat="40.447257" lon="-6.264679">
        <ele>1097.103</ele>
        <time>2021-05-13T16:09:11Z</time>
      </trkpt>
      <trkpt lat="40.447536" lon="-6.267372">
        <ele>1116.523</ele>
        <time>2021-05-13T16:10:51Z</time>
      </trkpt>
      <trkpt lat="40.447967" lon="-6.268056">
        <ele>1117.508</ele>
        <time>2021-05-13T16:11:25Z</time>
      </trkpt>
      <trkpt lat="40.448367" lon="-6.267795">
        <ele>1118.652</ele>
        <time>2021-05-13T16:12:56Z</time>
      </trkpt>
      <trkpt lat="40.447944" lon="-6.268268">
        <ele>1118.957</ele>
        <time>2021-05-13T16:14:17Z</time>
      </trkpt>
      <trkpt lat="40.448166" lon="-6.267848">
        <ele>1123.694</ele>
        <time>2021-05-13T16:16:24Z</time>
      </trkpt>
      <trkpt lat="40.448070" lon="-6.268246">
        <ele>1121.827</ele>
        <time>2021-05-13T16:17:23Z</time>
      </trkpt>
      <trkpt lat="40.449015" lon="-6.269903">
        <ele>1127.666</ele>
        <time>2021-05-13T16:20:03Z</time>
      </trkpt>
      <trkpt lat="40.449152" lon="-6.269725">
        <ele>1127.633</ele>
        <time>2021-05-13T16:20:34Z</time>
      </trkpt>
      <trkpt lat="40.453960" lon="-6.274178">
        <ele>1242.630</ele>
        <time>2021-05-13T16:22:28Z</time>
      </trkpt>
      <trkpt lat="40.455021" lon="-6.274871">
        <ele>1243.951</ele>
        <time>2021-05-13T16:22:59Z</time>
      </trkpt>
      <trkpt lat="40.456080" lon="-6.276551">
        <ele>1249.528</ele>
        <time>2021-05-13T16:24:00Z</time>
      </trkpt>
      <trkpt lat="40.456424" lon="-6.278021">
        <ele>1258.489</ele>
        <time>2021-05-13T16:24:44Z</time>
      </trkpt>
      <trkpt lat="40.455642" lon="-6.282628">
        <ele>1242.317</ele>
        <time>2021-05-13T16:26:10Z</time>
      </trkpt>
      <trkpt lat="40.455416" lon="-6.285332">
        <ele>1233.808</ele>
        <time>2021-05-13T16:26:51Z</time>
      </trkpt>
      <trkpt lat="40.454468" lon="-6.286976">
        <ele>1220.849</ele>
        <time>2021-05-13T16:27:12Z</time>
      </trkpt>
      <trkpt lat="40.452505" lon="-6.289095">
        <ele>1192.444</ele>
        <time>2021-05-13T16:27:43Z</time>
      </trkpt>
      <trkpt lat="40.451999" lon="-6.290103">
        <ele>1182.181</ele>
        <time>2021-05-13T16:27:52Z</time>
      </trkpt>
      <trkpt lat="40.452009" lon="-6.290855">
        <ele>1179.154</ele>
        <time>2021-05-13T16:27:57Z</time>
      </trkpt>
      <trkpt lat="40.452356" lon="-6.291802">
        <ele>1177.743</ele>
        <time>2021-05-13T16:28:07Z</time>
      </trkpt>
      <trkpt lat="40.452197" lon="-6.295010">
        <ele>1169.510</ele>
        <time>2021-05-13T16:28:39Z</time>
      </trkpt>
      <trkpt lat="40.451289" lon="-6.298118">
        <ele>1153.097</ele>
        <time>2021-05-13T16:29:17Z</time>
      </trkpt>
      <trkpt lat="40.450004" lon="-6.300973">
        <ele>1133.898</ele>
        <time>2021-05-13T16:29:43Z</time>
      </trkpt>
      <trkpt lat="40.450191" lon="-6.302389">
        <ele>1134.174</ele>
        <time>2021-05-13T16:29:55Z</time>
      </trkpt>
      <trkpt lat="40.449978" lon="-6.303704">
        <ele>1133.156</ele>
        <time>2021-05-13T16:30:05Z</time>
      </trkpt>
      <trkpt lat="40.450066" lon="-6.304812">
        <ele>1130.821</ele>
        <time>2021-05-13T16:30:16Z</time>
      </trkpt>
      <trkpt lat="40.449796" lon="-6.304806">
        <ele>1129.308</ele>
        <time>2021-05-13T16:30:20Z</time>
      </trkpt>
      <trkpt lat="40.449767" lon="-6.302318">
        <ele>1121.294</ele>
        <time>2021-05-13T16:30:42Z</time>
      </trkpt>
      <trkpt lat="40.449028" lon="-6.301132">
        <ele>1111.949</ele>
        <time>2021-05-13T16:30:55Z</time>
      </trkpt>
      <trkpt lat="40.450106" lon="-6.296123">
        <ele>1081.966</ele>
        <time>2021-05-13T16:31:43Z</time>
      </trkpt>
      <trkpt lat="40.450240" lon="-6.292537">
        <ele>1065.919</ele>
        <time>2021-05-13T16:32:16Z</time>
      </trkpt>
      <trkpt lat="40.449700" lon="-6.292132">
        <ele>1066.378</ele>
        <time>2021-05-13T16:34:00Z</time>
      </trkpt>
      <trkpt lat="40.449089" lon="-6.290354">
        <ele>1061.495</ele>
        <time>2021-05-13T16:35:40Z</time>
      </trkpt>
      <trkpt lat="40.447518" lon="-6.290323">
        <ele>1059.642</ele>
        <time>2021-05-13T16:35:59Z</time>
      </trkpt>
      <trkpt lat="40.446900" lon="-6.289819">
        <ele>1056.653</ele>
        <time>2021-05-13T16:36:09Z</time>
      </trkpt>
      <trkpt lat="40.446783" lon="-6.289271">
        <ele>1050.554</ele>
        <time>2021-05-13T16:36:14Z</time>
      </trkpt>
      <trkpt lat="40.446968" lon="-6.288693">
        <ele>1047.356</ele>
        <time>2021-05-13T16:36:19Z</time>
      </trkpt>
      <trkpt lat="40.448088" lon="-6.287995">
        <ele>1035.711</ele>
        <time>2021-05-13T16:36:34Z</time>
      </trkpt>
      <trkpt lat="40.448008" lon="-6.287647">
        <ele>1032.408</ele>
        <time>2021-05-13T16:36:39Z</time>
      </trkpt>
      <trkpt lat="40.446224" lon="-6.288660">
        <ele>1000.192</ele>
        <time>2021-05-13T16:37:03Z</time>
      </trkpt>
      <trkpt lat="40.445770" lon="-6.289725">
        <ele>990.057</ele>
        <time>2021-05-13T16:37:13Z</time>
      </trkpt>
      <trkpt lat="40.446184" lon="-6.290319">
        <ele>986.384</ele>
        <time>2021-05-13T16:37:20Z</time>
      </trkpt>
      <trkpt lat="40.446838" lon="-6.290566">
        <ele>982.577</ele>
        <time>2021-05-13T16:37:29Z</time>
      </trkpt>
      <trkpt lat="40.446449" lon="-6.290878">
        <ele>988.256</ele>
        <time>2021-05-13T16:37:47Z</time>
      </trkpt>
      <trkpt lat="40.445403" lon="-6.290325">
        <ele>991.553</ele>
        <time>2021-05-13T16:38:07Z</time>
      </trkpt>
      <trkpt lat="40.445143" lon="-6.289787">
        <ele>988.690</ele>
        <time>2021-05-13T16:38:14Z</time>
      </trkpt>
      <trkpt lat="40.445451" lon="-6.288532">
        <ele>982.981</ele>
        <time>2021-05-13T16:38:28Z</time>
      </trkpt>
      <trkpt lat="40.446060" lon="-6.287538">
        <ele>974.584</ele>
        <time>2021-05-13T16:38:40Z</time>
      </trkpt>
      <trkpt lat="40.447280" lon="-6.286402">
        <ele>969.707</ele>
        <time>2021-05-13T16:39:01Z</time>
      </trkpt>
      <trkpt lat="40.448295" lon="-6.286222">
        <ele>962.317</ele>
        <time>2021-05-13T16:39:46Z</time>
      </trkpt>
      <trkpt lat="40.448338" lon="-6.285355">
        <ele>957.608</ele>
        <time>2021-05-13T16:40:03Z</time>
      </trkpt>
      <trkpt lat="40.448737" lon="-6.284633">
        <ele>953.065</ele>
        <time>2021-05-13T16:40:18Z</time>
      </trkpt>
      <trkpt lat="40.448548" lon="-6.284636">
        <ele>952.250</ele>
        <time>2021-05-13T16:40:21Z</time>
      </trkpt>
      <trkpt lat="40.448005" lon="-6.286023">
        <ele>943.177</ele>
        <time>2021-05-13T16:40:39Z</time>
      </trkpt>
      <trkpt lat="40.446952" lon="-6.285934">
        <ele>939.140</ele>
        <time>2021-05-13T16:40:52Z</time>
      </trkpt>
      <trkpt lat="40.446382" lon="-6.286598">
        <ele>938.419</ele>
        <time>2021-05-13T16:41:01Z</time>
      </trkpt>
      <trkpt lat="40.445483" lon="-6.286761">
        <ele>935.596</ele>
        <time>2021-05-13T16:41:11Z</time>
      </trkpt>
      <trkpt lat="40.444862" lon="-6.287915">
        <ele>926.533</ele>
        <time>2021-05-13T16:41:22Z</time>
      </trkpt>
      <trkpt lat="40.443817" lon="-6.288606">
        <ele>919.164</ele>
        <time>2021-05-13T16:41:35Z</time>
      </trkpt>
      <trkpt lat="40.443773" lon="-6.289941">
        <ele>909.388</ele>
        <time>2021-05-13T16:41:46Z</time>
      </trkpt>
      <trkpt lat="40.443405" lon="-6.290700">
        <ele>906.124</ele>
        <time>2021-05-13T16:41:55Z</time>
      </trkpt>
      <trkpt lat="40.443113" lon="-6.290348">
        <ele>901.026</ele>
        <time>2021-05-13T16:42:00Z</time>
      </trkpt>
      <trkpt lat="40.443614" lon="-6.289424">
        <ele>894.808</ele>
        <time>2021-05-13T16:42:10Z</time>
      </trkpt>
      <trkpt lat="40.443199" lon="-6.287855">
        <ele>882.475</ele>
        <time>2021-05-13T16:42:24Z</time>
      </trkpt>
      <trkpt lat="40.444235" lon="-6.287317">
        <ele>877.380</ele>
        <time>2021-05-13T16:42:37Z</time>
      </trkpt>
      <trkpt lat="40.444414" lon="-6.285713">
        <ele>874.227</ele>
        <time>2021-05-13T16:42:50Z</time>
      </trkpt>
      <trkpt lat="40.445558" lon="-6.285423">
        <ele>867.490</ele>
        <time>2021-05-13T16:43:03Z</time>
      </trkpt>
      <trkpt lat="40.445561" lon="-6.285107">
        <ele>863.419</ele>
        <time>2021-05-13T16:43:07Z</time>
      </trkpt>
      <trkpt lat="40.443867" lon="-6.285393">
        <ele>848.366</ele>
        <time>2021-05-13T16:43:26Z</time>
      </trkpt>
      <trkpt lat="40.443484" lon="-6.286566">
        <ele>838.653</ele>
        <time>2021-05-13T16:43:37Z</time>
      </trkpt>
      <trkpt lat="40.441670" lon="-6.286834">
        <ele>821.694</ele>
        <time>2021-05-13T16:43:56Z</time>
      </trkpt>
      <trkpt lat="40.440476" lon="-6.287409">
        <ele>808.282</ele>
        <time>2021-05-13T16:44:16Z</time>
      </trkpt>
      <trkpt lat="40.440564" lon="-6.287100">
        <ele>805.943</ele>
        <time>2021-05-13T16:44:41Z</time>
      </trkpt>
      <trkpt lat="40.441256" lon="-6.286843">
        <ele>806.517</ele>
        <time>2021-05-13T16:44:54Z</time>
      </trkpt>
      <trkpt lat="40.441503" lon="-6.286191">
        <ele>799.708</ele>
        <time>2021-05-13T16:45:02Z</time>
      </trkpt>
      <trkpt lat="40.441077" lon="-6.286675">
        <ele>794.215</ele>
        <time>2021-05-13T16:45:12Z</time>
      </trkpt>
      <trkpt lat="40.439936" lon="-6.286722">
        <ele>788.190</ele>
        <time>2021-05-13T16:45:33Z</time>
      </trkpt>
      <trkpt lat="40.439879" lon="-6.287403">
        <ele>782.677</ele>
        <time>2021-05-13T16:45:51Z</time>
      </trkpt>
      <trkpt lat="40.440172" lon="-6.288270">
        <ele>782.220</ele>
        <time>2021-05-13T16:46:32Z</time>
      </trkpt>
      <trkpt lat="40.439961" lon="-6.287538">
        <ele>790.149</ele>
        <time>2021-05-13T16:46:55Z</time>
      </trkpt>
      <trkpt lat="40.439893" lon="-6.287893">
        <ele>784.626</ele>
        <time>2021-05-13T16:47:57Z</time>
      </trkpt>
      <trkpt lat="40.439977" lon="-6.287218">
        <ele>791.813</ele>
        <time>2021-05-13T16:50:02Z</time>
      </trkpt>
      <trkpt lat="40.439988" lon="-6.287872">
        <ele>793.914</ele>
        <time>2021-05-13T16:52:29Z</time>
      </trkpt>
      <trkpt lat="40.439668" lon="-6.286429">
        <ele>788.265</ele>
        <time>2021-05-13T16:54:11Z</time>
      </trkpt>
      <trkpt lat="40.440926" lon="-6.286166">
        <ele>781.568</ele>
        <time>2021-05-13T16:54:29Z</time>
      </trkpt>
      <trkpt lat="40.441271" lon="-6.285623">
        <ele>780.914</ele>
        <time>2021-05-13T16:54:36Z</time>
      </trkpt>
      <trkpt lat="40.441921" lon="-6.285433">
        <ele>778.108</ele>
        <time>2021-05-13T16:54:44Z</time>
      </trkpt>
      <trkpt lat="40.442329" lon="-6.284960">
        <ele>769.643</ele>
        <time>2021-05-13T16:54:53Z</time>
      </trkpt>
      <trkpt lat="40.441694" lon="-6.285414">
        <ele>762.768</ele>
        <time>2021-05-13T16:55:05Z</time>
      </trkpt>
      <trkpt lat="40.441029" lon="-6.285496">
        <ele>755.695</ele>
        <time>2021-05-13T16:55:14Z</time>
      </trkpt>
      <trkpt lat="40.440633" lon="-6.285857">
        <ele>750.438</ele>
        <time>2021-05-13T16:55:20Z</time>
      </trkpt>
      <trkpt lat="40.439776" lon="-6.285800">
        <ele>747.047</ele>
        <time>2021-05-13T16:55:30Z</time>
      </trkpt>
      <trkpt lat="40.439997" lon="-6.285681">
        <ele>748.184</ele>
        <time>2021-05-13T16:55:44Z</time>
      </trkpt>
      <trkpt lat="40.438434" lon="-6.285705">
        <ele>742.461</ele>
        <time>2021-05-13T16:57:11Z</time>
      </trkpt>
      <trkpt lat="40.437818" lon="-6.285327">
        <ele>740.362</ele>
        <time>2021-05-13T16:57:20Z</time>
      </trkpt>
      <trkpt lat="40.437367" lon="-6.285404">
        <ele>737.713</ele>
        <time>2021-05-13T16:57:28Z</time>
      </trkpt>
      <trkpt lat="40.438005" lon="-6.286214">
        <ele>731.943</ele>
        <time>2021-05-13T16:57:41Z</time>
      </trkpt>
      <trkpt lat="40.438321" lon="-6.287431">
        <ele>730.907</ele>
        <time>2021-05-13T16:57:52Z</time>
      </trkpt>
      <trkpt lat="40.438234" lon="-6.288967">
        <ele>722.208</ele>
        <time>2021-05-13T16:58:07Z</time>
      </trkpt>
      <trkpt lat="40.437946" lon="-6.289014">
        <ele>717.978</ele>
        <time>2021-05-13T16:58:12Z</time>
      </trkpt>
      <trkpt lat="40.437791" lon="-6.288635">
        <ele>713.593</ele>
        <time>2021-05-13T17:00:35Z</time>
      </trkpt>
      <trkpt lat="40.438127" lon="-6.287508">
        <ele>710.110</ele>
        <time>2021-05-13T17:00:54Z</time>
      </trkpt>
      <trkpt lat="40.437644" lon="-6.286313">
        <ele>705.243</ele>
        <time>2021-05-13T17:01:12Z</time>
      </trkpt>
      <trkpt lat="40.436568" lon="-6.286148">
        <ele>701.992</ele>
        <time>2021-05-13T17:01:25Z</time>
      </trkpt>
      <trkpt lat="40.435848" lon="-6.286392">
        <ele>699.449</ele>
        <time>2021-05-13T17:01:36Z</time>
      </trkpt>
      <trkpt lat="40.434957" lon="-6.285966">
        <ele>687.766</ele>
        <time>2021-05-13T17:02:02Z</time>
      </trkpt>
      <trkpt lat="40.434310" lon="-6.286724">
        <ele>689.837</ele>
        <time>2021-05-13T17:02:36Z</time>
      </trkpt>
      <trkpt lat="40.433860" lon="-6.286695">
        <ele>702.219</ele>
        <time>2021-05-13T17:02:59Z</time>
      </trkpt>
      <trkpt lat="40.432837" lon="-6.285926">
        <ele>722.109</ele>
        <time>2021-05-13T17:04:05Z</time>
      </trkpt>
      <trkpt lat="40.432675" lon="-6.285292">
        <ele>718.019</ele>
        <time>2021-05-13T17:04:24Z</time>
      </trkpt>
      <trkpt lat="40.432805" lon="-6.284226">
        <ele>716.408</ele>
        <time>2021-05-13T17:04:44Z</time>
      </trkpt>
      <trkpt lat="40.432581" lon="-6.283763">
        <ele>714.068</ele>
        <time>2021-05-13T17:04:52Z</time>
      </trkpt>
      <trkpt lat="40.430965" lon="-6.283723">
        <ele>710.033</ele>
        <time>2021-05-13T17:05:20Z</time>
      </trkpt>
      <trkpt lat="40.430505" lon="-6.283445">
        <ele>709.790</ele>
        <time>2021-05-13T17:05:27Z</time>
      </trkpt>
      <trkpt lat="40.429276" lon="-6.281480">
        <ele>691.243</ele>
        <time>2021-05-13T17:05:51Z</time>
      </trkpt>
      <trkpt lat="40.429293" lon="-6.279433">
        <ele>677.652</ele>
        <time>2021-05-13T17:06:11Z</time>
      </trkpt>
      <trkpt lat="40.428445" lon="-6.278861">
        <ele>670.829</ele>
        <time>2021-05-13T17:06:22Z</time>
      </trkpt>
      <trkpt lat="40.428099" lon="-6.277693">
        <ele>662.296</ele>
        <time>2021-05-13T17:06:33Z</time>
      </trkpt>
      <trkpt lat="40.426861" lon="-6.275774">
        <ele>647.667</ele>
        <time>2021-05-13T17:07:04Z</time>
      </trkpt>
      <trkpt lat="40.425899" lon="-6.275291">
        <ele>642.487</ele>
        <time>2021-05-13T17:09:10Z</time>
      </trkpt>
      <trkpt lat="40.425438" lon="-6.274711">
        <ele>642.542</ele>
        <time>2021-05-13T17:09:26Z</time>
      </trkpt>
      <trkpt lat="40.425373" lon="-6.274270">
        <ele>643.726</ele>
        <time>2021-05-13T17:10:34Z</time>
      </trkpt>
      <trkpt lat="40.425043" lon="-6.274322">
        <ele>647.508</ele>
        <time>2021-05-13T17:12:08Z</time>
      </trkpt>
      <trkpt lat="40.425329" lon="-6.274656">
        <ele>647.645</ele>
        <time>2021-05-13T17:12:52Z</time>
      </trkpt>
      <trkpt lat="40.425224" lon="-6.274278">
        <ele>647.680</ele>
        <time>2021-05-13T17:13:38Z</time>
      </trkpt>
      <trkpt lat="40.425262" lon="-6.274576">
        <ele>647.667</ele>
        <time>2021-05-13T17:14:44Z</time>
      </trkpt>
      <trkpt lat="40.424956" lon="-6.274079">
        <ele>640.130</ele>
        <time>2021-05-13T17:16:13Z</time>
      </trkpt>
      <trkpt lat="40.425328" lon="-6.274338">
        <ele>642.559</ele>
        <time>2021-05-13T17:17:08Z</time>
      </trkpt>
      <trkpt lat="40.425226" lon="-6.273898">
        <ele>651.336</ele>
        <time>2021-05-13T17:17:59Z</time>
      </trkpt>
      <trkpt lat="40.425211" lon="-6.274548">
        <ele>667.373</ele>
        <time>2021-05-13T17:19:52Z</time>
      </trkpt>
      <trkpt lat="40.425140" lon="-6.274279">
        <ele>679.334</ele>
        <time>2021-05-13T17:20:22Z</time>
      </trkpt>
      <trkpt lat="40.425324" lon="-6.274336">
        <ele>683.318</ele>
        <time>2021-05-13T17:20:47Z</time>
      </trkpt>
      <trkpt lat="40.425364" lon="-6.273997">
        <ele>687.398</ele>
        <time>2021-05-13T17:20:49Z</time>
      </trkpt>
      <trkpt lat="40.425217" lon="-6.274277">
        <ele>691.317</ele>
        <time>2021-05-13T17:21:03Z</time>
      </trkpt>
      <trkpt lat="40.425075" lon="-6.272886">
        <ele>707.308</ele>
        <time>2021-05-13T17:21:37Z</time>
      </trkpt>
      <trkpt lat="40.425198" lon="-6.274028">
        <ele>711.318</ele>
        <time>2021-05-13T17:22:06Z</time>
      </trkpt>
      <trkpt lat="40.425215" lon="-6.273160">
        <ele>722.513</ele>
        <time>2021-05-13T17:22:15Z</time>
      </trkpt>
      <trkpt lat="40.425177" lon="-6.274428">
        <ele>725.550</ele>
        <time>2021-05-13T17:22:53Z</time>
      </trkpt>
      <trkpt lat="40.425569" lon="-6.273975">
        <ele>727.293</ele>
        <time>2021-05-13T17:58:27Z</time>
      </trkpt>
      <trkpt lat="40.424842" lon="-6.273204">
        <ele>675.232</ele>
        <time>2021-05-13T17:58:49Z</time>
      </trkpt>
      <trkpt lat="40.423888" lon="-6.273489">
        <ele>646.759</ele>
        <time>2021-05-13T17:59:15Z</time>
      </trkpt>
      <trkpt lat="40.423265" lon="-6.272069">
        <ele>640.476</ele>
        <time>2021-05-13T17:59:41Z</time>
      </trkpt>
      <trkpt lat="40.422659" lon="-6.271309">
        <ele>643.457</ele>
        <time>2021-05-13T17:59:59Z</time>
      </trkpt>
      <trkpt lat="40.421598" lon="-6.270980">
        <ele>633.866</ele>
        <time>2021-05-13T18:00:24Z</time>
      </trkpt>
      <trkpt lat="40.419038" lon="-6.268997">
        <ele>624.829</ele>
        <time>2021-05-13T18:02:05Z</time>
      </trkpt>
      <trkpt lat="40.417941" lon="-6.269619">
        <ele>623.321</ele>
        <time>2021-05-13T18:02:37Z</time>
      </trkpt>
      <trkpt lat="40.417364" lon="-6.269569">
        <ele>623.708</ele>
        <time>2021-05-13T18:02:48Z</time>
      </trkpt>
      <trkpt lat="40.416783" lon="-6.269029">
        <ele>623.033</ele>
        <time>2021-05-13T18:03:03Z</time>
      </trkpt>
      <trkpt lat="40.414561" lon="-6.265416">
        <ele>630.288</ele>
        <time>2021-05-13T18:04:59Z</time>
      </trkpt>
      <trkpt lat="40.413709" lon="-6.265051">
        <ele>652.075</ele>
        <time>2021-05-13T18:05:44Z</time>
      </trkpt>
      <trkpt lat="40.412102" lon="-6.264915">
        <ele>663.758</ele>
        <time>2021-05-13T18:07:01Z</time>
      </trkpt>
      <trkpt lat="40.411470" lon="-6.264427">
        <ele>659.777</ele>
        <time>2021-05-13T18:07:15Z</time>
      </trkpt>
      <trkpt lat="40.410260" lon="-6.260919">
        <ele>650.294</ele>
        <time>2021-05-13T18:07:58Z</time>
      </trkpt>
      <trkpt lat="40.409015" lon="-6.260275">
        <ele>642.561</ele>
        <time>2021-05-13T18:08:15Z</time>
      </trkpt>
      <trkpt lat="40.408858" lon="-6.259931">
        <ele>642.362</ele>
        <time>2021-05-13T18:08:19Z</time>
      </trkpt>
      <trkpt lat="40.409037" lon="-6.259436">
        <ele>641.659</ele>
        <time>2021-05-13T18:08:24Z</time>
      </trkpt>
      <trkpt lat="40.409701" lon="-6.259136">
        <ele>640.603</ele>
        <time>2021-05-13T18:08:33Z</time>
      </trkpt>
      <trkpt lat="40.409851" lon="-6.258773">
        <ele>640.223</ele>
        <time>2021-05-13T18:08:37Z</time>
      </trkpt>
      <trkpt lat="40.409342" lon="-6.255278">
        <ele>624.608</ele>
        <time>2021-05-13T18:09:32Z</time>
      </trkpt>
      <trkpt lat="40.408794" lon="-6.254756">
        <ele>619.092</ele>
        <time>2021-05-13T18:09:43Z</time>
      </trkpt>
      <trkpt lat="40.407116" lon="-6.255419">
        <ele>613.227</ele>
        <time>2021-05-13T18:10:39Z</time>
      </trkpt>
      <trkpt lat="40.405864" lon="-6.254724">
        <ele>623.614</ele>
        <time>2021-05-13T18:11:10Z</time>
      </trkpt>
      <trkpt lat="40.405604" lon="-6.254066">
        <ele>628.187</ele>
        <time>2021-05-13T18:11:21Z</time>
      </trkpt>
      <trkpt lat="40.405551" lon="-6.251667">
        <ele>634.546</ele>
        <time>2021-05-13T18:12:02Z</time>
      </trkpt>
      <trkpt lat="40.404987" lon="-6.250643">
        <ele>634.673</ele>
        <time>2021-05-13T18:12:41Z</time>
      </trkpt>
      <trkpt lat="40.404268" lon="-6.249928">
        <ele>638.290</ele>
        <time>2021-05-13T18:13:07Z</time>
      </trkpt>
      <trkpt lat="40.405192" lon="-6.247460">
        <ele>626.191</ele>
        <time>2021-05-13T18:14:39Z</time>
      </trkpt>
      <trkpt lat="40.405575" lon="-6.247480">
        <ele>621.842</ele>
        <time>2021-05-13T18:14:48Z</time>
      </trkpt>
      <trkpt lat="40.406293" lon="-6.248247">
        <ele>617.222</ele>
        <time>2021-05-13T18:15:08Z</time>
      </trkpt>
      <trkpt lat="40.407035" lon="-6.246032">
        <ele>591.314</ele>
        <time>2021-05-13T18:17:14Z</time>
      </trkpt>
      <trkpt lat="40.407541" lon="-6.245379">
        <ele>589.008</ele>
        <time>2021-05-13T18:18:15Z</time>
      </trkpt>
      <trkpt lat="40.408535" lon="-6.244949">
        <ele>584.431</ele>
        <time>2021-05-13T18:18:59Z</time>
      </trkpt>
      <trkpt lat="40.409199" lon="-6.243805">
        <ele>569.176</ele>
        <time>2021-05-13T18:19:54Z</time>
      </trkpt>
      <trkpt lat="40.409401" lon="-6.242637">
        <ele>568.413</ele>
        <time>2021-05-13T18:20:22Z</time>
      </trkpt>
      <trkpt lat="40.408673" lon="-6.240099">
        <ele>573.476</ele>
        <time>2021-05-13T18:21:29Z</time>
      </trkpt>
      <trkpt lat="40.407336" lon="-6.237553">
        <ele>463.755</ele>
        <time>2021-05-14T10:38:25Z</time>
      </trkpt>
      <trkpt lat="40.407138" lon="-6.238305">
        <ele>466.807</ele>
        <time>2021-05-14T10:39:03Z</time>
      </trkpt>
      <trkpt lat="40.407619" lon="-6.236307">
        <ele>471.717</ele>
        <time>2021-05-14T10:40:27Z</time>
      </trkpt>
      <trkpt lat="40.408225" lon="-6.235410">
        <ele>468.908</ele>
        <time>2021-05-14T10:40:44Z</time>
      </trkpt>
      <trkpt lat="40.408385" lon="-6.235758">
        <ele>469.172</ele>
        <time>2021-05-14T10:40:55Z</time>
      </trkpt>
      <trkpt lat="40.408127" lon="-6.236760">
        <ele>467.597</ele>
        <time>2021-05-14T10:41:15Z</time>
      </trkpt>
      <trkpt lat="40.408014" lon="-6.238288">
        <ele>469.954</ele>
        <time>2021-05-14T10:41:47Z</time>
      </trkpt>
      <trkpt lat="40.408969" lon="-6.240706">
        <ele>480.493</ele>
        <time>2021-05-14T10:42:41Z</time>
      </trkpt>
      <trkpt lat="40.409433" lon="-6.242959">
        <ele>478.459</ele>
        <time>2021-05-14T10:43:19Z</time>
      </trkpt>
      <trkpt lat="40.409292" lon="-6.243714">
        <ele>479.281</ele>
        <time>2021-05-14T10:43:31Z</time>
      </trkpt>
      <trkpt lat="40.408957" lon="-6.244324">
        <ele>480.777</ele>
        <time>2021-05-14T10:43:46Z</time>
      </trkpt>
      <trkpt lat="40.409011" lon="-6.244470">
        <ele>482.173</ele>
        <time>2021-05-14T10:44:03Z</time>
      </trkpt>
      <trkpt lat="40.408883" lon="-6.244441">
        <ele>482.733</ele>
        <time>2021-05-14T10:45:54Z</time>
      </trkpt>
      <trkpt lat="40.408385" lon="-6.245118">
        <ele>484.023</ele>
        <time>2021-05-14T10:46:21Z</time>
      </trkpt>
      <trkpt lat="40.407493" lon="-6.245405">
        <ele>494.215</ele>
        <time>2021-05-14T10:47:04Z</time>
      </trkpt>
      <trkpt lat="40.407138" lon="-6.246157">
        <ele>497.708</ele>
        <time>2021-05-14T10:47:55Z</time>
      </trkpt>
      <trkpt lat="40.406735" lon="-6.245363">
        <ele>504.090</ele>
        <time>2021-05-14T10:48:27Z</time>
      </trkpt>
      <trkpt lat="40.406209" lon="-6.245306">
        <ele>505.815</ele>
        <time>2021-05-14T10:48:43Z</time>
      </trkpt>
      <trkpt lat="40.405742" lon="-6.245505">
        <ele>504.212</ele>
        <time>2021-05-14T10:48:59Z</time>
      </trkpt>
      <trkpt lat="40.404797" lon="-6.248049">
        <ele>513.221</ele>
        <time>2021-05-14T10:50:47Z</time>
      </trkpt>
      <trkpt lat="40.403761" lon="-6.249691">
        <ele>522.737</ele>
        <time>2021-05-14T10:52:20Z</time>
      </trkpt>
      <trkpt lat="40.403893" lon="-6.250384">
        <ele>527.879</ele>
        <time>2021-05-14T10:52:43Z</time>
      </trkpt>
      <trkpt lat="40.404885" lon="-6.251128">
        <ele>533.865</ele>
        <time>2021-05-14T10:53:14Z</time>
      </trkpt>
      <trkpt lat="40.405502" lon="-6.252233">
        <ele>523.861</ele>
        <time>2021-05-14T10:55:06Z</time>
      </trkpt>
      <trkpt lat="40.405441" lon="-6.253139">
        <ele>523.634</ele>
        <time>2021-05-14T10:55:19Z</time>
      </trkpt>
      <trkpt lat="40.404942" lon="-6.254917">
        <ele>510.255</ele>
        <time>2021-05-14T10:55:42Z</time>
      </trkpt>
      <trkpt lat="40.405305" lon="-6.256521">
        <ele>503.610</ele>
        <time>2021-05-14T10:56:14Z</time>
      </trkpt>
      <trkpt lat="40.405200" lon="-6.256178">
        <ele>508.508</ele>
        <time>2021-05-14T10:57:10Z</time>
      </trkpt>
      <trkpt lat="40.404807" lon="-6.256093">
        <ele>507.480</ele>
        <time>2021-05-14T10:57:24Z</time>
      </trkpt>
      <trkpt lat="40.404523" lon="-6.256269">
        <ele>507.795</ele>
        <time>2021-05-14T10:57:34Z</time>
      </trkpt>
      <trkpt lat="40.404063" lon="-6.255810">
        <ele>508.042</ele>
        <time>2021-05-14T10:58:06Z</time>
      </trkpt>
      <trkpt lat="40.403275" lon="-6.255647">
        <ele>504.871</ele>
        <time>2021-05-14T10:58:28Z</time>
      </trkpt>
      <trkpt lat="40.403058" lon="-6.256082">
        <ele>504.867</ele>
        <time>2021-05-14T10:58:48Z</time>
      </trkpt>
      <trkpt lat="40.402814" lon="-6.256139">
        <ele>510.039</ele>
        <time>2021-05-14T10:59:21Z</time>
      </trkpt>
      <trkpt lat="40.401935" lon="-6.255548">
        <ele>512.365</ele>
        <time>2021-05-14T10:59:59Z</time>
      </trkpt>
      <trkpt lat="40.401359" lon="-6.255867">
        <ele>511.971</ele>
        <time>2021-05-14T11:04:19Z</time>
      </trkpt>
      <trkpt lat="40.401395" lon="-6.255583">
        <ele>508.545</ele>
        <time>2021-05-14T11:05:02Z</time>
      </trkpt>
      <trkpt lat="40.400272" lon="-6.257473">
        <ele>511.047</ele>
        <time>2021-05-14T11:07:39Z</time>
      </trkpt>
      <trkpt lat="40.399830" lon="-6.257900">
        <ele>515.711</ele>
        <time>2021-05-14T11:08:32Z</time>
      </trkpt>
      <trkpt lat="40.399898" lon="-6.258636">
        <ele>524.108</ele>
        <time>2021-05-14T11:09:26Z</time>
      </trkpt>
      <trkpt lat="40.399378" lon="-6.259850">
        <ele>530.381</ele>
        <time>2021-05-14T11:10:08Z</time>
      </trkpt>
      <trkpt lat="40.398802" lon="-6.260592">
        <ele>528.116</ele>
        <time>2021-05-14T11:10:38Z</time>
      </trkpt>
      <trkpt lat="40.397083" lon="-6.261877">
        <ele>534.143</ele>
        <time>2021-05-14T11:11:17Z</time>
      </trkpt>
      <trkpt lat="40.395076" lon="-6.261819">
        <ele>537.452</ele>
        <time>2021-05-14T11:12:22Z</time>
      </trkpt>
      <trkpt lat="40.392352" lon="-6.263370">
        <ele>551.048</ele>
        <time>2021-05-14T11:15:09Z</time>
      </trkpt>
      <trkpt lat="40.391417" lon="-6.264426">
        <ele>562.650</ele>
        <time>2021-05-14T11:16:12Z</time>
      </trkpt>
      <trkpt lat="40.390587" lon="-6.263961">
        <ele>572.236</ele>
        <time>2021-05-14T11:16:44Z</time>
      </trkpt>
      <trkpt lat="40.390563" lon="-6.262494">
        <ele>562.322</ele>
        <time>2021-05-14T11:18:59Z</time>
      </trkpt>
      <trkpt lat="40.389974" lon="-6.262138">
        <ele>577.461</ele>
        <time>2021-05-14T11:19:31Z</time>
      </trkpt>
      <trkpt lat="40.389823" lon="-6.261428">
        <ele>587.321</ele>
        <time>2021-05-14T11:20:07Z</time>
      </trkpt>
      <trkpt lat="40.390274" lon="-6.262117">
        <ele>596.313</ele>
        <time>2021-05-14T11:20:56Z</time>
      </trkpt>
      <trkpt lat="40.390608" lon="-6.262278">
        <ele>601.408</ele>
        <time>2021-05-14T11:21:14Z</time>
      </trkpt>
      <trkpt lat="40.390951" lon="-6.262156">
        <ele>614.443</ele>
        <time>2021-05-14T11:21:36Z</time>
      </trkpt>
      <trkpt lat="40.391297" lon="-6.261647">
        <ele>598.518</ele>
        <time>2021-05-14T11:22:08Z</time>
      </trkpt>
      <trkpt lat="40.391963" lon="-6.259873">
        <ele>602.235</ele>
        <time>2021-05-14T11:23:49Z</time>
      </trkpt>
      <trkpt lat="40.392304" lon="-6.259612">
        <ele>610.214</ele>
        <time>2021-05-14T11:24:19Z</time>
      </trkpt>
      <trkpt lat="40.392875" lon="-6.258086">
        <ele>634.970</ele>
        <time>2021-05-14T11:26:48Z</time>
      </trkpt>
      <trkpt lat="40.393899" lon="-6.258165">
        <ele>635.642</ele>
        <time>2021-05-14T11:28:11Z</time>
      </trkpt>
      <trkpt lat="40.395635" lon="-6.257609">
        <ele>657.798</ele>
        <time>2021-05-14T11:30:18Z</time>
      </trkpt>
      <trkpt lat="40.395880" lon="-6.256979">
        <ele>656.664</ele>
        <time>2021-05-14T11:30:48Z</time>
      </trkpt>
      <trkpt lat="40.395779" lon="-6.256439">
        <ele>657.378</ele>
        <time>2021-05-14T11:31:12Z</time>
      </trkpt>
      <trkpt lat="40.394120" lon="-6.255880">
        <ele>673.833</ele>
        <time>2021-05-14T11:32:59Z</time>
      </trkpt>
      <trkpt lat="40.393538" lon="-6.255868">
        <ele>675.426</ele>
        <time>2021-05-14T11:33:32Z</time>
      </trkpt>
      <trkpt lat="40.390657" lon="-6.257774">
        <ele>701.608</ele>
        <time>2021-05-14T11:36:35Z</time>
      </trkpt>
      <trkpt lat="40.390133" lon="-6.257605">
        <ele>702.514</ele>
        <time>2021-05-14T11:37:03Z</time>
      </trkpt>
      <trkpt lat="40.389551" lon="-6.257074">
        <ele>710.749</ele>
        <time>2021-05-14T11:37:36Z</time>
      </trkpt>
      <trkpt lat="40.388534" lon="-6.256855">
        <ele>716.986</ele>
        <time>2021-05-14T11:41:02Z</time>
      </trkpt>
      <trkpt lat="40.387798" lon="-6.257762">
        <ele>729.115</ele>
        <time>2021-05-14T11:49:13Z</time>
      </trkpt>
      <trkpt lat="40.386892" lon="-6.258291">
        <ele>739.491</ele>
        <time>2021-05-14T11:50:34Z</time>
      </trkpt>
      <trkpt lat="40.385916" lon="-6.257185">
        <ele>765.133</ele>
        <time>2021-05-14T11:52:39Z</time>
      </trkpt>
      <trkpt lat="40.384959" lon="-6.256610">
        <ele>780.329</ele>
        <time>2021-05-14T11:54:21Z</time>
      </trkpt>
      <trkpt lat="40.384546" lon="-6.255726">
        <ele>796.865</ele>
        <time>2021-05-14T11:55:40Z</time>
      </trkpt>
      <trkpt lat="40.384615" lon="-6.255598">
        <ele>797.482</ele>
        <time>2021-05-14T11:55:53Z</time>
      </trkpt>
      <trkpt lat="40.385162" lon="-6.256252">
        <ele>815.243</ele>
        <time>2021-05-14T11:56:59Z</time>
      </trkpt>
      <trkpt lat="40.386705" lon="-6.256274">
        <ele>826.817</ele>
        <time>2021-05-14T12:00:01Z</time>
      </trkpt>
      <trkpt lat="40.386991" lon="-6.256034">
        <ele>823.108</ele>
        <time>2021-05-14T12:00:30Z</time>
      </trkpt>
      <trkpt lat="40.386640" lon="-6.256055">
        <ele>823.795</ele>
        <time>2021-05-14T12:01:58Z</time>
      </trkpt>
      <trkpt lat="40.385464" lon="-6.255363">
        <ele>843.110</ele>
        <time>2021-05-14T12:03:33Z</time>
      </trkpt>
      <trkpt lat="40.384891" lon="-6.253876">
        <ele>850.287</ele>
        <time>2021-05-14T12:05:15Z</time>
      </trkpt>
      <trkpt lat="40.385584" lon="-6.254560">
        <ele>872.126</ele>
        <time>2021-05-14T12:06:32Z</time>
      </trkpt>
      <trkpt lat="40.386063" lon="-6.254796">
        <ele>877.062</ele>
        <time>2021-05-14T12:06:59Z</time>
      </trkpt>
      <trkpt lat="40.386679" lon="-6.254722">
        <ele>873.144</ele>
        <time>2021-05-14T12:07:21Z</time>
      </trkpt>
      <trkpt lat="40.387084" lon="-6.254241">
        <ele>871.150</ele>
        <time>2021-05-14T12:07:55Z</time>
      </trkpt>
      <trkpt lat="40.386469" lon="-6.254407">
        <ele>883.266</ele>
        <time>2021-05-14T12:13:03Z</time>
      </trkpt>
      <trkpt lat="40.384472" lon="-6.252035">
        <ele>911.381</ele>
        <time>2021-05-14T12:16:33Z</time>
      </trkpt>
      <trkpt lat="40.383449" lon="-6.251856">
        <ele>921.561</ele>
        <time>2021-05-14T12:17:51Z</time>
      </trkpt>
      <trkpt lat="40.384256" lon="-6.251598">
        <ele>944.417</ele>
        <time>2021-05-14T12:19:00Z</time>
      </trkpt>
      <trkpt lat="40.385269" lon="-6.252104">
        <ele>940.608</ele>
        <time>2021-05-14T12:19:53Z</time>
      </trkpt>
      <trkpt lat="40.386074" lon="-6.252097">
        <ele>948.495</ele>
        <time>2021-05-14T12:21:14Z</time>
      </trkpt>
      <trkpt lat="40.386259" lon="-6.251736">
        <ele>945.580</ele>
        <time>2021-05-14T12:21:43Z</time>
      </trkpt>
      <trkpt lat="40.386055" lon="-6.251894">
        <ele>942.337</ele>
        <time>2021-05-14T12:26:56Z</time>
      </trkpt>
      <trkpt lat="40.385637" lon="-6.251778">
        <ele>948.776</ele>
        <time>2021-05-14T12:28:32Z</time>
      </trkpt>
      <trkpt lat="40.384660" lon="-6.250973">
        <ele>972.892</ele>
        <time>2021-05-14T12:29:56Z</time>
      </trkpt>
      <trkpt lat="40.383785" lon="-6.250522">
        <ele>981.244</ele>
        <time>2021-05-14T12:31:20Z</time>
      </trkpt>
      <trkpt lat="40.385572" lon="-6.250688">
        <ele>1006.790</ele>
        <time>2021-05-14T12:33:14Z</time>
      </trkpt>
      <trkpt lat="40.384710" lon="-6.250021">
        <ele>998.466</ele>
        <time>2021-05-14T12:34:49Z</time>
      </trkpt>
      <trkpt lat="40.383730" lon="-6.249856">
        <ele>1013.318</ele>
        <time>2021-05-14T12:35:44Z</time>
      </trkpt>
      <trkpt lat="40.383316" lon="-6.249117">
        <ele>1014.798</ele>
        <time>2021-05-14T12:39:16Z</time>
      </trkpt>
      <trkpt lat="40.382831" lon="-6.248682">
        <ele>1024.817</ele>
        <time>2021-05-14T12:39:48Z</time>
      </trkpt>
      <trkpt lat="40.382349" lon="-6.248802">
        <ele>1023.408</ele>
        <time>2021-05-14T12:40:10Z</time>
      </trkpt>
      <trkpt lat="40.380030" lon="-6.248033">
        <ele>1032.148</ele>
        <time>2021-05-14T12:41:44Z</time>
      </trkpt>
      <trkpt lat="40.379247" lon="-6.247510">
        <ele>1038.683</ele>
        <time>2021-05-14T12:42:19Z</time>
      </trkpt>
      <trkpt lat="40.378907" lon="-6.247716">
        <ele>1047.460</ele>
        <time>2021-05-14T12:42:31Z</time>
      </trkpt>
      <trkpt lat="40.378490" lon="-6.248559">
        <ele>1043.199</ele>
        <time>2021-05-14T12:42:57Z</time>
      </trkpt>
      <trkpt lat="40.378112" lon="-6.248688">
        <ele>1040.175</ele>
        <time>2021-05-14T12:44:15Z</time>
      </trkpt>
      <trkpt lat="40.377619" lon="-6.249737">
        <ele>1039.717</ele>
        <time>2021-05-14T12:44:49Z</time>
      </trkpt>
      <trkpt lat="40.376710" lon="-6.250606">
        <ele>1041.873</ele>
        <time>2021-05-14T12:45:22Z</time>
      </trkpt>
      <trkpt lat="40.376006" lon="-6.252564">
        <ele>1043.829</ele>
        <time>2021-05-14T12:46:07Z</time>
      </trkpt>
      <trkpt lat="40.375472" lon="-6.253502">
        <ele>1039.574</ele>
        <time>2021-05-14T12:46:38Z</time>
      </trkpt>
      <trkpt lat="40.373041" lon="-6.255947">
        <ele>1092.156</ele>
        <time>2021-05-14T13:09:16Z</time>
      </trkpt>
      <trkpt lat="40.372743" lon="-6.257104">
        <ele>1068.321</ele>
        <time>2021-05-14T13:10:33Z</time>
      </trkpt>
      <trkpt lat="40.372091" lon="-6.258321">
        <ele>1077.508</ele>
        <time>2021-05-14T13:12:07Z</time>
      </trkpt>
      <trkpt lat="40.372329" lon="-6.259892">
        <ele>1085.794</ele>
        <time>2021-05-14T13:13:44Z</time>
      </trkpt>
      <trkpt lat="40.372810" lon="-6.260823">
        <ele>1095.899</ele>
        <time>2021-05-14T13:14:36Z</time>
      </trkpt>
      <trkpt lat="40.372934" lon="-6.261460">
        <ele>1097.346</ele>
        <time>2021-05-14T13:15:20Z</time>
      </trkpt>
      <trkpt lat="40.373516" lon="-6.262257">
        <ele>1108.375</ele>
        <time>2021-05-14T13:17:02Z</time>
      </trkpt>
      <trkpt lat="40.374129" lon="-6.264816">
        <ele>1110.811</ele>
        <time>2021-05-14T13:18:42Z</time>
      </trkpt>
      <trkpt lat="40.374096" lon="-6.265686">
        <ele>1118.263</ele>
        <time>2021-05-14T13:19:19Z</time>
      </trkpt>
      <trkpt lat="40.373831" lon="-6.266409">
        <ele>1129.029</ele>
        <time>2021-05-14T13:20:12Z</time>
      </trkpt>
      <trkpt lat="40.373533" lon="-6.266739">
        <ele>1135.575</ele>
        <time>2021-05-14T13:20:56Z</time>
      </trkpt>
      <trkpt lat="40.373205" lon="-6.266719">
        <ele>1147.023</ele>
        <time>2021-05-14T13:21:32Z</time>
      </trkpt>
      <trkpt lat="40.372739" lon="-6.267783">
        <ele>1143.683</ele>
        <time>2021-05-14T13:21:58Z</time>
      </trkpt>
      <trkpt lat="40.372013" lon="-6.268315">
        <ele>1144.811</ele>
        <time>2021-05-14T13:22:15Z</time>
      </trkpt>
      <trkpt lat="40.371388" lon="-6.269428">
        <ele>1144.308</ele>
        <time>2021-05-14T13:22:31Z</time>
      </trkpt>
      <trkpt lat="40.370853" lon="-6.269963">
        <ele>1142.179</ele>
        <time>2021-05-14T13:22:41Z</time>
      </trkpt>
      <trkpt lat="40.370583" lon="-6.271860">
        <ele>1143.124</ele>
        <time>2021-05-14T13:23:04Z</time>
      </trkpt>
      <trkpt lat="40.370904" lon="-6.273117">
        <ele>1144.021</ele>
        <time>2021-05-14T13:23:37Z</time>
      </trkpt>
      <trkpt lat="40.371630" lon="-6.273598">
        <ele>1147.290</ele>
        <time>2021-05-14T13:24:05Z</time>
      </trkpt>
      <trkpt lat="40.372688" lon="-6.273908">
        <ele>1153.536</ele>
        <time>2021-05-14T13:24:52Z</time>
      </trkpt>
      <trkpt lat="40.372797" lon="-6.274724">
        <ele>1153.288</ele>
        <time>2021-05-14T13:26:13Z</time>
      </trkpt>
      <trkpt lat="40.373471" lon="-6.275007">
        <ele>1141.744</ele>
        <time>2021-05-14T13:26:48Z</time>
      </trkpt>
      <trkpt lat="40.373790" lon="-6.275941">
        <ele>1150.340</ele>
        <time>2021-05-14T13:27:26Z</time>
      </trkpt>
      <trkpt lat="40.374643" lon="-6.276994">
        <ele>1152.588</ele>
        <time>2021-05-14T13:28:30Z</time>
      </trkpt>
      <trkpt lat="40.374064" lon="-6.278269">
        <ele>1179.924</ele>
        <time>2021-05-14T13:29:37Z</time>
      </trkpt>
      <trkpt lat="40.374448" lon="-6.279651">
        <ele>1212.526</ele>
        <time>2021-05-14T13:30:47Z</time>
      </trkpt>
      <trkpt lat="40.373745" lon="-6.280511">
        <ele>1215.108</ele>
        <time>2021-05-14T13:31:40Z</time>
      </trkpt>
      <trkpt lat="40.373748" lon="-6.281319">
        <ele>1214.965</ele>
        <time>2021-05-14T13:32:16Z</time>
      </trkpt>
      <trkpt lat="40.373718" lon="-6.280537">
        <ele>1207.430</ele>
        <time>2021-05-14T13:33:24Z</time>
      </trkpt>
      <trkpt lat="40.373387" lon="-6.281244">
        <ele>1195.177</ele>
        <time>2021-05-14T13:34:22Z</time>
      </trkpt>
      <trkpt lat="40.372955" lon="-6.281716">
        <ele>1174.116</ele>
        <time>2021-05-14T13:39:26Z</time>
      </trkpt>
      <trkpt lat="40.373300" lon="-6.281442">
        <ele>1171.242</ele>
        <time>2021-05-14T13:42:15Z</time>
      </trkpt>
      <trkpt lat="40.373551" lon="-6.280715">
        <ele>1174.384</ele>
        <time>2021-05-14T13:43:03Z</time>
      </trkpt>
      <trkpt lat="40.373242" lon="-6.282410">
        <ele>1179.340</ele>
        <time>2021-05-14T13:44:09Z</time>
      </trkpt>
      <trkpt lat="40.373739" lon="-6.283767">
        <ele>1168.066</ele>
        <time>2021-05-14T13:44:39Z</time>
      </trkpt>
      <trkpt lat="40.373177" lon="-6.284152">
        <ele>1178.652</ele>
        <time>2021-05-14T13:45:08Z</time>
      </trkpt>
      <trkpt lat="40.372886" lon="-6.284647">
        <ele>1182.753</ele>
        <time>2021-05-14T13:45:31Z</time>
      </trkpt>
      <trkpt lat="40.372405" lon="-6.284861">
        <ele>1190.608</ele>
        <time>2021-05-14T13:45:55Z</time>
      </trkpt>
      <trkpt lat="40.372134" lon="-6.286683">
        <ele>1209.508</ele>
        <time>2021-05-14T13:47:31Z</time>
      </trkpt>
      <trkpt lat="40.371760" lon="-6.287006">
        <ele>1204.892</ele>
        <time>2021-05-14T13:47:43Z</time>
      </trkpt>
      <trkpt lat="40.370100" lon="-6.286986">
        <ele>1199.277</ele>
        <time>2021-05-14T13:48:18Z</time>
      </trkpt>
      <trkpt lat="40.369055" lon="-6.286496">
        <ele>1208.044</ele>
        <time>2021-05-14T13:48:54Z</time>
      </trkpt>
      <trkpt lat="40.368198" lon="-6.286437">
        <ele>1212.333</ele>
        <time>2021-05-14T13:51:35Z</time>
      </trkpt>
      <trkpt lat="40.367378" lon="-6.286898">
        <ele>1206.429</ele>
        <time>2021-05-14T13:52:57Z</time>
      </trkpt>
      <trkpt lat="40.366332" lon="-6.285741">
        <ele>1222.331</ele>
        <time>2021-05-14T13:53:47Z</time>
      </trkpt>
      <trkpt lat="40.365880" lon="-6.284988">
        <ele>1227.267</ele>
        <time>2021-05-14T13:54:11Z</time>
      </trkpt>
      <trkpt lat="40.365291" lon="-6.284855">
        <ele>1230.893</ele>
        <time>2021-05-14T13:54:29Z</time>
      </trkpt>
      <trkpt lat="40.364436" lon="-6.285818">
        <ele>1228.378</ele>
        <time>2021-05-14T13:54:56Z</time>
      </trkpt>
      <trkpt lat="40.363684" lon="-6.285992">
        <ele>1221.833</ele>
        <time>2021-05-14T13:55:18Z</time>
      </trkpt>
      <trkpt lat="40.363187" lon="-6.286563">
        <ele>1216.826</ele>
        <time>2021-05-14T13:55:42Z</time>
      </trkpt>
      <trkpt lat="40.362963" lon="-6.287297">
        <ele>1217.208</ele>
        <time>2021-05-14T13:55:58Z</time>
      </trkpt>
      <trkpt lat="40.362842" lon="-6.288765">
        <ele>1214.474</ele>
        <time>2021-05-14T13:56:26Z</time>
      </trkpt>
      <trkpt lat="40.362006" lon="-6.289215">
        <ele>1216.969</ele>
        <time>2021-05-14T13:56:45Z</time>
      </trkpt>
      <trkpt lat="40.361076" lon="-6.289145">
        <ele>1216.356</ele>
        <time>2021-05-14T13:57:08Z</time>
      </trkpt>
      <trkpt lat="40.359990" lon="-6.289541">
        <ele>1214.325</ele>
        <time>2021-05-14T13:58:39Z</time>
      </trkpt>
      <trkpt lat="40.359108" lon="-6.292368">
        <ele>1215.471</ele>
        <time>2021-05-14T14:00:44Z</time>
      </trkpt>
      <trkpt lat="40.359109" lon="-6.292742">
        <ele>1213.613</ele>
        <time>2021-05-14T14:00:50Z</time>
      </trkpt>
      <trkpt lat="40.359331" lon="-6.293161">
        <ele>1212.559</ele>
        <time>2021-05-14T14:00:57Z</time>
      </trkpt>
      <trkpt lat="40.360077" lon="-6.293677">
        <ele>1213.175</ele>
        <time>2021-05-14T14:01:14Z</time>
      </trkpt>
      <trkpt lat="40.361977" lon="-6.293829">
        <ele>1207.848</ele>
        <time>2021-05-14T14:01:50Z</time>
      </trkpt>
      <trkpt lat="40.364223" lon="-6.293247">
        <ele>1199.261</ele>
        <time>2021-05-14T14:02:23Z</time>
      </trkpt>
      <trkpt lat="40.365809" lon="-6.293769">
        <ele>1196.117</ele>
        <time>2021-05-14T14:02:50Z</time>
      </trkpt>
      <trkpt lat="40.366476" lon="-6.294704">
        <ele>1183.908</ele>
        <time>2021-05-14T14:03:05Z</time>
      </trkpt>
      <trkpt lat="40.366845" lon="-6.294838">
        <ele>1183.011</ele>
        <time>2021-05-14T14:03:11Z</time>
      </trkpt>
      <trkpt lat="40.367501" lon="-6.294616">
        <ele>1176.896</ele>
        <time>2021-05-14T14:03:22Z</time>
      </trkpt>
      <trkpt lat="40.368293" lon="-6.294026">
        <ele>1167.853</ele>
        <time>2021-05-14T14:03:38Z</time>
      </trkpt>
      <trkpt lat="40.368802" lon="-6.294095">
        <ele>1162.762</ele>
        <time>2021-05-14T14:03:48Z</time>
      </trkpt>
      <trkpt lat="40.368916" lon="-6.294265">
        <ele>1158.958</ele>
        <time>2021-05-14T14:03:52Z</time>
      </trkpt>
      <trkpt lat="40.368615" lon="-6.294970">
        <ele>1154.550</ele>
        <time>2021-05-14T14:04:05Z</time>
      </trkpt>
      <trkpt lat="40.368687" lon="-6.296173">
        <ele>1159.926</ele>
        <time>2021-05-14T14:04:21Z</time>
      </trkpt>
      <trkpt lat="40.370881" lon="-6.297548">
        <ele>1162.892</ele>
        <time>2021-05-14T14:05:11Z</time>
      </trkpt>
      <trkpt lat="40.370959" lon="-6.298129">
        <ele>1165.258</ele>
        <time>2021-05-14T14:05:31Z</time>
      </trkpt>
      <trkpt lat="40.371803" lon="-6.298084">
        <ele>1166.152</ele>
        <time>2021-05-14T14:05:59Z</time>
      </trkpt>
      <trkpt lat="40.371328" lon="-6.299178">
        <ele>1164.617</ele>
        <time>2021-05-14T14:06:38Z</time>
      </trkpt>
      <trkpt lat="40.371615" lon="-6.300100">
        <ele>1170.708</ele>
        <time>2021-05-14T14:07:06Z</time>
      </trkpt>
      <trkpt lat="40.370898" lon="-6.301325">
        <ele>1177.282</ele>
        <time>2021-05-14T14:07:44Z</time>
      </trkpt>
      <trkpt lat="40.371025" lon="-6.301513">
        <ele>1175.817</ele>
        <time>2021-05-14T14:07:50Z</time>
      </trkpt>
      <trkpt lat="40.371950" lon="-6.301660">
        <ele>1171.634</ele>
        <time>2021-05-14T14:08:10Z</time>
      </trkpt>
      <trkpt lat="40.371461" lon="-6.302278">
        <ele>1173.963</ele>
        <time>2021-05-14T14:08:30Z</time>
      </trkpt>
      <trkpt lat="40.371493" lon="-6.303117">
        <ele>1172.089</ele>
        <time>2021-05-14T14:08:50Z</time>
      </trkpt>
      <trkpt lat="40.371108" lon="-6.303199">
        <ele>1172.271</ele>
        <time>2021-05-14T14:09:04Z</time>
      </trkpt>
      <trkpt lat="40.370722" lon="-6.303587">
        <ele>1175.857</ele>
        <time>2021-05-14T14:09:22Z</time>
      </trkpt>
      <trkpt lat="40.370305" lon="-6.303626">
        <ele>1178.993</ele>
        <time>2021-05-14T14:09:37Z</time>
      </trkpt>
      <trkpt lat="40.368637" lon="-6.304741">
        <ele>1187.087</ele>
        <time>2021-05-14T14:10:45Z</time>
      </trkpt>
      <trkpt lat="40.368636" lon="-6.305166">
        <ele>1180.042</ele>
        <time>2021-05-14T14:10:52Z</time>
      </trkpt>
      <trkpt lat="40.369039" lon="-6.305265">
        <ele>1183.226</ele>
        <time>2021-05-14T14:11:38Z</time>
      </trkpt>
      <trkpt lat="40.369379" lon="-6.305813">
        <ele>1182.208</ele>
        <time>2021-05-14T14:11:59Z</time>
      </trkpt>
      <trkpt lat="40.368734" lon="-6.306032">
        <ele>1184.715</ele>
        <time>2021-05-14T14:12:23Z</time>
      </trkpt>
      <trkpt lat="40.367730" lon="-6.307049">
        <ele>1194.170</ele>
        <time>2021-05-14T14:13:28Z</time>
      </trkpt>
      <trkpt lat="40.367732" lon="-6.307969">
        <ele>1193.587</ele>
        <time>2021-05-14T14:13:44Z</time>
      </trkpt>
      <trkpt lat="40.367973" lon="-6.308876">
        <ele>1196.546</ele>
        <time>2021-05-14T14:14:06Z</time>
      </trkpt>
      <trkpt lat="40.367674" lon="-6.309168">
        <ele>1195.472</ele>
        <time>2021-05-14T14:14:18Z</time>
      </trkpt>
      <trkpt lat="40.367581" lon="-6.309693">
        <ele>1198.784</ele>
        <time>2021-05-14T14:14:30Z</time>
      </trkpt>
      <trkpt lat="40.367079" lon="-6.310585">
        <ele>1202.060</ele>
        <time>2021-05-14T14:16:14Z</time>
      </trkpt>
      <trkpt lat="40.367800" lon="-6.311187">
        <ele>1201.356</ele>
        <time>2021-05-14T14:17:05Z</time>
      </trkpt>
      <trkpt lat="40.368178" lon="-6.311168">
        <ele>1203.469</ele>
        <time>2021-05-14T14:17:19Z</time>
      </trkpt>
      <trkpt lat="40.368729" lon="-6.310834">
        <ele>1202.604</ele>
        <time>2021-05-14T14:17:39Z</time>
      </trkpt>
      <trkpt lat="40.369368" lon="-6.310769">
        <ele>1201.324</ele>
        <time>2021-05-14T14:17:59Z</time>
      </trkpt>
      <trkpt lat="40.370087" lon="-6.310020">
        <ele>1207.108</ele>
        <time>2021-05-14T14:18:27Z</time>
      </trkpt>
      <trkpt lat="40.372008" lon="-6.309456">
        <ele>1202.713</ele>
        <time>2021-05-14T14:19:12Z</time>
      </trkpt>
      <trkpt lat="40.373985" lon="-6.309155">
        <ele>1202.238</ele>
        <time>2021-05-14T14:20:53Z</time>
      </trkpt>
      <trkpt lat="40.374735" lon="-6.308286">
        <ele>1206.495</ele>
        <time>2021-05-14T14:21:11Z</time>
      </trkpt>
      <trkpt lat="40.375734" lon="-6.307751">
        <ele>1204.224</ele>
        <time>2021-05-14T14:21:37Z</time>
      </trkpt>
      <trkpt lat="40.377221" lon="-6.306052">
        <ele>1202.060</ele>
        <time>2021-05-14T14:22:20Z</time>
      </trkpt>
      <trkpt lat="40.379256" lon="-6.305151">
        <ele>1192.312</ele>
        <time>2021-05-14T14:22:53Z</time>
      </trkpt>
      <trkpt lat="40.380240" lon="-6.305663">
        <ele>1197.428</ele>
        <time>2021-05-14T14:23:42Z</time>
      </trkpt>
      <trkpt lat="40.380560" lon="-6.306269">
        <ele>1199.814</ele>
        <time>2021-05-14T14:23:58Z</time>
      </trkpt>
      <trkpt lat="40.381838" lon="-6.307730">
        <ele>1193.772</ele>
        <time>2021-05-14T14:24:24Z</time>
      </trkpt>
      <trkpt lat="40.382103" lon="-6.309014">
        <ele>1189.913</ele>
        <time>2021-05-14T14:24:39Z</time>
      </trkpt>
      <trkpt lat="40.382553" lon="-6.309840">
        <ele>1182.414</ele>
        <time>2021-05-14T14:24:51Z</time>
      </trkpt>
      <trkpt lat="40.384306" lon="-6.311802">
        <ele>1171.908</ele>
        <time>2021-05-14T14:25:27Z</time>
      </trkpt>
      <trkpt lat="40.384219" lon="-6.312613">
        <ele>1169.714</ele>
        <time>2021-05-14T14:25:37Z</time>
      </trkpt>
      <trkpt lat="40.383749" lon="-6.313663">
        <ele>1180.189</ele>
        <time>2021-05-14T14:26:00Z</time>
      </trkpt>
      <trkpt lat="40.383631" lon="-6.314366">
        <ele>1179.736</ele>
        <time>2021-05-14T14:26:16Z</time>
      </trkpt>
      <trkpt lat="40.383808" lon="-6.315055">
        <ele>1179.425</ele>
        <time>2021-05-14T14:26:43Z</time>
      </trkpt>
      <trkpt lat="40.384148" lon="-6.315378">
        <ele>1182.231</ele>
        <time>2021-05-14T14:27:36Z</time>
      </trkpt>
      <trkpt lat="40.384633" lon="-6.318558">
        <ele>1170.273</ele>
        <time>2021-05-14T14:30:11Z</time>
      </trkpt>
      <trkpt lat="40.384457" lon="-6.319689">
        <ele>1161.589</ele>
        <time>2021-05-14T14:30:34Z</time>
      </trkpt>
      <trkpt lat="40.384033" lon="-6.321055">
        <ele>1154.355</ele>
        <time>2021-05-14T14:31:03Z</time>
      </trkpt>
      <trkpt lat="40.384182" lon="-6.322321">
        <ele>1145.475</ele>
        <time>2021-05-14T14:31:21Z</time>
      </trkpt>
      <trkpt lat="40.383777" lon="-6.323444">
        <ele>1142.828</ele>
        <time>2021-05-14T14:31:38Z</time>
      </trkpt>
      <trkpt lat="40.383988" lon="-6.324448">
        <ele>1133.920</ele>
        <time>2021-05-14T14:31:54Z</time>
      </trkpt>
      <trkpt lat="40.383791" lon="-6.325476">
        <ele>1129.208</ele>
        <time>2021-05-14T14:32:11Z</time>
      </trkpt>
      <trkpt lat="40.384311" lon="-6.326553">
        <ele>1110.234</ele>
        <time>2021-05-14T14:32:31Z</time>
      </trkpt>
      <trkpt lat="40.383864" lon="-6.327583">
        <ele>1111.219</ele>
        <time>2021-05-14T14:32:49Z</time>
      </trkpt>
      <trkpt lat="40.384350" lon="-6.328582">
        <ele>1096.936</ele>
        <time>2021-05-14T14:33:06Z</time>
      </trkpt>
      <trkpt lat="40.383631" lon="-6.330042">
        <ele>1109.915</ele>
        <time>2021-05-14T14:33:35Z</time>
      </trkpt>
      <trkpt lat="40.383218" lon="-6.331871">
        <ele>1106.051</ele>
        <time>2021-05-14T14:34:06Z</time>
      </trkpt>
      <trkpt lat="40.384019" lon="-6.334081">
        <ele>1112.353</ele>
        <time>2021-05-14T14:36:56Z</time>
      </trkpt>
      <trkpt lat="40.384500" lon="-6.334585">
        <ele>1120.599</ele>
        <time>2021-05-14T14:37:27Z</time>
      </trkpt>
      <trkpt lat="40.384799" lon="-6.335447">
        <ele>1132.115</ele>
        <time>2021-05-14T14:38:13Z</time>
      </trkpt>
      <trkpt lat="40.385736" lon="-6.336399">
        <ele>1146.646</ele>
        <time>2021-05-14T14:39:29Z</time>
      </trkpt>
      <trkpt lat="40.386849" lon="-6.335768">
        <ele>1166.288</ele>
        <time>2021-05-14T14:41:32Z</time>
      </trkpt>
      <trkpt lat="40.387281" lon="-6.335806">
        <ele>1168.916</ele>
        <time>2021-05-14T14:42:50Z</time>
      </trkpt>
      <trkpt lat="40.388403" lon="-6.338455">
        <ele>1180.708</ele>
        <time>2021-05-14T14:47:01Z</time>
      </trkpt>
      <trkpt lat="40.388534" lon="-6.340124">
        <ele>1189.171</ele>
        <time>2021-05-14T14:48:01Z</time>
      </trkpt>
      <trkpt lat="40.388781" lon="-6.340949">
        <ele>1186.956</ele>
        <time>2021-05-14T14:48:36Z</time>
      </trkpt>
      <trkpt lat="40.390009" lon="-6.341463">
        <ele>1204.063</ele>
        <time>2021-05-14T14:51:04Z</time>
      </trkpt>
      <trkpt lat="40.391268" lon="-6.342601">
        <ele>1217.372</ele>
        <time>2021-05-14T14:52:27Z</time>
      </trkpt>
      <trkpt lat="40.392073" lon="-6.343844">
        <ele>1231.578</ele>
        <time>2021-05-14T14:53:53Z</time>
      </trkpt>
      <trkpt lat="40.392204" lon="-6.344762">
        <ele>1240.440</ele>
        <time>2021-05-14T14:54:36Z</time>
      </trkpt>
      <trkpt lat="40.392782" lon="-6.344838">
        <ele>1240.416</ele>
        <time>2021-05-14T14:55:52Z</time>
      </trkpt>
      <trkpt lat="40.393565" lon="-6.345358">
        <ele>1241.372</ele>
        <time>2021-05-14T14:56:20Z</time>
      </trkpt>
      <trkpt lat="40.393958" lon="-6.346383">
        <ele>1243.375</ele>
        <time>2021-05-14T14:56:36Z</time>
      </trkpt>
      <trkpt lat="40.394519" lon="-6.346686">
        <ele>1244.628</ele>
        <time>2021-05-14T14:56:51Z</time>
      </trkpt>
      <trkpt lat="40.394992" lon="-6.346696">
        <ele>1242.120</ele>
        <time>2021-05-14T14:57:03Z</time>
      </trkpt>
      <trkpt lat="40.395396" lon="-6.347387">
        <ele>1245.108</ele>
        <time>2021-05-14T14:57:16Z</time>
      </trkpt>
      <trkpt lat="40.396461" lon="-6.348222">
        <ele>1240.014</ele>
        <time>2021-05-14T14:57:41Z</time>
      </trkpt>
      <trkpt lat="40.396942" lon="-6.350547">
        <ele>1246.399</ele>
        <time>2021-05-14T14:58:20Z</time>
      </trkpt>
      <trkpt lat="40.396164" lon="-6.350950">
        <ele>1249.646</ele>
        <time>2021-05-14T14:58:38Z</time>
      </trkpt>
      <trkpt lat="40.396077" lon="-6.351419">
        <ele>1251.245</ele>
        <time>2021-05-14T14:58:50Z</time>
      </trkpt>
      <trkpt lat="40.396315" lon="-6.352378">
        <ele>1247.221</ele>
        <time>2021-05-14T14:59:06Z</time>
      </trkpt>
      <trkpt lat="40.396999" lon="-6.354006">
        <ele>1238.543</ele>
        <time>2021-05-14T14:59:35Z</time>
      </trkpt>
      <trkpt lat="40.396624" lon="-6.354591">
        <ele>1233.229</ele>
        <time>2021-05-14T14:59:48Z</time>
      </trkpt>
      <trkpt lat="40.396770" lon="-6.355123">
        <ele>1231.615</ele>
        <time>2021-05-14T15:00:00Z</time>
      </trkpt>
      <trkpt lat="40.397714" lon="-6.356129">
        <ele>1227.115</ele>
        <time>2021-05-14T15:00:48Z</time>
      </trkpt>
      <trkpt lat="40.399818" lon="-6.356254">
        <ele>1261.965</ele>
        <time>2021-05-14T15:06:35Z</time>
      </trkpt>
      <trkpt lat="40.400146" lon="-6.356028">
        <ele>1263.011</ele>
        <time>2021-05-14T15:06:54Z</time>
      </trkpt>
      <trkpt lat="40.400351" lon="-6.356541">
        <ele>1269.608</ele>
        <time>2021-05-14T15:07:08Z</time>
      </trkpt>
      <trkpt lat="40.400721" lon="-6.356794">
        <ele>1271.068</ele>
        <time>2021-05-14T15:07:25Z</time>
      </trkpt>
      <trkpt lat="40.400336" lon="-6.357622">
        <ele>1284.643</ele>
        <time>2021-05-14T15:07:45Z</time>
      </trkpt>
      <trkpt lat="40.400788" lon="-6.358532">
        <ele>1285.210</ele>
        <time>2021-05-14T15:08:15Z</time>
      </trkpt>
      <trkpt lat="40.399671" lon="-6.359729">
        <ele>1292.529</ele>
        <time>2021-05-14T15:08:43Z</time>
      </trkpt>
      <trkpt lat="40.400123" lon="-6.360562">
        <ele>1292.525</ele>
        <time>2021-05-14T15:09:01Z</time>
      </trkpt>
      <trkpt lat="40.400520" lon="-6.360874">
        <ele>1292.627</ele>
        <time>2021-05-14T15:09:13Z</time>
      </trkpt>
      <trkpt lat="40.400391" lon="-6.361992">
        <ele>1289.853</ele>
        <time>2021-05-14T15:09:31Z</time>
      </trkpt>
      <trkpt lat="40.400723" lon="-6.364109">
        <ele>1280.649</ele>
        <time>2021-05-14T15:10:07Z</time>
      </trkpt>
      <trkpt lat="40.400461" lon="-6.364329">
        <ele>1279.999</ele>
        <time>2021-05-14T15:10:14Z</time>
      </trkpt>
      <trkpt lat="40.399590" lon="-6.364244">
        <ele>1286.207</ele>
        <time>2021-05-14T15:10:31Z</time>
      </trkpt>
      <trkpt lat="40.398993" lon="-6.364391">
        <ele>1276.527</ele>
        <time>2021-05-14T15:10:46Z</time>
      </trkpt>
      <trkpt lat="40.398562" lon="-6.365157">
        <ele>1269.408</ele>
        <time>2021-05-14T15:11:01Z</time>
      </trkpt>
      <trkpt lat="40.398928" lon="-6.366106">
        <ele>1266.816</ele>
        <time>2021-05-14T15:11:18Z</time>
      </trkpt>
      <trkpt lat="40.399391" lon="-6.366480">
        <ele>1266.711</ele>
        <time>2021-05-14T15:11:31Z</time>
      </trkpt>
      <trkpt lat="40.399865" lon="-6.366549">
        <ele>1271.538</ele>
        <time>2021-05-14T15:11:43Z</time>
      </trkpt>
      <trkpt lat="40.399839" lon="-6.366919">
        <ele>1272.177</ele>
        <time>2021-05-14T15:11:51Z</time>
      </trkpt>
      <trkpt lat="40.399239" lon="-6.367913">
        <ele>1290.373</ele>
        <time>2021-05-14T15:12:10Z</time>
      </trkpt>
      <trkpt lat="40.398659" lon="-6.368500">
        <ele>1286.085</ele>
        <time>2021-05-14T15:12:24Z</time>
      </trkpt>
      <trkpt lat="40.398620" lon="-6.368873">
        <ele>1286.381</ele>
        <time>2021-05-14T15:12:29Z</time>
      </trkpt>
      <trkpt lat="40.398857" lon="-6.369776">
        <ele>1281.397</ele>
        <time>2021-05-14T15:13:48Z</time>
      </trkpt>
      <trkpt lat="40.397467" lon="-6.369919">
        <ele>1270.283</ele>
        <time>2021-05-14T15:14:24Z</time>
      </trkpt>
      <trkpt lat="40.397255" lon="-6.370190">
        <ele>1269.025</ele>
        <time>2021-05-14T15:14:31Z</time>
      </trkpt>
      <trkpt lat="40.397480" lon="-6.371546">
        <ele>1268.217</ele>
        <time>2021-05-14T15:15:05Z</time>
      </trkpt>
      <trkpt lat="40.397398" lon="-6.372611">
        <ele>1273.508</ele>
        <time>2021-05-14T15:15:21Z</time>
      </trkpt>
      <trkpt lat="40.397542" lon="-6.373048">
        <ele>1281.545</ele>
        <time>2021-05-14T15:15:38Z</time>
      </trkpt>
      <trkpt lat="40.396928" lon="-6.373784">
        <ele>1280.130</ele>
        <time>2021-05-14T15:15:55Z</time>
      </trkpt>
      <trkpt lat="40.396036" lon="-6.373534">
        <ele>1267.997</ele>
        <time>2021-05-14T15:16:15Z</time>
      </trkpt>
      <trkpt lat="40.394410" lon="-6.374756">
        <ele>1240.246</ele>
        <time>2021-05-14T15:52:36Z</time>
      </trkpt>
      <trkpt lat="40.394268" lon="-6.375400">
        <ele>1236.142</ele>
        <time>2021-05-14T15:52:53Z</time>
      </trkpt>
      <trkpt lat="40.394434" lon="-6.377120">
        <ele>1234.054</ele>
        <time>2021-05-14T15:53:15Z</time>
      </trkpt>
      <trkpt lat="40.393805" lon="-6.378143">
        <ele>1222.220</ele>
        <time>2021-05-14T15:53:38Z</time>
      </trkpt>
      <trkpt lat="40.393477" lon="-6.379169">
        <ele>1208.826</ele>
        <time>2021-05-14T15:53:58Z</time>
      </trkpt>
      <trkpt lat="40.394894" lon="-6.379606">
        <ele>1197.676</ele>
        <time>2021-05-14T15:55:50Z</time>
      </trkpt>
      <trkpt lat="40.395209" lon="-6.379864">
        <ele>1195.690</ele>
        <time>2021-05-14T15:55:57Z</time>
      </trkpt>
      <trkpt lat="40.394955" lon="-6.380317">
        <ele>1191.219</ele>
        <time>2021-05-14T15:56:04Z</time>
      </trkpt>
      <trkpt lat="40.394919" lon="-6.381096">
        <ele>1190.008</ele>
        <time>2021-05-14T15:56:18Z</time>
      </trkpt>
      <trkpt lat="40.395245" lon="-6.382376">
        <ele>1181.044</ele>
        <time>2021-05-14T15:57:11Z</time>
      </trkpt>
      <trkpt lat="40.395216" lon="-6.382923">
        <ele>1176.149</ele>
        <time>2021-05-14T15:57:19Z</time>
      </trkpt>
      <trkpt lat="40.394687" lon="-6.383945">
        <ele>1163.666</ele>
        <time>2021-05-14T15:57:38Z</time>
      </trkpt>
      <trkpt lat="40.395021" lon="-6.385031">
        <ele>1148.975</ele>
        <time>2021-05-14T15:57:58Z</time>
      </trkpt>
      <trkpt lat="40.395621" lon="-6.385731">
        <ele>1138.181</ele>
        <time>2021-05-14T15:58:11Z</time>
      </trkpt>
      <trkpt lat="40.395410" lon="-6.386615">
        <ele>1134.093</ele>
        <time>2021-05-14T15:58:22Z</time>
      </trkpt>
      <trkpt lat="40.395753" lon="-6.387307">
        <ele>1125.649</ele>
        <time>2021-05-14T15:58:33Z</time>
      </trkpt>
      <trkpt lat="40.395287" lon="-6.388039">
        <ele>1124.045</ele>
        <time>2021-05-14T15:58:48Z</time>
      </trkpt>
      <trkpt lat="40.393915" lon="-6.388878">
        <ele>1104.419</ele>
        <time>2021-05-14T15:59:21Z</time>
      </trkpt>
      <trkpt lat="40.393294" lon="-6.388965">
        <ele>1101.809</ele>
        <time>2021-05-14T15:59:34Z</time>
      </trkpt>
      <trkpt lat="40.393024" lon="-6.389715">
        <ele>1101.019</ele>
        <time>2021-05-14T15:59:48Z</time>
      </trkpt>
      <trkpt lat="40.393149" lon="-6.391423">
        <ele>1095.908</ele>
        <time>2021-05-14T16:00:09Z</time>
      </trkpt>
      <trkpt lat="40.393488" lon="-6.392020">
        <ele>1090.298</ele>
        <time>2021-05-14T16:00:18Z</time>
      </trkpt>
      <trkpt lat="40.393610" lon="-6.392973">
        <ele>1085.843</ele>
        <time>2021-05-14T16:00:28Z</time>
      </trkpt>
      <trkpt lat="40.392731" lon="-6.393844">
        <ele>1083.880</ele>
        <time>2021-05-14T16:00:52Z</time>
      </trkpt>
      <trkpt lat="40.391958" lon="-6.394169">
        <ele>1076.369</ele>
        <time>2021-05-14T16:01:08Z</time>
      </trkpt>
      <trkpt lat="40.391321" lon="-6.394881">
        <ele>1073.495</ele>
        <time>2021-05-14T16:01:36Z</time>
      </trkpt>
      <trkpt lat="40.390733" lon="-6.396288">
        <ele>1071.617</ele>
        <time>2021-05-14T16:01:53Z</time>
      </trkpt>
      <trkpt lat="40.390174" lon="-6.397141">
        <ele>1064.593</ele>
        <time>2021-05-14T16:02:03Z</time>
      </trkpt>
      <trkpt lat="40.390520" lon="-6.397675">
        <ele>1058.489</ele>
        <time>2021-05-14T16:02:14Z</time>
      </trkpt>
      <trkpt lat="40.389442" lon="-6.397661">
        <ele>1050.757</ele>
        <time>2021-05-14T16:02:25Z</time>
      </trkpt>
      <trkpt lat="40.389182" lon="-6.397338">
        <ele>1044.200</ele>
        <time>2021-05-14T16:02:31Z</time>
      </trkpt>
      <trkpt lat="40.389272" lon="-6.397025">
        <ele>1038.920</ele>
        <time>2021-05-14T16:02:34Z</time>
      </trkpt>
      <trkpt lat="40.389983" lon="-6.396229">
        <ele>1030.308</ele>
        <time>2021-05-14T16:02:44Z</time>
      </trkpt>
      <trkpt lat="40.390314" lon="-6.394723">
        <ele>1025.532</ele>
        <time>2021-05-14T16:02:57Z</time>
      </trkpt>
      <trkpt lat="40.390744" lon="-6.394011">
        <ele>1021.137</ele>
        <time>2021-05-14T16:03:04Z</time>
      </trkpt>
      <trkpt lat="40.390697" lon="-6.393837">
        <ele>1017.754</ele>
        <time>2021-05-14T16:03:09Z</time>
      </trkpt>
      <trkpt lat="40.389645" lon="-6.395000">
        <ele>1000.913</ele>
        <time>2021-05-14T16:03:26Z</time>
      </trkpt>
      <trkpt lat="40.389075" lon="-6.395181">
        <ele>991.939</ele>
        <time>2021-05-14T16:03:33Z</time>
      </trkpt>
      <trkpt lat="40.389094" lon="-6.395791">
        <ele>982.351</ele>
        <time>2021-05-14T16:03:42Z</time>
      </trkpt>
      <trkpt lat="40.388285" lon="-6.396194">
        <ele>973.147</ele>
        <time>2021-05-14T16:03:52Z</time>
      </trkpt>
      <trkpt lat="40.386074" lon="-6.395955">
        <ele>944.163</ele>
        <time>2021-05-14T16:04:13Z</time>
      </trkpt>
      <trkpt lat="40.385282" lon="-6.395434">
        <ele>930.759</ele>
        <time>2021-05-14T16:04:22Z</time>
      </trkpt>
      <trkpt lat="40.384196" lon="-6.395376">
        <ele>914.503</ele>
        <time>2021-05-14T16:04:34Z</time>
      </trkpt>
      <trkpt lat="40.383349" lon="-6.397100">
        <ele>905.723</ele>
        <time>2021-05-14T16:04:55Z</time>
      </trkpt>
      <trkpt lat="40.383229" lon="-6.397625">
        <ele>905.208</ele>
        <time>2021-05-14T16:05:00Z</time>
      </trkpt>
      <trkpt lat="40.382589" lon="-6.398678">
        <ele>901.342</ele>
        <time>2021-05-14T16:05:13Z</time>
      </trkpt>
      <trkpt lat="40.383390" lon="-6.399174">
        <ele>898.147</ele>
        <time>2021-05-14T16:05:24Z</time>
      </trkpt>
      <trkpt lat="40.384064" lon="-6.399972">
        <ele>893.634</ele>
        <time>2021-05-14T16:05:32Z</time>
      </trkpt>
      <trkpt lat="40.384851" lon="-6.400350">
        <ele>884.893</ele>
        <time>2021-05-14T16:05:41Z</time>
      </trkpt>
      <trkpt lat="40.384878" lon="-6.400507">
        <ele>882.569</ele>
        <time>2021-05-14T16:05:45Z</time>
      </trkpt>
      <trkpt lat="40.383847" lon="-6.400110">
        <ele>871.841</ele>
        <time>2021-05-14T16:05:58Z</time>
      </trkpt>
      <trkpt lat="40.383221" lon="-6.399607">
        <ele>868.527</ele>
        <time>2021-05-14T16:06:06Z</time>
      </trkpt>
      <trkpt lat="40.381845" lon="-6.399998">
        <ele>860.583</ele>
        <time>2021-05-14T16:06:20Z</time>
      </trkpt>
      <trkpt lat="40.381056" lon="-6.399642">
        <ele>855.238</ele>
        <time>2021-05-14T16:06:28Z</time>
      </trkpt>
      <trkpt lat="40.380830" lon="-6.398984">
        <ele>853.170</ele>
        <time>2021-05-14T16:06:34Z</time>
      </trkpt>
      <trkpt lat="40.380855" lon="-6.397475">
        <ele>846.117</ele>
        <time>2021-05-14T16:06:46Z</time>
      </trkpt>
      <trkpt lat="40.381998" lon="-6.396244">
        <ele>841.208</ele>
        <time>2021-05-14T16:07:03Z</time>
      </trkpt>
      <trkpt lat="40.382161" lon="-6.395470">
        <ele>840.230</ele>
        <time>2021-05-14T16:07:10Z</time>
      </trkpt>
      <trkpt lat="40.381938" lon="-6.394709">
        <ele>839.515</ele>
        <time>2021-05-14T16:07:17Z</time>
      </trkpt>
      <trkpt lat="40.382326" lon="-6.393150">
        <ele>832.322</ele>
        <time>2021-05-14T16:07:29Z</time>
      </trkpt>
      <trkpt lat="40.383499" lon="-6.391303">
        <ele>807.521</ele>
        <time>2021-05-14T16:07:46Z</time>
      </trkpt>
      <trkpt lat="40.383834" lon="-6.391343">
        <ele>804.797</ele>
        <time>2021-05-14T16:07:50Z</time>
      </trkpt>
      <trkpt lat="40.384343" lon="-6.392075">
        <ele>800.699</ele>
        <time>2021-05-14T16:08:00Z</time>
      </trkpt>
      <trkpt lat="40.384563" lon="-6.391990">
        <ele>800.135</ele>
        <time>2021-05-14T16:08:04Z</time>
      </trkpt>
      <trkpt lat="40.384667" lon="-6.390803">
        <ele>793.341</ele>
        <time>2021-05-14T16:08:13Z</time>
      </trkpt>
      <trkpt lat="40.384499" lon="-6.389147">
        <ele>784.767</ele>
        <time>2021-05-14T16:08:25Z</time>
      </trkpt>
      <trkpt lat="40.384865" lon="-6.388644">
        <ele>782.181</ele>
        <time>2021-05-14T16:08:31Z</time>
      </trkpt>
      <trkpt lat="40.385231" lon="-6.388559">
        <ele>776.719</ele>
        <time>2021-05-14T16:08:36Z</time>
      </trkpt>
      <trkpt lat="40.385318" lon="-6.388238">
        <ele>771.508</ele>
        <time>2021-05-14T16:08:39Z</time>
      </trkpt>
      <trkpt lat="40.385157" lon="-6.387844">
        <ele>769.043</ele>
        <time>2021-05-14T16:08:43Z</time>
      </trkpt>
      <trkpt lat="40.384876" lon="-6.387715">
        <ele>766.638</ele>
        <time>2021-05-14T16:08:46Z</time>
      </trkpt>
      <trkpt lat="40.383985" lon="-6.388204">
        <ele>753.795</ele>
        <time>2021-05-14T16:08:55Z</time>
      </trkpt>
      <trkpt lat="40.383537" lon="-6.388224">
        <ele>744.284</ele>
        <time>2021-05-14T16:09:00Z</time>
      </trkpt>
      <trkpt lat="40.383160" lon="-6.387703">
        <ele>738.690</ele>
        <time>2021-05-14T16:09:06Z</time>
      </trkpt>
      <trkpt lat="40.383094" lon="-6.386908">
        <ele>731.462</ele>
        <time>2021-05-14T16:09:13Z</time>
      </trkpt>
      <trkpt lat="40.382738" lon="-6.386660">
        <ele>726.358</ele>
        <time>2021-05-14T16:09:20Z</time>
      </trkpt>
      <trkpt lat="40.382316" lon="-6.386921">
        <ele>721.254</ele>
        <time>2021-05-14T16:09:28Z</time>
      </trkpt>
      <trkpt lat="40.379184" lon="-6.391235">
        <ele>722.177</ele>
        <time>2021-05-14T16:10:36Z</time>
      </trkpt>
      <trkpt lat="40.377873" lon="-6.392494">
        <ele>723.761</ele>
        <time>2021-05-14T16:11:01Z</time>
      </trkpt>
      <trkpt lat="40.377539" lon="-6.392437">
        <ele>720.927</ele>
        <time>2021-05-14T16:11:05Z</time>
      </trkpt>
      <trkpt lat="40.376933" lon="-6.391277">
        <ele>714.908</ele>
        <time>2021-05-14T16:11:16Z</time>
      </trkpt>
      <trkpt lat="40.375591" lon="-6.391157">
        <ele>700.294</ele>
        <time>2021-05-14T16:11:30Z</time>
      </trkpt>
      <trkpt lat="40.375129" lon="-6.390186">
        <ele>689.499</ele>
        <time>2021-05-14T16:12:34Z</time>
      </trkpt>
      <trkpt lat="40.373878" lon="-6.389580">
        <ele>682.016</ele>
        <time>2021-05-14T16:12:49Z</time>
      </trkpt>
      <trkpt lat="40.373701" lon="-6.389243">
        <ele>679.735</ele>
        <time>2021-05-14T16:12:53Z</time>
      </trkpt>
      <trkpt lat="40.373845" lon="-6.388436">
        <ele>675.781</ele>
        <time>2021-05-14T16:13:00Z</time>
      </trkpt>
      <trkpt lat="40.373681" lon="-6.388124">
        <ele>672.873</ele>
        <time>2021-05-14T16:13:04Z</time>
      </trkpt>
      <trkpt lat="40.373214" lon="-6.388109">
        <ele>671.479</ele>
        <time>2021-05-14T16:13:09Z</time>
      </trkpt>
      <trkpt lat="40.372928" lon="-6.388445">
        <ele>667.745</ele>
        <time>2021-05-14T16:13:13Z</time>
      </trkpt>
      <trkpt lat="40.370880" lon="-6.387965">
        <ele>646.789</ele>
        <time>2021-05-14T16:13:35Z</time>
      </trkpt>
      <trkpt lat="40.370500" lon="-6.387453">
        <ele>644.806</ele>
        <time>2021-05-14T16:13:41Z</time>
      </trkpt>
      <trkpt lat="40.370294" lon="-6.387426">
        <ele>639.426</ele>
        <time>2021-05-14T16:13:44Z</time>
      </trkpt>
      <trkpt lat="40.370052" lon="-6.387795">
        <ele>638.508</ele>
        <time>2021-05-14T16:13:48Z</time>
      </trkpt>
      <trkpt lat="40.370115" lon="-6.388402">
        <ele>637.235</ele>
        <time>2021-05-14T16:13:53Z</time>
      </trkpt>
      <trkpt lat="40.369972" lon="-6.388772">
        <ele>637.650</ele>
        <time>2021-05-14T16:13:57Z</time>
      </trkpt>
      <trkpt lat="40.369133" lon="-6.389240">
        <ele>635.637</ele>
        <time>2021-05-14T16:14:06Z</time>
      </trkpt>
      <trkpt lat="40.367980" lon="-6.390336">
        <ele>626.876</ele>
        <time>2021-05-14T16:14:18Z</time>
      </trkpt>
      <trkpt lat="40.367760" lon="-6.390844">
        <ele>624.092</ele>
        <time>2021-05-14T16:14:22Z</time>
      </trkpt>
      <trkpt lat="40.367767" lon="-6.391977">
        <ele>617.624</ele>
        <time>2021-05-14T16:14:30Z</time>
      </trkpt>
      <trkpt lat="40.367527" lon="-6.392732">
        <ele>607.750</ele>
        <time>2021-05-14T16:16:08Z</time>
      </trkpt>
      <trkpt lat="40.366402" lon="-6.393856">
        <ele>608.556</ele>
        <time>2021-05-14T16:16:50Z</time>
      </trkpt>
      <trkpt lat="40.364563" lon="-6.393819">
        <ele>606.237</ele>
        <time>2021-05-14T16:17:45Z</time>
      </trkpt>
      <trkpt lat="40.363594" lon="-6.394172">
        <ele>610.249</ele>
        <time>2021-05-14T16:18:08Z</time>
      </trkpt>
      <trkpt lat="40.361653" lon="-6.393624">
        <ele>605.913</ele>
        <time>2021-05-14T16:19:06Z</time>
      </trkpt>
      <trkpt lat="40.360883" lon="-6.393910">
        <ele>618.308</ele>
        <time>2021-05-14T16:19:30Z</time>
      </trkpt>
      <trkpt lat="40.359551" lon="-6.393521">
        <ele>628.810</ele>
        <time>2021-05-14T16:20:07Z</time>
      </trkpt>
      <trkpt lat="40.359393" lon="-6.393218">
        <ele>633.075</ele>
        <time>2021-05-14T16:20:14Z</time>
      </trkpt>
      <trkpt lat="40.359432" lon="-6.391565">
        <ele>630.132</ele>
        <time>2021-05-14T16:20:33Z</time>
      </trkpt>
      <trkpt lat="40.358787" lon="-6.390489">
        <ele>627.321</ele>
        <time>2021-05-14T16:20:46Z</time>
      </trkpt>
      <trkpt lat="40.358417" lon="-6.390273">
        <ele>625.597</ele>
        <time>2021-05-14T16:20:50Z</time>
      </trkpt>
      <trkpt lat="40.357279" lon="-6.390380">
        <ele>617.789</ele>
        <time>2021-05-14T16:21:02Z</time>
      </trkpt>
      <trkpt lat="40.356924" lon="-6.389789">
        <ele>616.055</ele>
        <time>2021-05-14T16:21:08Z</time>
      </trkpt>
      <trkpt lat="40.356810" lon="-6.387585">
        <ele>600.851</ele>
        <time>2021-05-14T16:21:24Z</time>
      </trkpt>
      <trkpt lat="40.357216" lon="-6.385739">
        <ele>583.338</ele>
        <time>2021-05-14T16:21:37Z</time>
      </trkpt>
      <trkpt lat="40.357678" lon="-6.384737">
        <ele>572.770</ele>
        <time>2021-05-14T16:21:45Z</time>
      </trkpt>
      <trkpt lat="40.357714" lon="-6.384134">
        <ele>569.817</ele>
        <time>2021-05-14T16:21:49Z</time>
      </trkpt>
      <trkpt lat="40.356476" lon="-6.380138">
        <ele>539.508</ele>
        <time>2021-05-14T16:22:30Z</time>
      </trkpt>
      <trkpt lat="40.354556" lon="-6.377019">
        <ele>562.890</ele>
        <time>2021-05-14T16:23:58Z</time>
      </trkpt>
      <trkpt lat="40.353475" lon="-6.376639">
        <ele>560.045</ele>
        <time>2021-05-14T16:24:32Z</time>
      </trkpt>
      <trkpt lat="40.353369" lon="-6.376840">
        <ele>575.192</ele>
        <time>2021-05-14T16:28:44Z</time>
      </trkpt>
      <trkpt lat="40.353475" lon="-6.376733">
        <ele>572.391</ele>
        <time>2021-05-14T16:29:42Z</time>
      </trkpt>
      <trkpt lat="40.353073" lon="-6.376243">
        <ele>558.747</ele>
        <time>2021-05-14T16:31:45Z</time>
      </trkpt>
      <trkpt lat="40.353087" lon="-6.375725">
        <ele>557.599</ele>
        <time>2021-05-14T16:31:53Z</time>
      </trkpt>
      <trkpt lat="40.354059" lon="-6.374381">
        <ele>548.165</ele>
        <time>2021-05-14T16:32:10Z</time>
      </trkpt>
      <trkpt lat="40.354118" lon="-6.373043">
        <ele>540.071</ele>
        <time>2021-05-14T16:32:23Z</time>
      </trkpt>
      <trkpt lat="40.353292" lon="-6.370976">
        <ele>537.815</ele>
        <time>2021-05-14T16:32:48Z</time>
      </trkpt>
      <trkpt lat="40.352953" lon="-6.368013">
        <ele>522.965</ele>
        <time>2021-05-14T16:33:12Z</time>
      </trkpt>
      <trkpt lat="40.352739" lon="-6.364072">
        <ele>510.011</ele>
        <time>2021-05-14T16:33:51Z</time>
      </trkpt>
      <trkpt lat="40.352098" lon="-6.362983">
        <ele>512.008</ele>
        <time>2021-05-14T16:34:08Z</time>
      </trkpt>
      <trkpt lat="40.351863" lon="-6.362048">
        <ele>511.068</ele>
        <time>2021-05-14T16:34:19Z</time>
      </trkpt>
      <trkpt lat="40.352030" lon="-6.361169">
        <ele>507.653</ele>
        <time>2021-05-14T16:34:30Z</time>
      </trkpt>
      <trkpt lat="40.353017" lon="-6.358949">
        <ele>502.930</ele>
        <time>2021-05-14T16:35:01Z</time>
      </trkpt>
      <trkpt lat="40.353065" lon="-6.356008">
        <ele>505.569</ele>
        <time>2021-05-14T16:35:39Z</time>
      </trkpt>
      <trkpt lat="40.352567" lon="-6.354124">
        <ele>505.495</ele>
        <time>2021-05-14T16:35:59Z</time>
      </trkpt>
      <trkpt lat="40.351788" lon="-6.352988">
        <ele>506.067</ele>
        <time>2021-05-14T16:36:12Z</time>
      </trkpt>
      <trkpt lat="40.350632" lon="-6.350378">
        <ele>504.593</ele>
        <time>2021-05-14T16:36:52Z</time>
      </trkpt>
      <trkpt lat="40.350366" lon="-6.350076">
        <ele>506.429</ele>
        <time>2021-05-14T16:37:00Z</time>
      </trkpt>
      <trkpt lat="40.349908" lon="-6.350005">
        <ele>503.926</ele>
        <time>2021-05-14T16:37:10Z</time>
      </trkpt>
      <trkpt lat="40.349516" lon="-6.350319">
        <ele>503.647</ele>
        <time>2021-05-14T16:37:19Z</time>
      </trkpt>
      <trkpt lat="40.349038" lon="-6.352106">
        <ele>492.811</ele>
        <time>2021-05-14T16:37:36Z</time>
      </trkpt>
      <trkpt lat="40.348115" lon="-6.353503">
        <ele>488.008</ele>
        <time>2021-05-14T16:38:14Z</time>
      </trkpt>
      <trkpt lat="40.347644" lon="-6.353691">
        <ele>493.549</ele>
        <time>2021-05-14T16:38:41Z</time>
      </trkpt>
      <trkpt lat="40.347065" lon="-6.353559">
        <ele>501.764</ele>
        <time>2021-05-14T16:39:11Z</time>
      </trkpt>
      <trkpt lat="40.346740" lon="-6.353185">
        <ele>510.381</ele>
        <time>2021-05-14T16:39:32Z</time>
      </trkpt>
      <trkpt lat="40.346396" lon="-6.352239">
        <ele>516.240</ele>
        <time>2021-05-14T16:40:02Z</time>
      </trkpt>
      <trkpt lat="40.345751" lon="-6.351477">
        <ele>525.116</ele>
        <time>2021-05-14T16:40:34Z</time>
      </trkpt>
      <trkpt lat="40.342915" lon="-6.349633">
        <ele>513.098</ele>
        <time>2021-05-14T16:43:57Z</time>
      </trkpt>
      <trkpt lat="40.341600" lon="-6.349191">
        <ele>512.424</ele>
        <time>2021-05-14T16:44:29Z</time>
      </trkpt>
      <trkpt lat="40.340784" lon="-6.348650">
        <ele>514.470</ele>
        <time>2021-05-14T16:44:44Z</time>
      </trkpt>
      <trkpt lat="40.340511" lon="-6.348137">
        <ele>513.188</ele>
        <time>2021-05-14T16:44:51Z</time>
      </trkpt>
      <trkpt lat="40.340228" lon="-6.346632">
        <ele>513.424</ele>
        <time>2021-05-14T16:45:08Z</time>
      </trkpt>
      <trkpt lat="40.339587" lon="-6.345629">
        <ele>512.326</ele>
        <time>2021-05-14T16:45:23Z</time>
      </trkpt>
      <trkpt lat="40.338204" lon="-6.345307">
        <ele>510.908</ele>
        <time>2021-05-14T16:45:42Z</time>
      </trkpt>
      <trkpt lat="40.337637" lon="-6.344902">
        <ele>507.135</ele>
        <time>2021-05-14T16:45:50Z</time>
      </trkpt>
      <trkpt lat="40.337266" lon="-6.344006">
        <ele>505.750</ele>
        <time>2021-05-14T16:45:59Z</time>
      </trkpt>
      <trkpt lat="40.338054" lon="-6.342388">
        <ele>498.367</ele>
        <time>2021-05-14T16:46:13Z</time>
      </trkpt>
      <trkpt lat="40.337985" lon="-6.341908">
        <ele>496.566</ele>
        <time>2021-05-14T16:46:17Z</time>
      </trkpt>
      <trkpt lat="40.337707" lon="-6.341555">
        <ele>494.192</ele>
        <time>2021-05-14T16:46:21Z</time>
      </trkpt>
      <trkpt lat="40.337265" lon="-6.341576">
        <ele>493.054</ele>
        <time>2021-05-14T16:46:27Z</time>
      </trkpt>
      <trkpt lat="40.335869" lon="-6.342346">
        <ele>488.530</ele>
        <time>2021-05-14T16:47:19Z</time>
      </trkpt>
      <trkpt lat="40.334949" lon="-6.342282">
        <ele>486.176</ele>
        <time>2021-05-14T16:47:47Z</time>
      </trkpt>
      <trkpt lat="40.334271" lon="-6.341825">
        <ele>488.642</ele>
        <time>2021-05-14T16:48:04Z</time>
      </trkpt>
      <trkpt lat="40.332864" lon="-6.340152">
        <ele>497.722</ele>
        <time>2021-05-14T16:48:37Z</time>
      </trkpt>
      <trkpt lat="40.330186" lon="-6.338527">
        <ele>496.414</ele>
        <time>2021-05-14T16:49:26Z</time>
      </trkpt>
      <trkpt lat="40.328216" lon="-6.337063">
        <ele>494.508</ele>
        <time>2021-05-14T16:50:01Z</time>
      </trkpt>
      <trkpt lat="40.327960" lon="-6.337061">
        <ele>494.081</ele>
        <time>2021-05-14T16:50:06Z</time>
      </trkpt>
      <trkpt lat="40.327008" lon="-6.337818">
        <ele>496.686</ele>
        <time>2021-05-14T16:50:33Z</time>
      </trkpt>
      <trkpt lat="40.326549" lon="-6.337847">
        <ele>495.233</ele>
        <time>2021-05-14T16:50:42Z</time>
      </trkpt>
      <trkpt lat="40.325548" lon="-6.336901">
        <ele>496.872</ele>
        <time>2021-05-14T16:51:03Z</time>
      </trkpt>
      <trkpt lat="40.323407" lon="-6.335754">
        <ele>499.648</ele>
        <time>2021-05-14T16:52:03Z</time>
      </trkpt>
      <trkpt lat="40.322162" lon="-6.334416">
        <ele>496.210</ele>
        <time>2021-05-14T16:52:27Z</time>
      </trkpt>
      <trkpt lat="40.321248" lon="-6.334535">
        <ele>496.286</ele>
        <time>2021-05-14T16:53:09Z</time>
      </trkpt>
      <trkpt lat="40.320757" lon="-6.333882">
        <ele>496.412</ele>
        <time>2021-05-14T16:53:23Z</time>
      </trkpt>
      <trkpt lat="40.320193" lon="-6.332273">
        <ele>491.342</ele>
        <time>2021-05-14T16:53:46Z</time>
      </trkpt>
      <trkpt lat="40.318769" lon="-6.331093">
        <ele>490.622</ele>
        <time>2021-05-14T16:54:12Z</time>
      </trkpt>
      <trkpt lat="40.318269" lon="-6.329178">
        <ele>495.514</ele>
        <time>2021-05-14T16:54:36Z</time>
      </trkpt>
      <trkpt lat="40.316842" lon="-6.329057">
        <ele>490.808</ele>
        <time>2021-05-14T16:54:54Z</time>
      </trkpt>
      <trkpt lat="40.316107" lon="-6.327601">
        <ele>482.011</ele>
        <time>2021-05-14T16:55:07Z</time>
      </trkpt>
      <trkpt lat="40.315311" lon="-6.326686">
        <ele>476.126</ele>
        <time>2021-05-14T16:55:17Z</time>
      </trkpt>
      <trkpt lat="40.314259" lon="-6.326454">
        <ele>469.013</ele>
        <time>2021-05-14T16:55:28Z</time>
      </trkpt>
      <trkpt lat="40.313236" lon="-6.325103">
        <ele>461.662</ele>
        <time>2021-05-14T16:55:43Z</time>
      </trkpt>
      <trkpt lat="40.312854" lon="-6.324915">
        <ele>460.048</ele>
        <time>2021-05-14T16:55:48Z</time>
      </trkpt>
      <trkpt lat="40.312074" lon="-6.324939">
        <ele>460.990</ele>
        <time>2021-05-14T16:56:01Z</time>
      </trkpt>
      <trkpt lat="40.311081" lon="-6.324074">
        <ele>458.196</ele>
        <time>2021-05-14T16:56:20Z</time>
      </trkpt>
      <trkpt lat="40.310653" lon="-6.324167">
        <ele>456.462</ele>
        <time>2021-05-14T16:56:27Z</time>
      </trkpt>
      <trkpt lat="40.309912" lon="-6.324866">
        <ele>455.449</ele>
        <time>2021-05-14T16:56:41Z</time>
      </trkpt>
      <trkpt lat="40.308715" lon="-6.325188">
        <ele>452.702</ele>
        <time>2021-05-14T16:57:01Z</time>
      </trkpt>
      <trkpt lat="40.308187" lon="-6.325765">
        <ele>455.222</ele>
        <time>2021-05-14T16:57:12Z</time>
      </trkpt>
      <trkpt lat="40.307307" lon="-6.327207">
        <ele>461.208</ele>
        <time>2021-05-14T16:57:35Z</time>
      </trkpt>
      <trkpt lat="40.307029" lon="-6.329323">
        <ele>458.711</ele>
        <time>2021-05-14T16:58:02Z</time>
      </trkpt>
      <trkpt lat="40.306537" lon="-6.330214">
        <ele>460.716</ele>
        <time>2021-05-14T16:58:26Z</time>
      </trkpt>
      <trkpt lat="40.305855" lon="-6.330369">
        <ele>464.173</ele>
        <time>2021-05-14T16:58:48Z</time>
      </trkpt>
      <trkpt lat="40.304522" lon="-6.330100">
        <ele>462.082</ele>
        <time>2021-05-14T16:59:13Z</time>
      </trkpt>
      <trkpt lat="40.302798" lon="-6.332066">
        <ele>455.368</ele>
        <time>2021-05-14T16:59:43Z</time>
      </trkpt>
      <trkpt lat="40.302253" lon="-6.332203">
        <ele>450.740</ele>
        <time>2021-05-14T16:59:55Z</time>
      </trkpt>
      <trkpt lat="40.302411" lon="-6.332230">
        <ele>450.866</ele>
        <time>2021-05-14T17:00:08Z</time>
      </trkpt>
      <trkpt lat="40.301725" lon="-6.334463">
        <ele>442.632</ele>
        <time>2021-05-14T17:00:59Z</time>
      </trkpt>
      <trkpt lat="40.301539" lon="-6.334533">
        <ele>443.153</ele>
        <time>2021-05-14T17:01:12Z</time>
      </trkpt>
      <trkpt lat="40.301261" lon="-6.333922">
        <ele>438.204</ele>
        <time>2021-05-14T17:01:27Z</time>
      </trkpt>
      <trkpt lat="40.300142" lon="-6.333688">
        <ele>431.014</ele>
        <time>2021-05-14T17:01:53Z</time>
      </trkpt>
      <trkpt lat="40.300173" lon="-6.333418">
        <ele>433.208</ele>
        <time>2021-05-14T17:02:08Z</time>
      </trkpt>
      <trkpt lat="40.298824" lon="-6.334160">
        <ele>427.432</ele>
        <time>2021-05-14T17:02:48Z</time>
      </trkpt>
      <trkpt lat="40.298508" lon="-6.333540">
        <ele>424.097</ele>
        <time>2021-05-14T17:03:02Z</time>
      </trkpt>
      <trkpt lat="40.298298" lon="-6.333529">
        <ele>422.134</ele>
        <time>2021-05-14T17:03:12Z</time>
      </trkpt>
      <trkpt lat="40.298292" lon="-6.333765">
        <ele>428.193</ele>
        <time>2021-05-14T17:04:28Z</time>
      </trkpt>
    </trkseg>
  </trk>
</gpx>
